[[{"header":{"parameterUnit":"m.s-1","parameterCategory":1,"la1":31.0,"la2":29.5877,"lo1":-88.7671,"lo2":-86.6584,"dy":0.0162,"dx":0.0185,"nx":115,"ny":88,"refTime":"2023-06-30T06:00:00:Z","depth":0,"parameterNumber":2,"parameterNumberName":"U-component_of_WINDS"},"data":[0.0,0.0,0.0,0.0,0.0,0.0,0.0,0.0,0.0,0.0,0.0,0.0,0.0,0.0,0.0,0.0,0.0,0.0,0.0,0.0,0.0,0.0,0.0,0.0,0.0,0.0,0.0,0.0,0.0,0.0,0.0,0.0,0.0,0.0,0.0,0.0,0.0,0.0,0.0,0.0,0.0,0.0,0.0,0.0,0.0,0.0,0.0,0.0,0.0,0.0,0.0,0.0,0.0,0.0,0.0,0.0,0.0,0.0,0.0,0.0,0.0,0.0,0.0,0.0,0.0,0.0,0.0,0.0,0.0,0.0,0.0,0.0,0.0,0.0,0.0,0.0,0.0,0.0,0.0,0.0,0.0,0.0,0.0,0.0,0.0,0.0,0.0,0.0,0.0,0.0,0.0,0.0,0.0,0.0,0.0,0.0,0.0,0.0,0.0,0.0,0.0,0.0,0.0,0.0,0.0,0.0,0.0,0.0,0.0,0.0,0.0,0.0,0.0,0.0,0.0,0.0,0.0,0.0,0.0,0.0,0.0,0.0,0.0,0.0,0.0,0.0,0.0,0.0,0.0,0.0,0.0,0.0,0.0,0.0,0.0,0.0,0.0,0.0,0.0,0.0,0.0,0.0,0.0,0.0,0.0,0.0,0.0,0.0,0.0,0.0,0.0,0.0,0.0,0.0,0.0,0.0,0.0,0.0,0.0,0.0,0.0,0.0,0.0,0.0,0.0,0.0,0.0,0.0,0.0,0.0,0.0,0.0,0.0,0.0,0.0,0.0,0.0,0.0,0.0,0.0,0.0,0.0,0.0,0.0,0.0,0.0,0.0,0.0,0.0,0.0,0.0,0.0,0.0,0.0,0.0,0.0,0.0,0.0,0.0,0.0,0.0,0.0,0.0,0.0,0.0,0.0,0.0,0.0,0.0,0.0,0.0,0.0,0.0,0.0,0.0,0.0,0.0,0.0,0.0,0.0,0.0,0.0,0.0,0.0,0.0,0.0,0.0,0.0,0.0,0.0,0.0,0.0,0.0,0.0,0.0,0.0,0.0,0.0,0.0,0.0,0.0,0.0,0.0,0.0,0.0,0.0,0.0,0.0,0.0,0.0,0.0,0.0,0.0,0.0,0.0,0.0,0.0,0.0,0.0,0.0,0.0,0.0,0.0,0.0,0.0,0.0,0.0,0.0,0.0,0.0,0.0,0.0,0.0,0.0,0.0,0.0,0.0,0.0,0.0,0.0,0.0,0.0,0.0,0.0,0.0,0.0,0.0,0.0,0.0,0.0,0.0,0.0,0.0,0.0,0.0,0.0,0.0,0.0,0.0,0.0,0.0,0.0,0.0,0.0,0.0,0.0,0.0,0.0,0.0,0.0,0.0,0.0,0.0,0.0,0.0,0.0,0.0,0.0,0.0,0.0,0.0,0.0,0.0,0.0,0.0,0.0,0.0,0.0,0.0,0.0,0.0,0.0,0.0,0.0,0.0,0.0,0.0,0.0,0.0,0.0,0.0,0.0,0.0,0.0,0.0,0.0,0.0,0.0,0.0,0.0,0.0,0.0,0.0,0.0,0.0,0.0,0.0,0.0,0.0,0.0,0.0,0.0,0.0,0.0,0.0,0.0,0.0,0.0,0.0,0.0,0.0,0.0,0.0,0.0,0.0,0.0,0.0,0.0,0.0,0.0,0.0,0.0,0.0,0.0,0.0,0.0,0.0,0.0,0.0,0.0,0.0,0.0,0.0,0.0,0.0,0.0,0.0,0.0,0.0,0.0,0.0,0.0,0.0,0.0,0.0,0.0,0.0,0.0,0.0,0.0,0.0,0.0,0.0,0.0,0.0,0.0,0.0,0.0,0.0,0.0,0.0,0.0,0.0,0.0,0.0,0.0,0.0,0.0,0.0,0.0,0.0,0.0,0.0,0.0,0.0,0.0,0.0,0.0,0.0,0.0,0.0,0.0,0.0,0.0,0.0,0.0,0.0,0.0,0.0,0.0,0.0,0.0,0.0,0.0,0.0,0.0,0.0,0.0,0.0,0.0,0.0,0.0,0.0,0.0,0.0,0.0,0.0,0.0,0.0,0.0,0.0,0.0,0.0,0.0,0.0,0.0,0.0,0.0,0.0,0.0,0.0,0.0,0.0,0.0,0.0,0.0,0.0,0.0,0.0,0.0,0.0,0.0,0.0,0.0,0.0,0.0,0.0,0.0,0.0,0.0,0.0,0.0,0.0,0.0,0.0,0.0,0.0,0.0,0.0,0.0,0.0,0.0,0.0,0.0,0.0,0.0,0.0,0.0,0.0,0.0,0.0,0.0,0.0,0.0,0.0,0.0,0.0,0.0,0.0,0.0,0.0,0.0,0.0,0.0,0.0,0.0,0.0,0.0,0.0,0.0,0.0,0.0,0.0,0.0,0.0,0.0,0.0,0.0,0.0,0.0,0.0,0.0,0.0,0.0,0.0,0.0,0.0,0.0,0.0,0.0,0.0,0.0,0.0,0.0,0.0,0.0,0.0,0.0,0.0,0.0,0.0,0.0,0.0,0.0,0.0,0.0,0.0,0.0,0.0,0.0,0.0,0.0,0.0,0.0,0.0,0.0,0.0,0.0,0.0,0.0,0.0,0.0,0.0,0.0,0.0,0.0,0.0,0.0,0.0,0.0,0.0,0.0,0.0,0.0,0.0,0.0,0.0,0.0,0.0,0.0,0.0,0.0,0.0,0.0,0.0,0.0,0.0,0.0,0.0,0.0,0.0,0.0,0.0,0.0,0.0,0.0,0.0,0.0,0.0,0.0,0.0,0.0,0.0,0.0,0.0,0.0,0.0,0.0,0.0,0.0,0.0,0.0,0.0,0.0,0.0,0.0,0.0,0.0,0.0,0.0,0.0,0.0,0.0,0.0,0.0,0.0,0.0,0.0,0.0,0.0,0.0,0.0,0.0,0.0,0.0,0.0,0.0,0.0,0.0,0.0,0.0,0.0,0.0,0.0,0.0,0.0,0.0,0.0,0.0,0.0,0.0,0.0,0.0,0.0,0.0,0.0,0.0,0.0,0.0,0.0,0.0,0.0,0.0,0.0,0.0,0.0,0.0,0.0,0.0,0.0,0.0,0.0,0.0,0.0,0.0,0.0,0.0,0.0,0.0,0.0,0.0,0.0,0.0,0.0,0.0,0.0,0.0,0.0,0.0,0.0,0.0,0.0,0.0,0.0,0.0,0.0,0.0,0.0,0.0,0.0,0.0,0.0,0.0,0.0,0.0,0.0,0.0,0.0,0.0,0.0,0.0,0.0,0.0,0.0,0.0,0.0,0.0,0.0,0.0,0.0,0.0,0.0,0.0,0.0,0.0,0.0,0.0,0.0,0.0,0.0,0.0,0.0,0.0,0.0,0.0,0.0,0.0,0.0,0.0,0.0,0.0,0.0,0.0,0.0,0.0,0.0,0.0,0.0,0.0,0.0,0.0,0.0,0.0,0.0,0.0,0.0,0.0,0.0,0.0,0.0,0.0,0.0,0.0,0.0,0.0,0.0,0.0,0.0,0.0,0.0,0.0,0.0,0.0,0.0,0.0,0.0,0.0,0.0,0.0,0.0,0.0,0.0,0.0,0.0,0.0,0.0,0.0,0.0,0.0,0.0,0.0,0.0,0.0,0.0,0.0,0.0,0.0,0.0,0.0,0.0,0.0,0.0,0.0,0.0,0.0,0.0,0.0,0.0,0.0,0.0,0.0,0.0,0.0,0.0,0.0,0.0,0.0,0.0,0.0,0.0,0.0,0.0,0.0,0.0,0.0,0.0,0.0,0.0,0.0,0.0,0.0,0.0,0.0,0.0,0.0,0.0,0.0,0.0,0.0,0.0,0.0,0.0,0.0,0.0,0.0,0.0,0.0,0.0,0.0,0.0,0.0,0.0,0.0,0.0,0.0,0.0,0.0,0.0,0.0,0.0,0.0,0.0,0.0,0.0,0.0,0.0,0.0,0.0,0.0,0.0,0.0,0.0,0.0,0.0,0.0,0.0,0.0,0.0,0.0,0.0,0.0,0.0,0.0,0.0,0.0,0.0,0.0,0.0,0.0,0.0,0.0,0.0,0.0,0.0,0.0,0.0,0.0,0.0,0.0,0.0,0.0,0.0,0.0,0.0,0.0,0.0,0.0,0.0,0.0,0.0,0.0,0.0,0.0,0.0,0.0,0.0,0.0,0.0,0.0,0.0,0.0,0.0,0.0,0.0,0.0,0.0,0.0,0.0,0.0,0.0,0.0,0.0,0.0,0.0,0.0,0.0,-1.4393,0.0,0.0,0.0,0.0,0.0,0.0,0.0,0.0,0.0,0.0,0.0,0.0,0.0,0.0,0.0,0.0,0.0,0.0,0.0,0.0,0.0,0.0,0.0,0.0,0.0,0.0,0.0,0.0,0.0,0.0,0.0,0.0,0.0,0.0,0.0,0.0,0.0,0.0,0.0,0.0,0.0,0.0,0.0,0.0,0.0,0.0,0.0,0.0,0.0,0.0,0.0,0.0,0.0,0.0,0.0,0.0,0.0,0.0,0.0,0.0,0.0,0.0,0.0,0.0,0.0,0.0,0.0,0.0,0.0,0.0,0.0,0.0,0.0,0.0,0.0,0.0,0.0,0.0,0.0,0.0,0.0,0.0,0.0,0.0,0.0,0.0,0.0,0.0,0.0,0.0,0.0,0.0,0.0,0.0,0.0,0.0,0.0,0.0,0.0,0.0,0.0,0.0,0.0,0.0,0.0,0.0,0.0,0.0,0.0,0.0,-1.3054,-1.5034,-1.3017,-1.2827,-1.4804,0.0,0.0,0.0,0.0,0.0,0.0,0.0,0.0,0.0,0.0,0.0,0.0,0.0,0.0,0.0,0.0,0.0,0.0,0.0,0.0,0.0,0.0,0.0,0.0,0.0,0.0,0.0,0.0,0.0,0.0,0.0,0.0,0.0,0.0,0.0,0.0,0.0,0.0,0.0,0.0,0.0,0.0,0.0,0.0,0.0,0.0,0.0,0.0,0.0,0.0,0.0,0.0,0.0,0.0,0.0,0.0,0.0,0.0,0.0,0.0,0.0,0.0,0.0,0.0,0.0,0.0,0.0,0.0,0.0,0.0,0.0,0.0,0.0,0.0,0.0,0.0,0.0,0.0,0.0,0.0,0.0,0.0,0.0,0.0,0.0,0.0,0.0,0.0,0.0,0.0,0.0,0.0,0.0,0.0,0.0,0.0,0.0,0.0,0.0,0.0,0.0,0.0,0.0,0.0,0.0,0.0,0.0,0.0,0.0,0.0,0.0,0.0,-1.2623,-1.2582,-1.4686,0.0,0.0,0.0,0.0,0.0,0.0,0.0,0.0,0.0,0.0,0.0,0.0,0.0,0.0,0.0,0.0,0.0,0.0,0.0,0.0,0.0,0.0,0.0,0.0,0.0,0.0,0.0,0.0,0.0,0.0,0.0,0.0,0.0,0.0,0.0,0.0,0.0,0.0,0.0,0.0,0.0,0.0,0.0,0.0,0.0,0.0,0.0,0.0,0.0,0.0,0.0,0.0,0.0,0.0,0.0,0.0,0.0,0.0,0.0,0.0,0.0,0.0,0.0,0.0,0.0,0.0,0.0,0.0,0.0,0.0,0.0,0.0,0.0,0.0,0.0,0.0,0.0,0.0,0.0,0.0,0.0,0.0,0.0,0.0,0.0,0.0,0.0,0.0,0.0,0.0,0.0,0.0,0.0,0.0,0.0,0.0,0.0,0.0,0.0,0.0,0.0,0.0,0.0,0.0,0.0,0.0,0.0,0.0,0.0,0.0,-1.2694,-1.4414,-1.3676,0.0,-1.3678,0.0,0.0,0.0,0.0,0.0,0.0,0.0,0.0,0.0,0.0,0.0,0.0,0.0,0.0,0.0,0.0,0.0,0.0,0.0,0.0,0.0,0.0,0.0,0.0,0.0,0.0,0.0,0.0,0.0,0.0,0.0,0.0,0.0,0.0,0.0,0.0,0.0,0.0,0.0,0.0,0.0,0.0,0.0,0.0,0.0,0.0,0.0,0.0,0.0,0.0,0.0,0.0,0.0,0.0,0.0,0.0,0.0,0.0,0.0,0.0,0.0,0.0,0.0,0.0,0.0,0.0,0.0,0.0,0.0,0.0,0.0,0.0,0.0,0.0,0.0,0.0,0.0,0.0,0.0,0.0,0.0,0.0,0.0,0.0,0.0,0.0,0.0,0.0,0.0,0.0,0.0,0.0,0.0,0.0,0.0,0.0,0.0,0.0,0.0,0.0,0.0,0.0,0.0,0.0,0.0,0.0,0.0,0.0,0.0,0.0,-1.25,-1.394,-1.3822,-1.3372,0.0,0.0,0.0,0.0,0.0,0.0,0.0,0.0,0.0,0.0,0.0,0.0,0.0,0.0,0.0,0.0,0.0,0.0,0.0,0.0,0.0,0.0,0.0,0.0,0.0,0.0,0.0,0.0,0.0,0.0,0.0,0.0,0.0,0.0,0.0,0.0,0.0,0.0,0.0,0.0,0.0,0.0,0.0,0.0,0.0,0.0,0.0,0.0,0.0,0.0,0.0,0.0,0.0,0.0,0.0,0.0,0.0,0.0,0.0,0.0,0.0,0.0,0.0,0.0,0.0,0.0,0.0,0.0,0.0,0.0,0.0,0.0,0.0,0.0,0.0,0.0,0.0,0.0,0.0,0.0,0.0,0.0,0.0,0.0,0.0,0.0,0.0,0.0,0.0,0.0,0.0,0.0,0.0,0.0,0.0,0.0,0.0,0.0,0.0,0.0,0.0,0.0,0.0,0.0,0.0,0.0,0.0,0.0,0.0,0.0,-1.1756,-1.1996,-1.3065,-1.3206,-1.283,-1.1847,0.0,0.0,0.0,0.0,0.0,0.0,0.0,0.0,0.0,0.0,0.0,0.0,0.0,0.0,0.0,0.0,0.0,0.0,0.0,0.0,0.0,0.0,0.0,0.0,0.0,0.0,0.0,0.0,0.0,0.0,0.0,0.0,0.0,0.0,0.0,0.0,0.0,0.0,0.0,0.0,0.0,0.0,0.0,0.0,0.0,0.0,0.0,0.0,0.0,0.0,0.0,0.0,0.0,0.0,0.0,0.0,0.0,0.0,0.0,0.0,0.0,0.0,0.0,0.0,0.0,0.0,0.0,0.0,0.0,0.0,0.0,0.0,0.0,0.0,0.0,0.0,0.0,0.0,0.0,0.0,0.0,0.0,0.0,0.0,0.0,0.0,0.0,0.0,0.0,0.0,0.0,0.0,0.0,0.0,0.0,0.0,0.0,0.0,0.0,0.0,0.0,0.0,0.0,0.0,0.0,0.0,0.0,0.0,-1.3568,-1.164,-1.1051,-1.1967,-1.1792,-1.1745,0.0,0.0,0.0,0.0,0.0,0.0,0.0,0.0,0.0,0.0,0.0,0.0,0.0,0.0,0.0,0.0,0.0,0.0,0.0,0.0,0.0,0.0,0.0,0.0,0.0,0.0,0.0,0.0,0.0,0.0,0.0,0.0,0.0,0.0,0.0,0.0,0.0,0.0,0.0,0.0,0.0,0.0,0.0,0.0,0.0,0.0,0.0,0.0,0.0,0.0,0.0,0.0,0.0,0.0,0.0,0.0,0.0,0.0,0.0,0.0,0.0,0.0,0.0,0.0,0.0,0.0,0.0,0.0,0.0,0.0,0.0,0.0,0.0,0.0,0.0,0.0,0.0,0.0,0.0,0.0,0.0,0.0,0.0,0.0,0.0,0.0,0.0,0.0,0.0,0.0,0.0,0.0,0.0,0.0,0.0,0.0,0.0,0.0,0.0,0.0,0.0,0.0,0.0,0.0,0.0,0.0,0.0,0.0,0.0,-1.2033,-1.1775,-1.1717,-1.1908,-1.2125,-1.2167,0.0,0.0,0.0,0.0,0.0,0.0,0.0,0.0,0.0,0.0,0.0,0.0,0.0,0.0,0.0,0.0,0.0,0.0,0.0,0.0,0.0,0.0,0.0,0.0,0.0,0.0,0.0,0.0,0.0,0.0,0.0,0.0,0.0,0.0,0.0,0.0,0.0,0.0,0.0,0.0,0.0,0.0,0.0,0.0,0.0,0.0,0.0,0.0,0.0,0.0,0.0,0.0,0.0,0.0,0.0,0.0,0.0,0.0,0.0,0.0,0.0,0.0,0.0,0.0,0.0,0.0,0.0,0.0,0.0,0.0,0.0,0.0,0.0,0.0,0.0,0.0,0.0,0.0,0.0,0.0,0.0,0.0,0.0,0.0,0.0,0.0,0.0,0.0,0.0,0.0,0.0,0.0,0.0,0.0,0.0,0.0,0.0,0.0,0.0,0.0,0.0,0.0,0.0,0.0,0.0,0.0,0.0,0.0,0.0,-1.1116,0.0,-1.1925,-1.1478,-1.1945,-1.2054,0.0,0.0,0.0,0.0,0.0,0.0,0.0,0.0,0.0,0.0,0.0,0.0,0.0,0.0,0.0,0.0,0.0,0.0,0.0,0.0,0.0,0.0,0.0,0.0,0.0,0.0,0.0,0.0,0.0,0.0,0.0,0.0,0.0,0.0,0.0,0.0,0.0,0.0,0.0,0.0,0.0,0.0,0.0,0.0,0.0,0.0,0.0,0.0,0.0,0.0,0.0,0.0,0.0,0.0,0.0,0.0,0.0,0.0,0.0,0.0,0.0,0.0,0.0,0.0,0.0,0.0,0.0,0.0,0.0,0.0,0.0,0.0,0.0,0.0,0.0,0.0,0.0,0.0,0.0,0.0,0.0,0.0,0.0,0.0,0.0,0.0,0.0,0.0,0.0,0.0,0.0,0.0,0.0,0.0,0.0,0.0,0.0,0.0,0.0,0.0,0.0,0.0,0.0,0.0,0.0,0.0,0.0,0.0,-1.1353,-1.1091,-1.1464,-1.1373,-1.0584,-1.1153,-1.1289,0.0,0.0,0.0,0.0,0.0,0.0,0.0,0.0,0.0,0.0,0.0,0.0,0.0,0.0,0.0,0.0,0.0,0.0,0.0,0.0,0.0,0.0,0.0,0.0,0.0,0.0,0.0,0.0,0.0,0.0,0.0,0.0,0.0,0.0,0.0,0.0,0.0,0.0,0.0,0.0,0.0,0.0,0.0,0.0,0.0,0.0,0.0,0.0,0.0,0.0,0.0,0.0,0.0,0.0,0.0,0.0,0.0,0.0,0.0,0.0,0.0,0.0,0.0,0.0,0.0,0.0,0.0,0.0,0.0,0.0,0.0,0.0,0.0,0.0,0.0,0.0,0.0,0.0,0.0,0.0,0.0,0.0,0.0,0.0,0.0,0.0,0.0,0.0,0.0,0.0,0.0,0.0,0.0,0.0,0.0,0.0,0.0,0.0,0.0,0.0,0.0,0.0,0.0,0.0,0.0,0.0,0.0,0.0,0.0,-1.2469,-1.1708,-1.1583,-1.2171,-1.1566,-1.1572,0.0,0.0,0.0,0.0,0.0,0.0,0.0,0.0,0.0,0.0,0.0,0.0,0.0,0.0,0.0,0.0,0.0,0.0,0.0,0.0,0.0,0.0,0.0,0.0,0.0,0.0,0.0,0.0,0.0,0.0,0.0,0.0,0.0,0.0,0.0,0.0,0.0,0.0,0.0,0.0,0.0,0.0,0.0,0.0,0.0,0.0,0.0,0.0,0.0,0.0,0.0,0.0,0.0,0.0,0.0,0.0,0.0,0.0,0.0,0.0,0.0,0.0,0.0,0.0,0.0,0.0,0.0,0.0,0.0,0.0,0.0,0.0,0.0,0.0,0.0,0.0,0.0,0.0,0.0,0.0,0.0,0.0,0.0,0.0,0.0,0.0,0.0,0.0,0.0,0.0,0.0,0.0,0.0,0.0,0.0,0.0,0.0,0.0,0.0,0.0,0.0,0.0,0.0,0.0,0.0,0.0,0.0,0.0,0.0,-1.2341,-1.16,-1.1462,-1.2082,-1.1701,-1.176,-1.2363,0.0,0.0,0.0,0.0,0.0,0.0,0.0,0.0,0.0,0.0,0.0,0.0,0.0,0.0,0.0,0.0,0.0,0.0,0.0,0.0,0.0,0.0,0.0,0.0,0.0,0.0,0.0,0.0,0.0,0.0,0.0,0.0,0.0,0.0,0.0,0.0,0.0,0.0,0.0,0.0,0.0,0.0,0.0,0.0,0.0,0.0,0.0,0.0,0.0,0.0,0.0,0.0,0.0,0.0,0.0,0.0,0.0,0.0,0.0,0.0,0.0,0.0,0.0,0.0,0.0,0.0,0.0,0.0,0.0,0.0,0.0,0.0,0.0,0.0,0.0,0.0,0.0,0.0,0.0,0.0,0.0,0.0,0.0,0.0,0.0,0.0,0.0,0.0,0.0,0.0,0.0,0.0,0.0,0.0,0.0,0.0,0.0,0.0,0.0,0.0,0.0,0.0,0.0,0.0,0.0,0.0,0.0,0.0,-1.112,-1.111,-1.1004,-1.0704,-1.1623,-1.1871,0.0,0.0,0.0,0.0,0.0,0.0,0.0,0.0,0.0,0.0,0.0,0.0,0.0,0.0,0.0,0.0,0.0,0.0,0.0,0.0,0.0,0.0,0.0,0.0,0.0,0.0,0.0,0.0,0.0,0.0,0.0,0.0,0.0,0.0,0.0,0.0,0.0,0.0,0.0,0.0,0.0,0.0,0.0,0.0,0.0,0.0,0.0,0.0,0.0,0.0,0.0,0.0,0.0,0.0,0.0,0.0,0.0,0.0,0.0,0.0,0.0,0.0,0.0,0.0,0.0,0.0,0.0,0.0,0.0,0.0,0.0,0.0,0.0,0.0,0.0,0.0,0.0,0.0,0.0,0.0,0.0,0.0,0.0,0.0,0.0,0.0,0.0,0.0,0.0,0.0,0.0,0.0,0.0,0.0,0.0,0.0,0.0,0.0,0.0,0.0,0.0,0.0,0.0,0.0,0.0,0.0,0.0,0.0,0.0,-1.0219,-1.0245,-1.0611,-1.1315,-1.1362,-1.1626,0.0,0.0,0.0,0.0,0.0,0.0,0.0,0.0,0.0,0.0,0.0,0.0,0.0,0.0,0.0,0.0,0.0,0.0,0.0,0.0,0.0,0.0,0.0,0.0,0.0,0.0,0.0,0.0,0.0,0.0,0.0,0.0,0.0,0.0,0.0,0.0,0.0,0.0,0.0,0.0,0.0,0.0,0.0,0.0,0.0,0.0,0.0,0.0,0.0,0.0,0.0,0.0,0.0,0.0,0.0,0.0,0.0,0.0,0.0,0.0,0.0,0.0,0.0,0.0,0.0,0.0,0.0,0.0,0.0,0.0,0.0,0.0,0.0,0.0,0.0,0.0,0.0,0.0,0.0,0.0,0.0,0.0,0.0,0.0,0.0,0.0,0.0,0.0,0.0,0.0,0.0,0.0,0.0,0.0,0.0,0.0,0.0,0.0,0.0,0.0,0.0,0.0,0.0,0.0,0.0,0.0,0.0,0.0,-0.9526,-0.9379,-0.9425,-0.9818,-1.0573,-1.0977,-1.1361,0.0,0.0,0.0,0.0,0.0,0.0,0.0,0.0,0.0,0.0,0.0,0.0,0.0,0.0,0.0,0.0,0.0,0.0,0.0,0.0,0.0,0.0,0.0,0.0,0.0,0.0,0.0,0.0,0.0,0.0,0.0,0.0,0.0,0.0,0.0,0.0,0.0,0.0,0.0,0.0,0.0,0.0,0.0,0.0,0.0,0.0,0.0,0.0,0.0,0.0,0.0,0.0,0.0,0.0,0.0,0.0,0.0,0.0,0.0,0.0,0.0,0.0,0.0,0.0,0.0,0.0,0.0,0.0,0.0,0.0,0.0,0.0,0.0,0.0,0.0,0.0,0.0,0.0,0.0,0.0,0.0,0.0,0.0,0.0,0.0,0.0,0.0,0.0,0.0,0.0,0.0,0.0,0.0,0.0,0.0,0.0,0.0,0.0,0.0,0.0,0.0,0.0,0.0,0.0,0.0,0.0,0.0,0.0,-0.9381,-0.866,-0.8756,-0.893,-0.9162,-1.0507,-1.109,0.0,0.0,0.0,0.0,0.0,0.0,0.0,0.0,0.0,0.0,0.0,0.0,0.0,0.0,0.0,0.0,0.0,0.0,0.0,0.0,0.0,0.0,0.0,0.0,0.0,0.0,0.0,0.0,0.0,0.0,0.0,0.0,0.0,0.0,0.0,0.0,0.0,0.0,0.0,0.0,0.0,0.0,0.0,0.0,0.0,0.0,0.0,0.0,0.0,0.0,0.0,0.0,0.0,0.0,0.0,0.0,0.0,0.0,0.0,0.0,0.0,0.0,0.0,0.0,0.0,0.0,0.0,0.0,0.0,0.0,0.0,0.0,0.0,0.0,0.0,0.0,0.0,0.0,0.0,0.0,0.0,0.0,0.0,0.0,0.0,0.0,0.0,0.0,0.0,0.0,0.0,0.0,0.0,0.0,0.0,0.0,0.0,0.0,0.0,0.0,0.0,0.0,0.0,0.0,0.0,0.0,0.0,0.0,-0.8852,-0.8397,-0.8666,-0.883,-0.8912,-0.9765,-1.0366,0.0,0.0,0.0,0.0,0.0,0.0,0.0,0.0,0.0,0.0,0.0,0.0,0.0,0.0,0.0,0.0,0.0,0.0,0.0,0.0,0.0,0.0,0.0,0.0,0.0,0.0,0.0,0.0,0.0,0.0,0.0,0.0,0.0,0.0,0.0,0.0,0.0,0.0,0.0,0.0,0.0,0.0,0.0,0.0,0.0,0.0,0.0,0.0,-1.0685,0.0,0.0,0.0,0.0,0.0,0.0,0.0,0.0,0.0,0.0,0.0,0.0,0.0,0.0,0.0,0.0,0.0,0.0,0.0,0.0,0.0,0.0,0.0,0.0,0.0,0.0,0.0,0.0,0.0,0.0,0.0,0.0,0.0,0.0,0.0,0.0,0.0,0.0,0.0,0.0,0.0,0.0,0.0,0.0,0.0,0.0,0.0,0.0,0.0,0.0,0.0,0.0,0.0,0.0,0.0,0.0,0.0,0.0,0.0,-0.8616,-0.8348,-0.894,-0.9263,-0.9302,-0.9743,-1.0146,0.0,0.0,0.0,0.0,0.0,0.0,0.0,0.0,0.0,0.0,0.0,0.0,0.0,0.0,0.0,0.0,0.0,0.0,0.0,0.0,0.0,0.0,0.0,0.0,0.0,0.0,0.0,0.0,0.0,0.0,0.0,0.0,0.0,0.0,0.0,0.0,0.0,0.0,0.0,0.0,0.0,0.0,0.0,0.0,0.0,0.0,0.0,0.0,0.0,0.0,0.0,0.0,0.0,0.0,0.0,0.0,0.0,0.0,0.0,0.0,0.0,0.0,0.0,0.0,0.0,0.0,0.0,0.0,0.0,0.0,0.0,0.0,0.0,0.0,0.0,0.0,0.0,0.0,0.0,0.0,0.0,0.0,0.0,0.0,0.0,0.0,0.0,0.0,0.0,0.0,0.0,0.0,0.0,0.0,0.0,0.0,0.0,0.0,0.0,0.0,0.0,0.0,0.0,0.0,0.0,0.0,0.0,-0.8764,-0.8638,-0.8459,-0.9206,-0.9658,-0.9806,-0.9898,-1.0095,-1.0375,0.0,0.0,0.0,0.0,0.0,0.0,0.0,0.0,0.0,0.0,0.0,0.0,0.0,0.0,0.0,0.0,0.0,0.0,0.0,0.0,0.0,0.0,0.0,0.0,0.0,0.0,0.0,0.0,0.0,0.0,0.0,0.0,0.0,0.0,0.0,0.0,0.0,0.0,-0.9843,-0.9776,0.0,0.0,0.0,0.0,0.0,0.0,0.0,0.0,-0.9705,0.0,0.0,0.0,0.0,0.0,0.0,0.0,0.0,0.0,0.0,0.0,0.0,0.0,0.0,0.0,0.0,0.0,0.0,0.0,0.0,0.0,0.0,0.0,0.0,0.0,0.0,0.0,0.0,0.0,0.0,0.0,0.0,0.0,0.0,0.0,0.0,0.0,0.0,0.0,0.0,0.0,0.0,0.0,0.0,0.0,0.0,0.0,0.0,0.0,0.0,0.0,0.0,0.0,0.0,0.0,0.0,-0.8616,-0.8974,-0.8929,-0.8439,-0.8786,-0.9211,-0.9799,-0.9612,-0.9811,-1.0335,0.0,0.0,0.0,0.0,0.0,0.0,0.0,0.0,0.0,0.0,0.0,0.0,0.0,0.0,0.0,0.0,0.0,0.0,0.0,0.0,0.0,0.0,0.0,0.0,0.0,0.0,0.0,0.0,0.0,0.0,0.0,0.0,0.0,0.0,0.0,0.0,0.0,0.0,0.0,-0.9552,-0.9301,0.0,0.0,0.0,0.0,0.0,0.0,0.0,0.0,-1.0318,0.0,0.0,0.0,0.0,0.0,0.0,0.0,0.0,0.0,0.0,0.0,0.0,0.0,0.0,0.0,0.0,0.0,0.0,0.0,0.0,0.0,0.0,0.0,0.0,0.0,0.0,0.0,0.0,0.0,0.0,0.0,0.0,0.0,0.0,0.0,0.0,0.0,0.0,0.0,0.0,0.0,0.0,0.0,0.0,0.0,0.0,0.0,0.0,0.0,0.0,0.0,0.0,0.0,0.0,0.0,-0.9258,-0.8818,-0.8573,-0.8601,-0.9408,-0.9885,-0.9995,-1.031,-1.047,0.0,0.0,0.0,0.0,0.0,0.0,0.0,0.0,0.0,0.0,0.0,0.0,0.0,0.0,0.0,0.0,0.0,0.0,0.0,0.0,0.0,0.0,0.0,0.0,0.0,0.0,0.0,0.0,0.0,0.0,0.0,0.0,0.0,0.0,0.0,0.0,0.0,0.0,0.0,0.0,-0.9304,-0.9176,-0.8365,0.0,0.0,0.0,0.0,0.0,0.0,-0.9633,-1.0025,0.0,0.0,0.0,0.0,0.0,0.0,0.0,0.0,0.0,0.0,0.0,0.0,0.0,0.0,0.0,0.0,0.0,0.0,0.0,0.0,0.0,0.0,0.0,0.0,0.0,0.0,0.0,0.0,0.0,0.0,0.0,0.0,0.0,0.0,0.0,0.0,0.0,0.0,0.0,0.0,0.0,0.0,0.0,0.0,0.0,0.0,0.0,0.0,0.0,0.0,0.0,0.0,0.0,0.0,0.0,-0.9942,-0.8864,-0.8387,-0.8645,-0.9882,-1.0409,-1.0138,-1.0705,-1.1002,0.0,0.0,0.0,0.0,0.0,0.0,0.0,0.0,0.0,0.0,0.0,0.0,0.0,0.0,0.0,0.0,0.0,0.0,0.0,0.0,0.0,0.0,0.0,0.0,0.0,0.0,0.0,0.0,0.0,0.0,0.0,0.0,0.0,0.0,0.0,0.0,0.0,0.0,0.0,0.0,0.0,-0.8896,-0.8039,-0.8139,0.0,0.0,0.0,0.0,-0.9592,-0.9788,0.0,0.0,0.0,0.0,0.0,0.0,0.0,0.0,0.0,0.0,0.0,0.0,0.0,0.0,0.0,0.0,0.0,0.0,0.0,0.0,0.0,0.0,0.0,0.0,0.0,0.0,0.0,0.0,0.0,0.0,0.0,0.0,0.0,0.0,0.0,0.0,0.0,0.0,0.0,0.0,0.0,0.0,0.0,0.0,0.0,0.0,0.0,0.0,0.0,0.0,0.0,0.0,0.0,0.0,0.0,0.0,-1.0004,-0.9787,-0.923,-0.8424,-0.9211,-0.9663,-0.9752,-0.9768,-1.0241,0.0,0.0,0.0,0.0,0.0,0.0,0.0,0.0,0.0,0.0,0.0,0.0,0.0,0.0,0.0,0.0,0.0,0.0,0.0,0.0,0.0,0.0,0.0,0.0,0.0,0.0,0.0,0.0,0.0,0.0,0.0,0.0,0.0,0.0,0.0,0.0,0.0,0.0,0.0,0.0,0.0,-0.807,-0.8013,-0.8223,-0.8404,0.0,0.0,-0.9346,-0.9818,-1.0976,0.0,0.0,0.0,0.0,0.0,0.0,0.0,0.0,0.0,0.0,0.0,0.0,0.0,0.0,0.0,0.0,0.0,0.0,0.0,0.0,0.0,0.0,0.0,0.0,0.0,0.0,0.0,0.0,0.0,0.0,0.0,0.0,0.0,0.0,0.0,0.0,0.0,0.0,0.0,0.0,0.0,0.0,0.0,0.0,0.0,0.0,0.0,0.0,0.0,0.0,0.0,0.0,0.0,0.0,0.0,-1.0922,-1.0899,-0.9996,-0.9466,-0.9255,-0.9826,-1.0054,-0.983,-1.0284,-1.0614,0.0,0.0,0.0,0.0,0.0,0.0,0.0,0.0,0.0,0.0,0.0,0.0,0.0,0.0,0.0,0.0,0.0,0.0,0.0,0.0,0.0,0.0,0.0,0.0,0.0,0.0,0.0,0.0,0.0,0.0,0.0,0.0,0.0,0.0,0.0,0.0,0.0,0.0,0.0,0.0,0.0,0.0,-0.7543,-0.7929,0.0,0.0,0.0,-0.9597,-1.024,0.0,0.0,0.0,0.0,0.0,0.0,0.0,0.0,0.0,0.0,0.0,0.0,0.0,0.0,0.0,0.0,0.0,0.0,0.0,0.0,0.0,0.0,0.0,0.0,0.0,0.0,0.0,0.0,0.0,0.0,0.0,0.0,0.0,0.0,0.0,0.0,0.0,0.0,0.0,0.0,0.0,0.0,0.0,0.0,0.0,0.0,0.0,0.0,0.0,0.0,0.0,0.0,0.0,0.0,0.0,0.0,0.0,-1.1587,-1.0112,-0.9524,-0.9819,-1.0152,-1.0161,-0.9846,-1.0447,0.0,0.0,0.0,0.0,0.0,0.0,0.0,0.0,0.0,0.0,0.0,0.0,0.0,0.0,0.0,0.0,0.0,0.0,0.0,0.0,0.0,0.0,0.0,0.0,0.0,0.0,0.0,-0.8241,0.0,0.0,0.0,0.0,0.0,0.0,0.0,0.0,0.0,0.0,0.0,0.0,0.0,0.0,-0.7034,-0.7155,-0.7646,-0.8244,0.0,0.0,-0.9438,-1.0444,-1.045,-1.0536,0.0,0.0,0.0,0.0,0.0,0.0,0.0,0.0,0.0,0.0,0.0,0.0,0.0,0.0,0.0,0.0,0.0,0.0,0.0,0.0,0.0,0.0,0.0,0.0,0.0,0.0,0.0,0.0,0.0,0.0,0.0,0.0,0.0,0.0,0.0,0.0,0.0,0.0,0.0,0.0,0.0,0.0,0.0,0.0,0.0,0.0,0.0,0.0,0.0,0.0,0.0,0.0,0.0,0.0,0.0,-1.1547,-1.0283,-0.9592,-0.9536,-0.9611,-0.9592,-0.9536,-0.9582,-1.0126,0.0,0.0,0.0,0.0,0.0,0.0,0.0,0.0,0.0,0.0,0.0,0.0,0.0,0.0,0.0,0.0,0.0,0.0,0.0,0.0,0.0,0.0,0.0,0.0,0.0,0.0,0.0,0.0,0.0,0.0,0.0,0.0,0.0,0.0,0.0,0.0,0.0,0.0,0.0,0.0,0.0,-0.6625,-0.7029,-0.7455,-0.7904,0.0,0.0,-0.8953,-1.0146,-1.0781,-1.1068,-1.0953,0.0,0.0,0.0,0.0,0.0,0.0,0.0,0.0,0.0,0.0,0.0,0.0,0.0,0.0,0.0,0.0,0.0,0.0,0.0,0.0,0.0,0.0,0.0,0.0,0.0,0.0,0.0,0.0,0.0,0.0,0.0,0.0,0.0,0.0,0.0,0.0,0.0,0.0,0.0,0.0,0.0,0.0,0.0,0.0,0.0,0.0,0.0,0.0,0.0,0.0,0.0,0.0,0.0,-1.1396,-1.1587,-1.0547,-1.0041,-0.9981,-1.0041,-1.0031,-1.0,-1.0175,-1.0586,0.0,0.0,0.0,0.0,0.0,0.0,0.0,0.0,0.0,0.0,0.0,0.0,0.0,0.0,0.0,0.0,0.0,0.0,0.0,0.0,0.0,0.0,0.0,0.0,0.0,0.0,0.0,0.0,-0.7056,-0.6799,-0.6554,0.0,0.0,0.0,0.0,0.0,0.0,0.0,0.0,0.0,0.0,-0.7032,-0.7409,-0.7862,0.0,0.0,-0.9243,-0.959,-1.0406,-1.097,-1.1215,-1.1145,-1.1851,0.0,0.0,0.0,0.0,0.0,0.0,0.0,0.0,0.0,0.0,0.0,0.0,0.0,0.0,0.0,0.0,0.0,0.0,0.0,0.0,0.0,0.0,0.0,0.0,0.0,0.0,0.0,0.0,0.0,0.0,0.0,0.0,0.0,0.0,0.0,0.0,0.0,0.0,0.0,0.0,0.0,0.0,0.0,0.0,0.0,0.0,0.0,0.0,0.0,0.0,0.0,0.0,-1.1596,-1.1596,-1.0763,-1.0322,-1.0322,-1.0156,-1.0146,-1.0283,-1.0351,-1.0627,0.0,0.0,0.0,0.0,0.0,0.0,0.0,0.0,0.0,0.0,0.0,0.0,0.0,0.0,0.0,0.0,0.0,0.0,0.0,0.0,0.0,0.0,0.0,0.0,0.0,0.0,0.0,0.0,-0.6893,-0.6474,-0.5971,0.0,0.0,0.0,0.0,0.0,0.0,0.0,0.0,0.0,0.0,-0.7381,-0.7748,-0.8334,-0.8958,-0.959,-0.9925,-1.0273,-1.0805,-1.1065,-1.1227,-1.1334,0.0,0.0,0.0,0.0,0.0,0.0,0.0,0.0,0.0,0.0,0.0,0.0,0.0,0.0,0.0,0.0,0.0,0.0,0.0,0.0,0.0,0.0,0.0,0.0,0.0,0.0,0.0,0.0,0.0,0.0,-1.3871,0.0,0.0,0.0,0.0,0.0,0.0,0.0,0.0,0.0,0.0,0.0,0.0,0.0,0.0,0.0,0.0,0.0,0.0,0.0,0.0,0.0,0.0,-1.1616,-1.1606,-1.0773,-1.0332,-1.0293,-0.9873,-0.9836,-1.0254,-0.9855,-0.9992,-1.0692,0.0,0.0,0.0,0.0,0.0,0.0,0.0,0.0,0.0,0.0,0.0,0.0,0.0,0.0,0.0,0.0,0.0,0.0,0.0,0.0,0.0,0.0,0.0,0.0,0.0,0.0,-0.7274,-0.6879,-0.6362,0.0,0.0,0.0,0.0,0.0,0.0,0.0,0.0,0.0,0.0,-0.6833,-0.7503,-0.7958,-0.8733,-0.9415,-0.9845,-1.0379,-1.0923,-1.1281,-1.1125,-1.1013,0.0,0.0,0.0,0.0,0.0,0.0,0.0,0.0,0.0,0.0,0.0,0.0,0.0,0.0,0.0,0.0,0.0,0.0,0.0,0.0,0.0,0.0,0.0,0.0,0.0,0.0,0.0,-1.7182,-1.6692,0.0,0.0,0.0,0.0,0.0,0.0,0.0,0.0,0.0,0.0,0.0,-1.3391,-1.3571,0.0,0.0,0.0,0.0,0.0,0.0,0.0,0.0,0.0,0.0,0.0,0.0,-1.1957,-1.1817,-1.11,-1.0703,-1.0693,-1.0283,-1.0137,-1.0273,-1.0137,-1.0127,-1.0298,0.0,0.0,0.0,0.0,0.0,0.0,0.0,0.0,0.0,0.0,0.0,0.0,0.0,0.0,0.0,0.0,0.0,0.0,0.0,0.0,0.0,0.0,0.0,0.0,0.0,-0.7516,0.0,0.0,0.0,0.0,0.0,0.0,0.0,0.0,0.0,0.0,0.0,-0.6152,-0.6496,-0.7543,-0.8326,-0.8462,-0.894,-0.9497,0.0,0.0,0.0,0.0,0.0,0.0,0.0,0.0,0.0,0.0,0.0,0.0,0.0,0.0,-1.1012,-1.014,-1.0279,-1.0548,-1.0548,0.0,0.0,0.0,0.0,0.0,0.0,0.0,0.0,0.0,0.0,0.0,0.0,0.0,0.0,-1.7709,0.0,-1.7517,0.0,0.0,0.0,0.0,0.0,0.0,0.0,0.0,-1.3975,-1.4231,-1.4175,-1.4155,-1.417,0.0,-1.3887,-1.407,0.0,0.0,0.0,0.0,0.0,0.0,0.0,0.0,-1.2404,-1.2281,-1.1538,-1.1064,-1.0908,-1.0645,-1.043,-1.0332,-1.0322,-1.0252,-1.0186,-1.0691,-1.0774,0.0,0.0,0.0,0.0,0.0,0.0,0.0,0.0,0.0,0.0,0.0,0.0,0.0,0.0,0.0,0.0,0.0,0.0,0.0,0.0,0.0,0.0,0.0,-0.7326,0.0,0.0,0.0,0.0,0.0,0.0,0.0,0.0,0.0,-0.5593,-0.5969,-0.644,-0.6755,-0.7949,-0.8757,-0.8724,0.0,0.0,0.0,0.0,0.0,0.0,0.0,-1.173,-1.1334,-1.2059,-1.2576,-1.2097,-1.2272,-1.2216,-1.1473,0.0,0.0,-1.0215,-1.0382,-1.0695,-1.0676,-1.0867,-1.1006,-1.092,-1.0779,-1.0723,0.0,0.0,0.0,0.0,0.0,0.0,0.0,0.0,-1.6829,-1.7057,0.0,-1.7378,0.0,0.0,0.0,0.0,0.0,-1.387,0.0,0.0,-1.4169,-1.4488,-1.5012,-1.5262,-1.54,-1.541,-1.5332,-1.5117,-1.4707,-1.3506,0.0,0.0,0.0,0.0,0.0,0.0,-1.2891,-1.2852,-1.2067,-1.1377,-1.0986,-1.0947,-1.0732,-1.0371,-1.0332,-1.0283,-1.0303,-1.0177,-1.0098,-1.0143,-1.0329,0.0,0.0,0.0,0.0,0.0,0.0,0.0,0.0,0.0,0.0,0.0,0.0,0.0,0.0,0.0,0.0,0.0,0.0,0.0,0.0,-0.7936,0.0,0.0,0.0,0.0,0.0,0.0,0.0,0.0,0.0,0.0,-0.6198,-0.634,-0.6644,-0.7,0.0,0.0,0.0,0.0,-1.0503,-1.0345,-1.1122,-1.1728,-1.1667,-1.1871,-1.2017,-1.1972,0.0,0.0,-1.2569,-1.2467,-1.2027,-1.1092,-1.0888,-1.0663,-1.0765,-1.0792,-1.0811,-1.0775,-1.0838,-1.0958,-1.1306,-1.114,-1.1019,-2.2331,0.0,0.0,0.0,0.0,-2.0125,-2.0042,-1.9429,-2.037,-1.9763,-1.815,-1.839,0.0,0.0,0.0,0.0,0.0,0.0,-1.5347,-1.5034,-1.5635,-1.5889,-1.5753,-1.5498,-1.542,-1.5391,-1.4795,-1.4389,-1.4297,-1.3652,-1.3494,-1.3849,0.0,0.0,0.0,0.0,-1.3134,-1.2764,-1.2278,-1.1982,-1.1855,-1.1543,-1.1172,-1.0742,-1.0439,-1.0322,-1.0322,-1.0282,-1.0375,-1.0593,-1.066,0.0,0.0,0.0,0.0,0.0,0.0,0.0,0.0,0.0,0.0,0.0,0.0,0.0,0.0,0.0,0.0,0.0,0.0,0.0,-0.6945,-0.7428,-0.7668,0.0,0.0,0.0,0.0,0.0,0.0,0.0,0.0,0.0,-0.7382,-0.7127,-0.7214,0.0,0.0,-0.9147,-0.9626,-1.0127,-1.0461,-1.0512,-1.0858,0.0,0.0,-1.1576,-1.1872,-1.1573,-1.185,-1.2204,-1.2455,-1.2638,-1.2549,-1.1926,-1.1762,-1.1576,-1.0989,-1.0893,-1.0851,-1.086,-1.1133,-1.1372,-1.1522,-1.1455,-1.1426,-2.491,-2.2728,-2.2299,-2.1675,-2.0995,-2.1556,-2.1386,-2.0815,-2.1592,-2.1113,-1.9738,-1.9515,-1.8553,-1.7079,-1.6015,0.0,0.0,0.0,-1.6048,-1.5753,-1.6757,-1.7151,-1.7092,-1.7183,-1.7075,-1.6808,-1.5879,-1.5204,-1.4787,-1.4291,-1.4053,-1.4077,0.0,0.0,-1.3594,-1.3542,-1.3328,-1.3026,-1.2667,-1.2402,-1.218,-1.1787,-1.1348,-1.0918,-1.0664,-1.0449,-1.0332,-1.0322,-1.0475,-1.0822,-1.0941,-1.1058,0.0,0.0,0.0,0.0,0.0,0.0,0.0,0.0,0.0,0.0,0.0,-0.8825,0.0,0.0,0.0,0.0,-0.6668,-0.6609,-0.6611,-0.7454,0.0,0.0,0.0,0.0,0.0,0.0,0.0,-0.8011,-0.8313,-0.8426,-0.8219,-0.8127,-0.8256,-0.8565,-0.902,-0.9579,-1.0298,0.0,-1.0832,-1.0885,-1.0927,-1.107,-1.1209,-1.1695,-1.1993,-1.1926,-1.2202,-1.2454,-1.2609,-1.2774,-1.2656,-1.2139,-1.1963,-1.168,-1.082,-1.0791,-1.085,-1.0693,-1.0869,-1.1185,-1.1518,-1.1596,-1.1685,-2.6898,-2.5774,-2.4808,-2.3678,-2.2535,-2.256,-2.1956,-2.1013,-2.1579,-2.1708,-2.1379,-2.064,-2.0075,-1.9516,-1.7625,0.0,-1.6236,-1.6366,-1.6416,-1.6476,-1.7636,-1.8385,-1.8776,-1.9497,-1.9549,-1.903,-1.7991,-1.6899,-1.5974,-1.522,-1.4645,-1.4228,-1.3779,-1.375,-1.4038,-1.375,-1.3545,-1.3506,-1.3125,-1.2725,-1.2239,-1.1846,-1.1416,-1.1035,-1.0947,-1.0732,-1.0352,-1.0303,-1.0488,-1.0947,-1.1238,-1.1149,-1.0525,0.0,0.0,0.0,0.0,0.0,0.0,0.0,0.0,0.0,0.0,0.0,0.0,0.0,0.0,0.0,-0.6934,0.0,-0.6865,-0.7792,0.0,0.0,0.0,-0.7777,-0.7978,-0.8315,-0.8527,-0.8626,0.0,0.0,-0.8733,-0.9232,-0.9611,-0.9611,-0.9739,-1.0153,-1.0989,-1.1315,-1.1435,-1.1357,-1.1357,-1.1509,-1.1815,-1.2051,-1.2318,-1.2734,-1.2852,-1.2803,-1.2852,-1.2754,-1.2422,-1.1851,-1.1645,-1.139,-1.0537,-1.0732,-1.0801,-1.0498,-1.0488,-1.0793,-1.1577,-1.1783,-1.2008,-2.9452,-2.8122,-2.7858,-2.6402,-2.428,-2.4644,-2.4455,-2.3879,-2.438,-2.3603,-2.1836,-2.1368,-1.975,-1.7427,-1.7273,-1.7207,-1.7134,-1.8434,-1.9004,-1.9037,-1.9695,-2.0056,-2.0112,-1.9588,-1.9224,-1.9056,-1.8045,-1.7134,-1.636,-1.5849,-1.5477,-1.5059,-1.4355,-1.398,-1.4077,-1.399,-1.3828,-1.3506,-1.3408,-1.3154,-1.2734,-1.2305,-1.2012,-1.1914,-1.126,-1.0859,-1.0752,-1.0449,-1.0665,-1.141,-1.1514,-1.1497,-1.1326,-1.1283,0.0,0.0,0.0,0.0,0.0,0.0,0.0,0.0,0.0,-0.9065,-0.8625,0.0,-0.7576,0.0,-0.741,-0.7422,-0.7057,-0.7729,0.0,0.0,-0.8842,-0.9093,-0.904,-0.9054,-0.9001,-0.8896,-0.9008,-0.9131,-0.946,-0.9753,-1.0245,-1.1079,-1.1002,-1.1116,-1.1718,-1.1851,-1.1887,-1.1842,-1.1933,-1.2018,-1.2144,-1.2472,-1.2744,-1.2861,-1.2617,-1.25,-1.2832,-1.2314,-1.1939,-1.2002,-1.1777,-1.1538,-1.1302,-1.1084,-1.1025,-1.1263,-1.1533,-1.1924,-1.2461,-1.2596,-1.2675,-3.0426,-2.9289,-2.9038,-2.7908,-2.6276,-2.6339,-2.605,-2.5573,-2.585,-2.5112,-2.3533,-2.2732,-2.0993,-1.8879,-1.9069,-1.9069,-1.8916,-1.9805,-2.0239,-2.0261,-2.0911,-2.1175,-2.1141,-2.0956,-2.0748,-2.05,-1.9412,-1.8363,-1.7383,-1.6382,-1.5653,-1.5107,-1.4463,-1.4087,-1.4087,-1.4087,-1.4111,-1.4072,-1.3701,-1.3311,-1.2891,-1.2637,-1.2472,-1.2348,-1.2005,-1.1733,-1.1634,-1.1509,-1.1605,-1.2007,-1.1988,-1.1831,-1.1433,-1.1006,-1.0653,0.0,0.0,0.0,0.0,0.0,0.0,0.0,0.0,0.0,0.0,0.0,-0.7984,-0.7765,-0.7711,-0.7717,-0.7676,-0.8196,-0.8567,-0.8685,-0.9001,-0.9211,-0.9159,-0.9054,-0.9008,-0.891,-0.891,-0.9113,-0.971,-1.0115,-1.0712,-1.1657,-1.1895,-1.2078,-1.236,-1.2453,-1.2425,-1.2415,-1.2472,-1.252,-1.252,-1.2725,-1.2891,-1.2871,-1.2676,-1.2607,-1.2822,-1.2324,-1.1885,-1.1895,-1.1562,-1.1322,-1.126,-1.1094,-1.1103,-1.1699,-1.2051,-1.2258,-1.2539,-1.2588,-1.2627,-3.0758,-2.9754,-2.9239,-2.8687,-2.8059,-2.7595,-2.703,-2.6521,-2.6521,-2.6126,-2.5494,-2.4256,-2.2956,-2.1686,-2.1618,-2.1291,-2.0884,-2.088,-2.091,-2.0974,-2.1678,-2.2063,-2.2063,-2.2688,-2.2774,-2.2226,-2.1092,-1.9818,-1.8487,-1.696,-1.5804,-1.4988,-1.4512,-1.4272,-1.4375,-1.4277,-1.4375,-1.4687,-1.3965,-1.3418,-1.3057,-1.3096,-1.3066,-1.2897,-1.2909,-1.2851,-1.2743,-1.2793,-1.2769,-1.2635,-1.2602,-1.2228,-1.1368,-1.0396,-0.9878,0.0,-0.8882,0.0,0.0,0.0,0.0,0.0,0.0,0.0,0.0,-0.8514,-0.8461,-0.7984,-0.8037,-0.815,-0.8421,-0.8745,-0.8903,-0.8811,-0.8804,-0.8804,-0.8804,-0.8804,-0.8804,-0.8804,-0.8857,-0.9211,-0.9865,-1.0517,-1.1166,-1.1873,-1.2433,-1.2813,-1.2891,-1.2881,-1.2852,-1.2891,-1.2891,-1.2822,-1.2842,-1.2871,-1.2891,-1.2929,-1.2743,-1.2754,-1.2861,-1.2393,-1.1953,-1.1699,-1.1348,-1.1064,-1.1055,-1.1055,-1.1299,-1.2139,-1.2275,-1.2219,-1.2353,-1.2393,-1.2432,-3.1341,-2.9779,-2.9679,-2.9038,-2.8109,-2.7996,-2.7381,-2.6521,-2.6521,-2.6138,-2.5586,-2.5224,-2.4347,-2.3136,-2.2645,-2.2409,-2.228,-2.2516,-2.2628,-2.2628,-2.2811,-2.2884,-2.2859,-2.2614,-2.241,-2.2284,-2.1643,-2.033,-1.8498,-1.8148,-1.7259,-1.586,-1.5381,-1.5342,-1.5644,0.0,0.0,0.0,-1.4092,-1.3975,-1.3916,-1.4248,-1.4424,-1.435,-1.3646,0.0,-1.3319,-1.2899,-1.2809,-1.3119,-1.3138,0.0,0.0,0.0,0.0,0.0,0.0,0.0,0.0,0.0,0.0,0.0,-0.9113,-0.9008,-0.8995,-0.9054,-0.8791,-0.8209,-0.8533,-0.8798,-0.8745,-0.8752,-0.8811,-0.8811,-0.8804,-0.8804,-0.8804,-0.8804,-0.8804,-0.8804,-0.9263,-0.9865,-1.0517,-1.1216,-1.1882,-1.251,-1.2822,-1.2881,-1.2891,-1.2891,-1.2891,-1.2891,-1.2891,-1.2891,-1.2891,-1.2891,-1.2891,-1.2812,-1.2283,-1.2214,-1.2714,-1.1934,-1.1504,-1.1904,-1.1738,-1.1553,-1.1875,-1.1689,-1.1753,-1.2578,-1.2471,-1.2344,-1.2676,-1.2754,-1.2966,-3.1756,0.0,-2.9694,-2.9026,0.0,-2.7934,-2.7394,-2.6854,-2.6647,-2.6357,-2.6013,-2.5988,-2.5269,-2.412,-2.3851,-2.3423,-2.2897,-2.3021,-2.3125,-2.3125,-2.3125,-2.3125,-2.3125,-2.2836,-2.2652,-2.2698,-2.2171,-2.0976,-1.9219,-1.8924,-1.7857,-1.6125,-1.584,-1.5635,-1.541,-1.458,-1.4053,-1.3828,-1.3828,-1.3721,-1.3535,-1.373,-1.3945,-1.4024,-1.3627,0.0,0.0,0.0,0.0,0.0,0.0,0.0,0.0,0.0,0.0,-1.0446,-1.0015,-0.9638,-0.9127,-0.8956,-0.891,-0.9015,-0.8962,-0.8962,-0.9061,-0.9061,-0.8857,-0.854,-0.8752,-0.885,-0.8811,-0.8804,-0.8804,-0.8804,-0.9113,-0.9309,-0.9309,-0.9614,-0.9814,-0.9814,-1.0056,-1.0568,-1.1216,-1.1557,-1.208,-1.2774,-1.2891,-1.2891,-1.2891,-1.2891,-1.2891,-1.2891,-1.2891,-1.2891,-1.2891,-1.2891,-1.2891,-1.2861,-1.2557,-1.2469,-1.2793,-1.2158,-1.1684,-1.2064,-1.1865,-1.1709,-1.21,-1.2041,-1.2181,-1.3074,-1.3142,-1.3191,-1.3616,-1.3563,-1.3515,-3.2033,-3.1066,-2.9693,-2.9013,-2.885,-2.7959,-2.7469,-2.7243,0.0,0.0,0.0,-2.6521,-2.5963,-2.5121,-2.5008,-2.4406,-2.3452,-2.3326,-2.3238,-2.3125,-2.3125,-2.3125,-2.3125,-2.3125,-2.3125,-2.3053,-2.2483,-2.1416,-1.9879,-1.9315,-1.8048,-1.6286,-1.6125,-1.5684,-1.4795,-1.4004,-1.3613,-1.3613,-1.3613,-1.3447,-1.3115,-1.3174,-1.3328,-1.3565,-1.3549,-1.3675,-1.3897,-1.4024,-1.3863,-1.3377,-1.3322,-1.3059,-1.2416,-1.2032,-1.1517,-1.095,-1.0418,-0.9909,-0.9354,-0.9113,-0.8956,-0.8956,-0.8956,-0.9008,-0.8956,-0.8857,-0.8804,-0.8804,-0.8804,-0.8804,-0.8804,-0.8903,-0.8956,-0.9008,-0.9562,-0.9961,-1.0012,-1.0466,-1.0712,-1.0813,-1.0864,-1.1166,-1.1665,-1.1922,-1.2178,-1.2774,-1.2891,-1.2891,-1.2891,-1.2891,-1.2891,-1.2891,-1.2891,-1.2891,-1.2891,-1.2891,-1.2891,-1.2881,-1.2793,-1.2783,-1.2803,-1.252,-1.2295,-1.2363,-1.2031,-1.2021,-1.2266,-1.2437,-1.2769,-1.3601,-1.392,-1.4143,-1.4641,-1.4468,-1.4318,-3.2033,-3.1093,-3.0126,-2.9377,-2.8925,-2.8762,-2.816,-2.7256,-2.676,-2.6521,-2.6521,-2.6521,-2.6445,-2.6189,-2.5711,-2.5159,-2.4569,-2.4092,-2.3602,-2.3138,-2.3125,-2.3125,-2.3125,-2.3125,-2.3125,-2.3065,-2.2299,-2.1275,-1.9947,-1.91,-1.7771,-1.6284,-1.6125,-1.5704,-1.4814,-1.4297,-1.4,-1.399,-1.399,-1.397,-1.3912,-1.4316,-1.4541,-1.458,-1.4111,-1.3903,-1.4077,-1.3961,-1.3907,-1.3809,-1.3809,-1.3594,-1.3138,-1.2534,-1.2025,-1.1681,-1.104,-1.061,-1.0517,-0.9969,-0.9666,-0.9658,-0.9666,-0.9413,-0.891,-0.8811,-0.8804,-0.8804,-0.8857,-0.8804,-0.8804,-0.9309,-0.9666,-0.971,-1.0261,-1.0661,-1.0661,-1.0762,-1.0914,-1.0914,-1.1316,-1.1665,-1.1873,-1.2344,-1.2725,-1.2881,-1.2891,-1.2891,-1.2891,-1.2891,-1.2891,-1.2891,-1.2891,-1.2891,-1.2891,-1.2891,-1.2891,-1.2891,-1.2598,-1.2577,-1.2842,-1.2596,-1.2449,-1.2715,-1.2694,-1.2676,-1.2754,-1.3233,-1.3554,-1.3862,-1.4236,-1.4744,-1.5365,-1.5365,-1.5353,-3.2321,-3.1829,-3.0432,-2.9641,-2.9365,-2.9063,-2.8298,-2.7281,-2.6751,-2.6477,-2.6465,-2.6521,-2.6357,-2.5975,-2.5711,-2.531,-2.482,-2.4556,-2.4142,-2.3653,-2.3916,-2.3891,-2.3615,-2.359,-2.359,-2.3541,-2.2684,-2.1568,-2.031,-1.9608,-1.8434,-1.686,-1.637,-1.5929,-1.5459,-1.4824,-1.4482,-1.4473,-1.4033,-1.3799,-1.3799,-1.3769,-1.375,-1.376,-1.3494,-1.3406,-1.3457,-1.3396,-1.3355,-1.3355,-1.3345,-1.3258,-1.3074,-1.2805,-1.2401,-1.1832,-1.1516,-1.1166,-1.0813,-1.0517,-1.0364,-1.0364,-1.0364,-1.0218,-0.9909,-0.9562,-0.9361,-0.9361,-0.9666,-0.971,-0.9406,-0.9969,-1.0364,-1.0364,-1.0965,-1.1316,-1.1366,-1.1733,-1.194,-1.195,-1.2197,-1.2393,-1.2403,-1.2666,-1.2881,-1.2891,-1.2891,-1.2891,-1.2891,-1.2891,-1.2891,-1.2891,-1.2891,-1.2891,-1.2891,-1.2891,-1.2891,-1.2891,-1.2992,-1.299,-1.2997,-1.2895,-1.3,-1.2919,-1.2891,-1.2891,-1.2939,-1.3372,-1.3826,-1.4283,-1.4778,-1.5365,-1.5908,-1.6095,-1.6095,-3.2717,-3.2464,-3.057,-2.9779,-2.9741,-2.9176,-2.836,-2.7469,-2.6822,-2.6487,-2.6477,-2.6521,-2.6214,-2.5812,-2.5787,-2.5511,-2.5046,-2.4996,-2.4695,-2.4255,-2.4632,-2.4594,-2.4217,-2.418,-2.418,-2.4054,-2.3152,-2.2203,-2.1255,-2.0396,-1.9059,-1.7514,-1.6592,-1.6211,-1.6262,-1.5449,-1.5068,-1.5019,-1.4228,-1.3701,-1.3506,-1.3096,-1.2891,-1.2891,-1.2891,-1.2891,-1.2891,-1.2891,-1.2891,-1.2891,-1.2891,-1.2891,-1.2891,-1.2891,-1.2666,-1.2138,-1.203,-1.1774,-1.1116,-1.1166,-1.1174,-1.1015,-1.1015,-1.1065,-1.1174,-1.0677,-1.0159,-1.0115,-1.0466,-1.0559,-1.021,-1.061,-1.1015,-1.1065,-1.1625,-1.203,-1.208,-1.2559,-1.2891,-1.2891,-1.2891,-1.2881,-1.2891,-1.2891,-1.2891,-1.2891,-1.2891,-1.2891,-1.2891,-1.2891,-1.2891,-1.2891,-1.2891,-1.2891,-1.2891,-1.2891,-1.2891,-1.2891,-1.3228,-1.3218,-1.3055,-1.3286,-1.3372,-1.2978,-1.2891,-1.2891,-1.2929,-1.3515,-1.4107,-1.4606,-1.5242,-1.5964,-1.6337,-1.6436,-1.6466,-3.3162,-3.2362,-3.0646,-2.9779,-2.9716,-2.9189,-2.8599,-2.7911,-2.6924,-2.6487,-2.6527,-2.6521,-2.644,-2.6458,-2.6352,-2.605,-2.5536,-2.5523,-2.5247,-2.4782,-2.4795,-2.4795,-2.4757,-2.4745,-2.4745,-2.4603,-2.385,-2.325,-2.2843,-2.1037,-1.9157,-1.7543,-1.6904,-1.668,-1.6621,-1.6191,-1.5998,-1.5988,-1.5107,-1.4287,-1.3535,-1.3096,-1.2891,-1.2891,-1.2891,-1.2891,-1.2891,-1.2891,-1.2891,-1.2891,-1.2891,-1.2891,-1.2891,-1.2891,-1.2881,-1.2774,-1.2774,-1.2461,-1.1814,-1.2353,-1.2353,-1.1774,-1.1715,-1.1981,-1.252,-1.1981,-1.1366,-1.0914,-1.0821,-1.0864,-1.0771,-1.1316,-1.1715,-1.1724,-1.2304,-1.2774,-1.2774,-1.2881,-1.2891,-1.2891,-1.2891,-1.2891,-1.2891,-1.2891,-1.2891,-1.2891,-1.2891,-1.2891,-1.2891,-1.2891,-1.2891,-1.2891,-1.2891,-1.2891,-1.2891,-1.2891,-1.2891,-1.2929,-1.2968,-1.3017,-1.3017,-1.2968,-1.292,-1.2978,-1.2891,-1.2891,-1.32,-1.3742,-1.4571,-1.488,-1.5567,-1.6436,-1.6491,-1.6534,-1.6534,-3.4016,-3.3241,-3.1402,-3.0279,-2.9831,-2.9528,-2.9114,-2.8487,-2.7755,-2.7443,-2.7381,-2.6744,-2.6502,-2.6452,-2.6521,-2.6327,-2.6113,-2.6101,-2.5812,-2.5347,-2.5624,-2.5624,-2.5297,-2.5285,-2.5272,-2.5206,-2.4328,-2.3461,-2.2412,-2.0614,-1.9253,-1.8536,-1.7832,-1.749,-1.7441,-1.6807,-1.6328,-1.6115,-1.5459,-1.4863,-1.4258,-1.3594,-1.3125,-1.291,-1.2891,-1.2891,-1.2891,-1.2891,-1.2891,-1.2891,-1.2891,-1.2891,-1.2891,-1.2891,-1.2891,-1.2891,-1.2891,-1.2764,-1.2452,-1.2725,-1.2774,-1.2452,-1.2452,-1.2618,-1.2832,-1.2608,-1.2304,-1.2098,-1.2049,-1.1891,-1.1516,-1.203,-1.2452,-1.2501,-1.2725,-1.2891,-1.2891,-1.2891,-1.2891,-1.2891,-1.2891,-1.2891,-1.2891,-1.2891,-1.2891,-1.2891,-1.2891,-1.2891,-1.2891,-1.2891,-1.2891,-1.2891,-1.2891,-1.2891,-1.2891,-1.2891,-1.2881,-1.2968,-1.3238,-1.3372,-1.3065,-1.3238,-1.3324,-1.3027,-1.2978,-1.3113,-1.342,-1.4061,-1.4789,-1.5197,-1.5788,-1.6534,-1.6534,-1.6534,-1.6534,-3.4848,-3.4025,-3.2318,-3.118,-3.057,-3.0279,-2.9897,-2.9238,-2.8825,-2.8388,-2.8047,-2.7276,-2.6826,-2.6716,-2.6747,-2.6603,-2.6559,-2.6615,-2.6377,-2.5912,-2.6289,-2.637,-2.6063,-2.6063,-2.6151,-2.6102,-2.5509,-2.4095,-2.2316,-2.1005,-1.9968,-1.9334,-1.8535,-1.8184,-1.8086,-1.7334,-1.6758,-1.6416,-1.5889,-1.5381,-1.4922,-1.4238,-1.3662,-1.3262,-1.3105,-1.3057,-1.3047,-1.2939,-1.2891,-1.2891,-1.2891,-1.2891,-1.2891,-1.2891,-1.2891,-1.2891,-1.2891,-1.2891,-1.2891,-1.2891,-1.2891,-1.2891,-1.2891,-1.2891,-1.2891,-1.2891,-1.2891,-1.2881,-1.2891,-1.2608,-1.2295,-1.2559,-1.2881,-1.2891,-1.2891,-1.2891,-1.2891,-1.2891,-1.2891,-1.2891,-1.2891,-1.2891,-1.2891,-1.2891,-1.2891,-1.2891,-1.2891,-1.2891,-1.2891,-1.2891,-1.2891,-1.2891,-1.2891,-1.2891,-1.2891,-1.2891,-1.2929,-1.3142,-1.3457,-1.342,-1.3258,-1.3647,-1.3862,-1.3525,-1.3296,-1.343,-1.3967,-1.456,-1.5152,-1.5688,-1.6194,-1.6534,-1.6534,-1.6534,-1.6534,-3.5567,-3.4778,-3.3184,-3.2464,-3.2393,-3.1462,-3.0803,-3.015,-2.9841,-2.9149,-2.827,-2.8058,-2.7754,-2.7293,-2.7293,-2.6954,-2.6634,-2.7017,-2.6954,-2.6465,-2.6559,-2.6823,-2.7193,-2.7218,-2.7444,-2.7695,-2.7197,-2.555,-2.2962,-2.2693,-2.1535,-1.9442,-1.8877,-1.8553,-1.8506,-1.7803,-1.7344,-1.7168,-1.6436,-1.583,-1.54,-1.4941,-1.4492,-1.4092,-1.3682,-1.3486,-1.3447,-1.3105,-1.291,-1.29,-1.291,-1.29,-1.2891,-1.29,-1.291,-1.2891,-1.29,-1.2891,-1.2891,-1.2891,-1.2891,-1.2891,-1.2891,-1.2891,-1.2891,-1.293,-1.293,-1.2891,-1.2949,-1.2969,-1.2783,-1.2832,-1.2891,-1.2891,-1.2891,-1.2891,-1.2891,-1.2891,-1.2891,-1.2891,-1.2891,-1.2891,-1.2891,-1.2891,-1.2891,-1.2891,-1.2891,-1.2891,-1.2891,-1.2891,-1.2929,-1.2978,-1.2968,-1.292,-1.2929,-1.3065,-1.3238,-1.3563,-1.3647,-1.343,-1.3705,-1.3978,-1.4025,-1.4071,-1.392,-1.405,-1.456,-1.5141,-1.5688,-1.6151,-1.6337,-1.6534,-1.6534,-1.6534,-1.6534,-3.5883,-3.4358,-3.377,-3.2806,-3.1683,-3.1315,-3.0703,-2.9998,-2.9872,-2.9542,-2.9126,-2.8711,-2.8459,-2.8335,-2.8335,-2.7645,-2.6615,-2.7394,-2.7519,-2.708,-2.7344,-2.762,-2.7783,-2.7576,-2.7663,-2.7984,-2.7679,-2.6043,-2.348,-2.2684,-2.1574,-2.0361,-1.9668,-1.9336,-1.8994,-1.8486,-1.7939,-1.7383,-1.6777,-1.6269,-1.583,-1.54,-1.5098,-1.4922,-1.4277,-1.3906,-1.3906,-1.376,-1.3564,-1.3291,-1.3271,-1.3154,-1.2939,-1.3135,-1.3154,-1.2939,-1.3135,-1.3164,-1.2939,-1.2891,-1.2891,-1.2891,-1.2891,-1.2891,-1.293,-1.3105,-1.3174,-1.3037,-1.3418,-1.3477,-1.2998,-1.2891,-1.2891,-1.2891,-1.2891,-1.2891,-1.2891,-1.2891,-1.2891,-1.2891,-1.2891,-1.2891,-1.2891,-1.2891,-1.2891,-1.2891,-1.2891,-1.2891,-1.2891,-1.2891,-1.3065,-1.3372,-1.3467,-1.36,-1.4025,-1.3695,-1.3637,-1.4061,-1.4247,-1.4247,-1.4422,-1.4387,-1.4433,-1.4617,-1.4514,-1.4641,-1.5141,-1.5656,-1.6238,-1.6337,-1.6534,-1.6534,-1.6534,-1.6534,-1.6534,-3.6289,-3.4631,-3.4476,-3.3754,-3.2621,-3.2249,-3.1769,-3.1044,-3.0215,-2.9923,-2.9986,-2.9177,-2.8787,-2.8913,-2.8925,-2.826,-2.7168,-2.7946,-2.8084,-2.7607,-2.7934,-2.8197,-2.8335,-2.8113,-2.8213,-2.8424,-2.7703,-2.5949,-2.3655,-2.2478,-2.1517,-2.0605,-2.0127,-1.9697,-1.9287,-1.8857,-1.8271,-1.7617,-1.7031,-1.6572,-1.624,-1.5703,-1.542,-1.5332,-1.4834,-1.4473,-1.4355,-1.4155,-1.4014,-1.376,-1.3711,-1.3584,-1.3359,-1.3418,-1.3379,-1.3164,-1.334,-1.333,-1.2959,-1.2891,-1.2891,-1.2891,-1.2891,-1.292,-1.3066,-1.335,-1.3389,-1.3437,-1.373,-1.39,-1.3751,-1.3681,-1.3461,-1.3057,-1.2891,-1.2891,-1.2891,-1.2891,-1.2891,-1.2891,-1.2891,-1.2891,-1.2891,-1.2891,-1.2891,-1.2891,-1.2891,-1.2891,-1.2891,-1.3113,-1.3286,-1.3732,-1.3956,-1.4329,-1.4744,-1.4641,-1.4503,-1.4824,-1.4755,-1.4835,-1.5017,-1.4926,-1.4926,-1.5107,-1.5287,-1.5421,-1.5732,-1.6194,-1.6436,-1.6479,-1.6534,-1.6534,-1.6534,-1.6534,-1.6534,-3.6686,-3.5559,-3.5519,-3.5323,-3.4868,-3.4109,-3.3876,-3.3045,-3.0904,-3.0297,-3.0592,-2.9415,-2.8913,-2.8963,-2.9026,-2.8637,-2.8298,-2.8699,-2.8649,-2.816,-2.821,-2.8499,-2.8913,-2.88,-2.8988,-2.9389,-2.7624,-2.5695,-2.3773,-2.2692,-2.1721,-2.0797,-2.0242,-1.9766,-1.9277,-1.8887,-1.8457,-1.7891,-1.7093,-1.6728,-1.6558,-1.5859,-1.542,-1.542,-1.5342,-1.5146,-1.4795,-1.4414,-1.4165,-1.415,-1.4131,-1.4077,-1.3951,-1.3799,-1.3545,-1.3535,-1.3545,-1.335,-1.2978,-1.2969,-1.3018,-1.291,-1.292,-1.3154,-1.3389,-1.3525,-1.3691,-1.3893,-1.4102,-1.4357,-1.4925,-1.4997,-1.4522,-1.3253,-1.3135,-1.3106,-1.2988,-1.29,-1.2891,-1.2891,-1.2891,-1.2891,-1.2891,-1.2891,-1.2891,-1.2891,-1.2978,-1.3017,-1.3113,-1.3467,-1.3779,-1.4003,-1.4422,-1.4915,-1.5276,-1.5588,-1.5588,-1.5543,-1.5242,-1.5152,-1.5599,-1.57,-1.5611,-1.5744,-1.5732,-1.5864,-1.602,-1.6436,-1.6436,-1.6534,-1.6534,-1.6534,-1.6534,-1.6534,-1.6534,-3.733,-3.6237,-3.6193,-3.5533,-3.4505,-3.4109,-3.331,-3.2105,-3.1082,-3.0566,-3.0152,-2.9655,-2.9515,-2.9515,-2.9515,-2.9415,-2.9289,-2.944,-2.9214,-2.8812,-2.9063,-2.9315,-2.9478,-2.949,-2.9301,-2.8987,-2.8512,-2.7063,-2.5207,-2.3985,-2.2886,-2.169,-2.0718,-1.9971,-1.9307,-1.9131,-1.875,-1.7988,-1.7168,-1.6665,-1.665,-1.5869,-1.542,-1.542,-1.542,-1.5342,-1.5215,-1.5078,-1.4873,-1.46,-1.458,-1.4453,-1.4228,-1.4297,-1.4238,-1.4014,-1.4238,-1.4043,-1.3467,-1.3555,-1.3457,-1.3145,-1.3398,-1.3603,-1.3574,-1.3789,-1.3994,-1.4189,-1.4385,-1.479,-1.5164,-1.549,-1.5321,-1.4583,-1.4252,-1.3848,-1.3402,-1.3086,-1.291,-1.2891,-1.2891,-1.2891,-1.2891,-1.2891,-1.2891,-1.2978,-1.3238,-1.3457,-1.36,-1.4014,-1.4606,-1.496,-1.5276,-1.5466,-1.5832,-1.6064,-1.6064,-1.6008,-1.5788,-1.5611,-1.602,-1.625,-1.6207,-1.6194,-1.6194,-1.6238,-1.6436,-1.6534,-1.6534,-1.6534,-1.6534,-1.6534,-1.6534,-1.6534,-1.6534,-3.7778,-3.6836,-3.6582,-3.5956,-3.4946,-3.466,-3.3671,-3.2321,-3.1888,-3.1193,-3.0419,-2.9921,-2.9779,-2.9779,-2.9779,-2.9779,-2.9779,-2.9779,-2.9591,-2.934,-2.9591,-2.9779,-2.9779,-2.9779,-2.9226,-2.8413,-2.8101,-2.7175,-2.5516,-2.4112,-2.2918,-2.2004,-2.1078,-2.0127,-1.9365,-1.9258,-1.8867,-1.8037,-1.7334,-1.6973,-1.6797,-1.6113,-1.5644,-1.5635,-1.5498,-1.542,-1.542,-1.542,-1.5303,-1.5039,-1.4873,-1.4707,-1.4619,-1.4984,-1.5008,-1.4737,-1.5083,-1.5118,-1.4073,-1.4234,-1.4335,-1.3942,-1.4234,-1.4516,-1.4477,-1.4826,-1.5139,-1.5069,-1.5557,-1.6027,-1.651,-1.6738,-1.6771,-1.6516,-1.5498,-1.4735,-1.4055,-1.3506,-1.3268,-1.3248,-1.3065,-1.2929,-1.2891,-1.2891,-1.2891,-1.2968,-1.342,-1.3768,-1.3956,-1.4514,-1.5141,-1.5588,-1.582,-1.6064,-1.6392,-1.6479,-1.6479,-1.6436,-1.6349,-1.625,-1.6392,-1.6436,-1.6392,-1.6392,-1.638,-1.638,-1.6534,-1.6534,-1.6534,-1.6534,-1.6534,-1.6534,-1.6534,-1.6534,-1.6436,-3.8063,-3.7419,-3.6851,-3.6582,-3.6305,-3.5768,-3.4765,-3.3739,-3.289,-3.1901,-3.097,-3.0139,-2.9779,-2.9779,-2.9779,-2.9779,-2.9779,-2.9779,-2.9767,-2.9729,-2.9779,-2.9754,-2.9654,-2.9541,-2.8863,-2.7866,-2.7249,-2.6284,-2.5194,-2.3494,-2.2059,-2.1973,-2.1048,-2.0176,-1.9512,-1.9316,-1.8887,-1.8164,-1.7607,-1.7344,-1.7285,-1.6484,-1.6086,-1.6056,-1.5635,-1.542,-1.542,-1.5526,-1.5459,-1.5352,-1.5039,-1.5076,-1.5397,-1.5776,-1.5677,-1.5416,-1.6381,-1.5992,-1.5084,-1.5204,-1.5331,-1.5213,-1.5362,-1.55,-1.5882,-1.6255,-1.6579,-1.6419,-1.6917,-1.7662,-1.8254,-1.8472,-1.8448,-1.8401,-1.6704,-1.5367,-1.4671,-1.4061,-1.3695,-1.3552,-1.3238,-1.2978,-1.3065,-1.3065,-1.3162,-1.3248,-1.3695,-1.405,-1.4318,-1.496,-1.5499,-1.5864,-1.6151,-1.6293,-1.6534,-1.6534,-1.6534,-1.6534,-1.6534,-1.6534,-1.6534,-1.6534,-1.6534,-1.6534,-1.6534,-1.6534,-1.6534,-1.6534,-1.6534,-1.6534,-1.6534,-1.6534,-1.6534,-1.6534,-1.6436,-3.8751,-3.8123,-3.7958,-3.7345,-3.6537,-3.6282,-3.4966,-3.3059,-3.2749,-3.1683,-3.0343,-2.9934,-2.9779,-2.9779,-2.9779,-2.9779,-2.9779,-2.9779,-2.9779,-2.9779,-2.9779,-2.9528,-2.9114,-2.8737,-2.8398,-2.79,-2.7618,-2.6956,-2.5587,-2.4209,-2.308,-2.1962,-2.1068,-2.0303,-1.9795,-1.9443,-1.9023,-1.8447,-1.7744,-1.7412,-1.7285,-1.6562,-1.6145,-1.6016,-1.5654,-1.5498,-1.5478,-1.5921,-1.5921,-1.5468,-1.5322,-1.5561,-1.6177,-1.6346,-1.6545,-1.6873,-1.7167,-1.7174,-1.658,-1.6651,-1.6682,-1.6192,-1.6594,-1.6872,-1.6682,-1.6863,-1.7098,-1.717,-1.7299,-1.7649,-1.846,-1.8727,-1.8794,-1.868,-1.7243,-1.5661,-1.4555,-1.3909,-1.3637,-1.3238,-1.345,-1.3594,-1.3689,-1.3894,-1.4118,-1.4201,-1.4595,-1.4994,-1.5084,-1.5511,-1.6107,-1.6238,-1.6436,-1.6436,-1.6534,-1.6534,-1.6534,-1.6534,-1.6534,-1.6534,-1.6534,-1.6534,-1.6534,-1.6534,-1.6534,-1.6534,-1.6534,-1.6534,-1.6534,-1.6534,-1.6534,-1.6534,-1.6534,-1.6534,-1.6479,-3.9185,-3.8766,-3.8227,-3.7554,-3.6821,-3.6312,-3.4743,-3.2861,-3.2593,-3.1549,-3.0075,-2.9779,-2.9779,-2.9779,-2.9779,-2.9779,-2.9779,-2.9779,-2.9779,-2.9741,-2.9528,-2.9239,-2.89,-2.8549,-2.8222,-2.777,-2.777,-2.712,-2.6008,-2.4692,-2.3464,-2.2531,-2.1308,-2.0409,-1.9922,-1.9697,-1.9326,-1.8877,-1.8252,-1.791,-1.7842,-1.707,-1.6562,-1.6441,-1.6208,-1.6201,-1.6353,-1.6754,-1.6595,-1.6083,-1.614,-1.6528,-1.6922,-1.7302,-1.7543,-1.7806,-1.82,-1.8213,-1.7635,-1.7783,-1.7836,-1.7531,-1.7871,-1.7917,-1.7873,-1.7961,-1.8242,-1.802,-1.809,-1.8505,-1.8948,-1.915,-1.9125,-1.8908,-1.8017,-1.6863,-1.5726,-1.5287,-1.4946,-1.4725,-1.4633,-1.4529,-1.4529,-1.4658,-1.4686,-1.4789,-1.5096,-1.5365,-1.5588,-1.6151,-1.6534,-1.6534,-1.6534,-1.6534,-1.6534,-1.6534,-1.6534,-1.6534,-1.6534,-1.6534,-1.6534,-1.6534,-1.6534,-1.6534,-1.6534,-1.6534,-1.6534,-1.6534,-1.6534,-1.6534,-1.6534,-1.6534,-1.6534,-1.6534,-1.6479,-3.9364,-3.9215,-3.8018,-3.7434,-3.7105,-3.597,-3.4404,-3.282,-3.2379,-3.1402,-3.0075,-2.9779,-2.9779,-2.9779,-2.9779,-2.9779,-2.9779,-2.9779,-2.9779,-2.9666,-2.9402,-2.9089,-2.8925,-2.8712,-2.8172,-2.7519,-2.7331,-2.6901,-2.6003,-2.4513,-2.3666,-2.2872,-2.1451,-2.0602,-2.0088,-1.9941,-1.9678,-1.9228,-1.875,-1.8428,-1.8242,-1.7627,-1.7219,-1.7126,-1.7181,-1.7295,-1.7423,-1.7633,-1.7413,-1.6754,-1.7302,-1.7523,-1.7743,-1.8394,-1.8484,-1.839,-1.9022,-1.9162,-1.841,-1.8594,-1.8809,-1.8725,-1.8737,-1.8821,-1.8867,-1.9169,-1.931,-1.8821,-1.9423,-1.9554,-1.967,-1.9747,-1.9571,-1.9196,-1.8983,-1.8733,-1.8296,-1.7264,-1.6693,-1.7074,-1.619,-1.5802,-1.5479,-1.5289,-1.5006,-1.5389,-1.5644,-1.582,-1.5952,-1.6238,-1.6479,-1.6534,-1.6534,-1.6534,-1.6534,-1.6534,-1.6534,-1.6534,-1.6534,-1.6534,-1.6534,-1.6534,-1.6534,-1.6534,-1.6534,-1.6534,-1.6534,-1.6534,-1.6534,-1.6534,-1.6534,-1.6534,-1.6534,-1.6534,-1.6479,-3.911,-3.8586,-3.8302,-3.7599,-3.6581,-3.5541,-3.4182,-3.2593,-3.1888,-3.097,-2.9998,-2.9792,-2.9779,-2.9779,-2.9779,-2.9779,-2.9779,-2.9779,-2.9779,-2.9767,-2.9704,-2.9327,-2.895,-2.8612,-2.7971,-2.7519,-2.7745,-2.7011,-2.5672,-2.5253,-2.4232,-2.2435,-2.2027,-2.1257,-2.0468,-2.0078,-1.9717,-1.9297,-1.8887,-1.8535,-1.8252,-1.7821,-1.779,-1.8112,-1.8181,-1.8,-1.7811,-1.8167,-1.8382,-1.8167,-1.7895,-1.8015,-1.8382,-1.8661,-1.8907,-1.9275,-1.9506,-1.9633,-1.9443,-1.9428,-1.9592,-1.9475,-1.9463,-1.9579,-1.9579,-1.9631,-1.9747,-1.9579,-1.9695,-1.9798,-1.9798,-1.9798,-1.9723,-1.9547,-1.9284,-1.9171,-1.9108,-1.8069,-1.7206,-1.6875,-1.6877,-1.6764,-1.6327,-1.6604,-1.6426,-1.6242,-1.6151,-1.6281,-1.6337,-1.638,-1.6436,-1.6534,-1.6534,-1.6534,-1.6534,-1.6534,-1.6534,-1.6534,-1.6534,-1.6534,-1.6534,-1.6534,-1.6534,-1.6534,-1.6534,-1.6534,-1.6534,-1.6534,-1.6534,-1.6534,-1.6534,-1.6534,-1.6534,-1.6534,-1.6479,-3.9005,-3.8377,-3.8063,-3.7375,-3.6455,-3.5621,-3.4481,-3.3213,-3.2236,-3.1328,-3.0495,-3.0088,-2.9779,-2.9779,-2.9779,-2.9779,-2.9779,-2.9779,-2.9779,-2.9779,-2.9767,-2.9628,-2.9402,-2.8988,-2.8524,-2.7871,-2.7946,-2.7209,-2.6394,-2.5684,-2.4703,-2.2809,-2.2253,-2.1441,-2.0712,-2.0322,-2.0146,-1.9834,-1.9268,-1.8896,-1.8818,-1.8542,-1.8784,-1.9397,-1.9355,-1.8969,-1.9143,-1.91,-1.9226,-1.9097,-1.8821,-1.8768,-1.9097,-1.9202,-1.9423,-1.9695,-1.9798,-1.9798,-1.9798,-1.9798,-1.9798,-1.9798,-1.9798,-1.9798,-1.9798,-1.9798,-1.9798,-1.9798,-1.9798,-1.9798,-1.9798,-1.9798,-1.9798,-1.9761,-1.9572,-1.9535,-1.9546,-1.8759,-1.8141,-1.7977,-1.814,-1.7946,-1.7846,-1.7626,-1.726,-1.6809,-1.6318,-1.6436,-1.6436,-1.6479,-1.6479,-1.6534,-1.6534,-1.6534,-1.6534,-1.6534,-1.6534,-1.6534,-1.6534,-1.6534,-1.6534,-1.6534,-1.6534,-1.6534,-1.6534,-1.6534,-1.6534,-1.6534,-1.6534,-1.6534,-1.6534,-1.6534,-1.6534,-1.6534,-1.6534,-3.8871,-3.8182,-3.7539,-3.6911,-3.6297,-3.5532,-3.4706,-3.3876,-3.3017,-3.2105,-3.1315,-3.0419,-3.0139,-3.0011,-2.9856,-2.9779,-2.9779,-2.9779,-2.9779,-2.9779,-2.9779,-2.9754,-2.9679,-2.9553,-2.9252,-2.8411,-2.8323,-2.7848,-2.7095,-2.6407,-2.526,-2.3682,-2.2713,-2.1828,-2.0946,-2.0654,-2.042,-2.0185,-1.9984,-1.976,-1.9945,-1.9744,-2.0105,-2.0433,-2.0531,-2.0195,-2.0308,-2.0107,-1.9872,-1.9811,-1.9798,-1.9798,-1.9798,-1.9798,-1.9798,-1.9798,-1.9798,-1.9798,-1.9798,-1.9798,-1.9798,-1.9798,-1.9798,-1.9798,-1.9798,-1.9798,-1.9798,-1.9798,-1.9798,-1.9798,-1.9798,-1.9798,-1.9798,-1.9798,-1.9798,-1.9798,-1.9723,-1.9397,-1.9271,-1.942,-1.9107,-1.8834,-1.8473,-1.8131,-1.7765,-1.7313,-1.6848,-1.6534,-1.6534,-1.6534,-1.6534,-1.6534,-1.6534,-1.6534,-1.6534,-1.6534,-1.6534,-1.6534,-1.6534,-1.6534,-1.6534,-1.6534,-1.6534,-1.6534,-1.6534,-1.6534,-1.6534,-1.6534,-1.6534,-1.6534,-1.6534,-1.6534,-1.6534,-1.6534,-1.6534,-3.8167,-3.7524,-3.6911,-3.6267,-3.5553,-3.4654,-3.4245,-3.3891,-3.3101,-3.2536,-3.2249,-3.1402,-3.097,-3.0758,-3.0075,-2.9856,-2.9856,-2.9779,-2.9779,-2.9779,-2.9779,-2.9779,-2.9779,-2.9779,-2.9603,-2.9453,-2.8988,-2.8235,-2.7532,-2.703,-2.5865,-2.4328,-2.3472,-2.2477,-2.1436,-2.084,-2.0631,-2.0727,-2.0821,-2.0928,-2.0852,-2.0953,-2.1016,-2.1259,-2.1406,-2.1269,-2.0774,-2.0577,-2.03,-1.9861,-1.9811,-1.9798,-1.9798,-1.9798,-1.9798,-1.9798,-1.9798,-1.9798,-1.9798,-1.9798,-1.9798,-1.9798,-1.9798,-1.9798,-1.9798,-1.9798,-1.9798,-1.9798,-1.9798,-1.9798,-1.9798,-1.9798,-1.9798,-1.9798,-1.9798,-1.9798,-1.9773,-1.9698,-1.9623,-1.9748,-1.9648,-1.9497,-1.9032,-1.853,-1.799,-1.7451,-1.6911,-1.6609,-1.6534,-1.6534,-1.6534,-1.6534,-1.6534,-1.6534,-1.6534,-1.6534,-1.6534,-1.6534,-1.6534,-1.6534,-1.6534,-1.6534,-1.6534,-1.6534,-1.6534,-1.6534,-1.6534,-1.6534,-1.6534,-1.6534,-1.6534,-1.6534,-1.6534,-1.6534,-1.6534,-3.7823,-3.6926,-3.6611,-3.6103,-3.5499,-3.4986,-3.4758,-3.461,-3.3739,-3.331,-3.3031,-3.2393,-3.1596,-3.118,-3.0758,-3.0279,-2.9934,-2.9779,-2.9779,-2.9779,-2.9779,-2.9779,-2.9779,-2.9779,-2.9578,-2.9352,-2.9001,-2.8511,-2.7745,-2.7406,-2.6346,-2.4818,-2.3897,-2.3067,-2.2376,-2.1696,-2.1576,-2.1691,-2.2015,-2.2186,-2.2127,-2.2366,-2.2251,-2.2226,-2.2105,-2.1825,-2.1255,-2.0806,-2.0388,-1.9936,-1.9798,-1.9798,-1.9798,-1.9798,-1.9798,-1.9798,-1.9798,-1.9798,-1.9798,-1.9798,-1.9798,-1.9798,-1.9798,-1.9798,-1.9798,-1.9798,-1.9798,-1.9798,-1.9798,-1.9798,-1.9798,-1.9798,-1.9798,-1.9798,-1.9798,-1.9798,-1.9798,-1.9798,-1.9798,-1.9798,-1.9736,-1.961,-1.9434,-1.8869,-1.8229,-1.7614,-1.7011,-1.6748,-1.6584,-1.6607,-1.6607,-1.6534,-1.6534,-1.6534,-1.6534,-1.6534,-1.6534,-1.6534,-1.6534,-1.6534,-1.6534,-1.6534,-1.6534,-1.6534,-1.6534,-1.6534,-1.6534,-1.6534,-1.6534,-1.6534,-1.6534,-1.6534,-1.6534,-1.6534,-1.6534,-3.7419,-3.6477,-3.6342,-3.5983,-3.5549,-3.5489,-3.5504,-3.5344,-3.4624,-3.4312,-3.4177,-3.331,-3.2464,-3.1888,-3.1462,-3.097,-3.0139,-3.0139,-3.0075,-2.9779,-2.9779,-2.9779,-2.9779,-2.9741,-2.9603,-2.9327,-2.8775,-2.8473,-2.7833,-2.7469,-2.6463,-2.5325,-2.4162,-2.383,-2.3616,-2.2951,-2.3185,-2.3316,-2.3625,-2.364,-2.371,-2.3647,-2.3389,-2.3092,-2.2611,-2.2046,-2.1455,-2.0983,-2.0401,-1.9987,-1.9798,-1.9798,-1.9798,-1.9798,-1.9798,-1.9798,-1.9798,-1.9798,-1.9798,-1.9798,-1.9798,-1.9798,-1.9798,-1.9798,-1.9798,-1.9798,-1.9798,-1.9798,-1.9798,-1.9798,-1.9798,-1.9798,-1.9798,-1.9798,-1.9798,-1.9798,-1.9798,-1.9798,-1.9798,-1.9798,-1.9798,-1.9623,-1.9371,-1.8894,-1.8191,-1.7915,-1.7308,-1.7055,-1.6878,-1.6833,-1.6795,-1.6565,-1.6534,-1.6534,-1.6534,-1.6534,-1.6534,-1.6534,-1.6534,-1.6534,-1.6534,-1.6534,-1.6534,-1.6534,-1.6534,-1.6534,-1.6534,-1.6534,-1.6534,-1.6534,-1.6534,-1.6534,-1.6534,-1.6534,-1.6534,-3.6626,-3.6447,-3.5863,-3.5564,-3.5519,-3.5489,-3.5489,-3.5489,-3.5279,-3.5344,-3.5148,-3.4327,-3.3739,-3.331,-3.2607,-3.1888,-3.1193,-3.0908,-3.0495,-2.9856,-2.9779,-2.9779,-2.9779,-2.9779,-2.9679,-2.9365,-2.8674,-2.7934,-2.7519,-2.7318,-2.6695,-2.5648,-2.5003,-2.4853,-2.4888,-2.4183,-2.41,-2.4356,-2.5016,-2.5121,-2.4664,-2.4505,-2.4003,-2.324,-2.2648,-2.2133,-2.1619,-2.1121,-2.0489,-1.9962,-1.9823,-1.9798,-1.9798,-1.9798,-1.9798,-1.9798,-1.9798,-1.9798,-1.9798,-1.9798,-1.9798,-1.9798,-1.9798,-1.9798,-1.9798,-1.9798,-1.9798,-1.9798,-1.9798,-1.9798,-1.9798,-1.9798,-1.9798,-1.9798,-1.9798,-1.9798,-1.9798,-1.9798,-1.9798,-1.9798,-1.9798,-1.9484,-1.9183,-1.8668,-1.8154,-1.7949,-1.7728,-1.7459,-1.716,-1.7004,-1.6993,-1.6808,-1.6522,-1.6534,-1.6534,-1.6534,-1.6534,-1.6534,-1.6534,-1.6534,-1.6534,-1.6534,-1.6534,-1.6534,-1.6534,-1.6534,-1.6534,-1.6534,-1.6534,-1.6534,-1.6534,-1.6534,-1.6534,-1.6534,-1.6534,-3.5923,-3.5908,-3.5624,-3.5489,-3.5489,-3.5489,-3.5489,-3.5489,-3.5489,-3.5489,-3.5439,-3.5067,-3.4543,-3.3959,-3.3017,-3.2105,-3.1389,-3.1241,-3.0696,-3.0011,-2.9792,-2.9779,-2.9779,-2.9754,-2.9691,-2.9202,-2.8775,-2.8134,-2.7519,-2.6979,-2.6511,-2.6122,-2.5468,-2.5541,-2.5914,-2.5222,-2.5333,-2.5793,-2.6066,-2.5679,-2.504,-2.4745,-2.4268,-2.3201,-2.2887,-2.2447,-2.1945,-2.1418,-2.0878,-2.0351,-2.0037,-1.9798,-1.9798,-1.9798,-1.9798,-1.9798,-1.9798,-1.9798,-1.9798,-1.9798,-1.9798,-1.9798,-1.9798,-1.9798,-1.9798,-1.985,-1.985,-1.9798,-1.9798,-1.985,-1.985,-1.9798,-1.9798,-1.985,-1.9991,-1.994,-1.994,-1.9798,-1.9798,-1.9798,-1.9825,-1.9586,-1.9383,-1.919,-1.8977,-1.8869,-1.8479,-1.8004,-1.754,-1.7038,-1.7054,-1.7089,-1.6765,-1.6534,-1.6534,-1.6534,-1.6534,-1.6534,-1.6534,-1.6534,-1.6534,-1.6534,-1.6534,-1.6534,-1.6534,-1.6534,-1.6534,-1.6534,-1.6534,-1.6534,-1.6534,-1.6534,-1.6534,-1.6534,-1.6534,-3.5973,-3.5782,-3.5554,-3.5489,-3.5489,-3.5489,-3.5489,-3.5489,-3.5489,-3.5489,-3.5489,-3.5424,-3.5052,-3.4409,-3.3739,-3.3031,-3.196,-3.1683,-3.0983,-3.0432,-2.9921,-2.9679,-2.9553,-2.9515,-2.9252,-2.8725,-2.8398,-2.7946,-2.7356,-2.6816,-2.6515,-2.6452,-2.5828,-2.6122,-2.6593,-2.6355,-2.6151,-2.6884,-2.6427,-2.5695,-2.4983,-2.4644,-2.4029,-2.3389,-2.2975,-2.2677,-2.2309,-2.1568,-2.1033,-2.0718,-2.0087,-1.9862,-2.0055,-2.0144,-2.0283,-2.0333,-2.0333,-2.0156,-2.0055,-1.9952,-1.985,-1.9798,-1.985,-1.9901,-2.0093,-2.0055,-2.0194,-2.0421,-2.0434,-2.037,-2.027,-2.037,-2.0421,-2.0471,-2.0421,-2.032,-2.0232,-2.0232,-2.0194,-2.0245,-2.0206,-2.0053,-1.9872,-1.9829,-1.9791,-1.9779,-1.9328,-1.8704,-1.8102,-1.7555,-1.7297,-1.7348,-1.6876,-1.6602,-1.6547,-1.6547,-1.6534,-1.6534,-1.6534,-1.6534,-1.6534,-1.6534,-1.6534,-1.6534,-1.6534,-1.6534,-1.6534,-1.6534,-1.6534,-1.6534,-1.6534,-1.6534,-1.6534,-1.6534,-1.6534,-3.7219,-3.6446,-3.5782,-3.5489,-3.5489,-3.5489,-3.5489,-3.5489,-3.5489,-3.5489,-3.5489,-3.5489,-3.5424,-3.5264,-3.4912,-3.4374,-3.3642,-3.2876,-3.1766,-3.0865,-3.0241,-2.9555,-2.924,-2.8925,-2.8737,-2.8235,-2.7896,-2.7557,-2.718,-2.6741,-2.6584,-2.6452,-2.6233,-2.6721,-2.7009,-2.7026,-2.6673,-2.6904,-2.6214,-2.5473,-2.4808,-2.4343,-2.3791,-2.3213,-2.2686,-2.2334,-2.2272,-2.1592,-2.1186,-2.1087,-2.0591,-2.0321,-2.066,-2.0733,-2.0917,-2.1086,-2.0904,-2.0733,-2.0633,-2.0144,-1.985,-1.9798,-1.994,-2.0283,-2.0633,-2.0746,-2.0966,-2.1266,-2.1183,-2.1328,-2.1411,-2.1554,-2.128,-2.1183,-2.1086,-2.1086,-2.0988,-2.0818,-2.0782,-2.0746,-2.0644,-2.0601,-2.0771,-2.077,-2.0792,-2.0784,-2.0446,-1.981,-1.9113,-1.8522,-1.7877,-1.7549,-1.7008,-1.6726,-1.6584,-1.6572,-1.6534,-1.6534,-1.6534,-1.6534,-1.6534,-1.6534,-1.6522,-1.6534,-1.6534,-1.6534,-1.6534,-1.6534,-1.6534,-1.6534,-1.6534,-1.6534,-1.6534,-1.6534,-1.6534,-3.7322,-3.6615,-3.6275,-3.5894,-3.5489,-3.5489,-3.5489,-3.5489,-3.5489,-3.5489,-3.5489,-3.5489,-3.5489,-3.54,-3.4946,-3.4381,-3.348,-3.3143,-3.1819,-3.0722,-2.9952,-2.9446,-2.8883,-2.8411,-2.8298,-2.7996,-2.7557,-2.7293,-2.7231,-2.6798,-2.6596,-2.6521,-2.6521,-2.6804,-2.7105,-2.718,-2.6904,-2.6302,-2.5799,-2.5222,-2.4406,-2.4142,-2.3728,-2.309,-2.2952,-2.3107,-2.3341,-2.2795,-2.2535,-2.2247,-2.1792,-2.1578,-2.1402,-2.141,-2.1589,-2.1799,-2.1589,-2.1417,-2.1148,-2.0521,-2.0003,-2.0484,-2.0769,-2.1086,-2.1342,-2.1342,-2.1424,-2.1602,-2.1791,-2.1885,-2.1697,-2.1697,-2.1602,-2.1697,-2.1744,-2.1838,-2.1758,-2.1534,-2.139,-2.1355,-2.1342,-2.1287,-2.1588,-2.1885,-2.1867,-2.1823,-2.1398,-2.0918,-2.0163,-1.9563,-1.8934,-1.8478,-1.7975,-1.7506,-1.7362,-1.6985,-1.6627,-1.6645,-1.6713,-1.6688,-1.6774,-1.6522,-1.6522,-1.6522,-1.6522,-1.6565,-1.6565,-1.6522,-1.6534,-1.6534,-1.6534,-1.6534,-1.6534,-1.6534,-1.6534,-3.7905,-3.6964,-3.698,-3.6415,-3.5554,-3.5489,-3.5489,-3.5489,-3.5489,-3.5489,-3.5474,-3.531,-3.531,-3.5205,-3.4562,-3.4114,-3.3506,-3.2947,-3.1704,-3.0771,-3.0051,-2.9287,-2.8451,-2.7946,-2.7833,-2.7733,-2.7369,-2.7042,-2.7256,-2.6716,-2.6571,-2.6521,-2.6546,-2.6798,-2.6879,-2.6979,-2.654,-2.5824,-2.5347,-2.4958,-2.4104,-2.4024,-2.3968,-2.3628,-2.3715,-2.404,-2.4269,-2.393,-2.3541,-2.3262,-2.2903,-2.254,-2.2393,-2.232,-2.2414,-2.2461,-2.2386,-2.2236,-2.1752,-2.1135,-2.062,-2.1051,-2.1328,-2.1663,-2.196,-2.2007,-2.21,-2.2363,-2.2363,-2.2271,-2.2225,-2.2409,-2.2469,-2.2606,-2.2546,-2.2606,-2.2469,-2.2285,-2.21,-2.2007,-2.1993,-2.2007,-2.2239,-2.25,-2.248,-2.2424,-2.2119,-2.1683,-2.1142,-2.057,-2.016,-1.9712,-1.9318,-1.8776,-1.8328,-1.8218,-1.8081,-1.779,-1.7708,-1.7258,-1.7135,-1.6816,-1.671,-1.6837,-1.6795,-1.668,-1.6637,-1.6637,-1.6607,-1.6534,-1.6534,-1.6534,-1.6534,-1.6534,-1.6534,-3.9119,-3.7806,-3.7748,-3.6951,-3.5668,-3.5504,-3.5489,-3.5489,-3.5489,-3.5489,-3.5385,-3.4722,-3.4737,-3.5011,-3.4158,-3.3824,-3.3799,-3.2888,-3.1872,-3.1198,-3.0102,-2.9041,-2.8244,-2.7717,-2.7469,-2.7205,-2.708,-2.7118,-2.7193,-2.6841,-2.6659,-2.6521,-2.6533,-2.6571,-2.6571,-2.6559,-2.6163,-2.5611,-2.5146,-2.4657,-2.4291,-2.4305,-2.4308,-2.4434,-2.4738,-2.5007,-2.5205,-2.4942,-2.4493,-2.3974,-2.3519,-2.3305,-2.3439,-2.3371,-2.3618,-2.4117,-2.3705,-2.3259,-2.2675,-2.2021,-2.1758,-2.1758,-2.1993,-2.2239,-2.2543,-2.268,-2.2815,-2.3024,-2.326,-2.3363,-2.345,-2.345,-2.3319,-2.3275,-2.3216,-2.3172,-2.2995,-2.2905,-2.2711,-2.2651,-2.268,-2.2709,-2.2875,-2.304,-2.3036,-2.2942,-2.2745,-2.2428,-2.1973,-2.1739,-2.1382,-2.0912,-2.0497,-1.9998,-1.9595,-1.9647,-1.9556,-1.9183,-1.8508,-1.7769,-1.7348,-1.7073,-1.7034,-1.7146,-1.6909,-1.6595,-1.671,-1.6837,-1.668,-1.6534,-1.6534,-1.6534,-1.6534,-1.6534,-1.6534,-3.9506,-3.8525,-3.8525,-3.7962,-3.6951,-3.5894,-3.5489,-3.5489,-3.5489,-3.5489,-3.5215,-3.4297,-3.4103,-3.4319,-3.4008,-3.3604,-3.3647,-3.3555,-3.2684,-3.1296,-3.0262,-2.9294,-2.8473,-2.7812,-2.7377,-2.7356,-2.7306,-2.7055,-2.6785,-2.6873,-2.6728,-2.6565,-2.6521,-2.6521,-2.6533,-2.6483,-2.6163,-2.5674,-2.5401,-2.5114,-2.4809,-2.4807,-2.494,-2.5048,-2.5342,-2.5728,-2.6122,-2.5834,-2.5426,-2.4924,-2.4486,-2.4425,-2.4322,-2.4086,-2.4015,-2.4328,-2.4059,-2.3585,-2.3319,-2.298,-2.2756,-2.2663,-2.2665,-2.295,-2.3275,-2.329,-2.3465,-2.3508,-2.3595,-2.3595,-2.3551,-2.3551,-2.3508,-2.3508,-2.345,-2.345,-2.3406,-2.3377,-2.3275,-2.3275,-2.329,-2.3246,-2.3334,-2.3334,-2.3284,-2.331,-2.3161,-2.3176,-2.2864,-2.2897,-2.2687,-2.2164,-2.1683,-2.1149,-2.0806,-2.0797,-2.0274,-1.9627,-1.8714,-1.7733,-1.7407,-1.7312,-1.7188,-1.7188,-1.6866,-1.6552,-1.6637,-1.668,-1.6607,-1.6534,-1.6534,-1.6534,-1.6534,-1.6534,-1.6534,-3.961,-3.8891,-3.8644,-3.8258,-3.7616,-3.6415,-3.5797,-3.5554,-3.5489,-3.5489,-3.5325,-3.4588,-3.4289,-3.4233,-3.3604,-3.338,-3.341,-3.287,-3.3004,-3.1671,-3.0864,-3.0035,-2.9207,-2.8252,-2.787,-2.7759,-2.7595,-2.7431,-2.718,-2.7218,-2.6954,-2.6578,-2.6521,-2.6714,-2.6837,-2.6896,-2.6691,-2.6374,-2.6259,-2.6245,-2.5901,-2.5782,-2.5921,-2.591,-2.6108,-2.6428,-2.6759,-2.6769,-2.6615,-2.6054,-2.5704,-2.554,-2.5061,-2.4597,-2.4403,-2.4567,-2.4133,-2.3849,-2.3865,-2.3596,-2.3467,-2.3875,-2.3748,-2.3581,-2.3595,-2.3551,-2.3551,-2.3595,-2.3595,-2.3595,-2.3595,-2.3595,-2.3595,-2.3595,-2.3595,-2.3595,-2.3595,-2.3551,-2.3508,-2.3595,-2.3595,-2.3595,-2.3595,-2.3551,-2.3535,-2.355,-2.3565,-2.3595,-2.3595,-2.3551,-2.3508,-2.301,-2.2717,-2.2338,-2.1932,-2.1773,-2.1138,-2.0182,-1.9234,-1.8275,-1.7747,-1.7666,-1.7422,-1.7146,-1.6837,-1.6552,-1.6522,-1.6534,-1.6534,-1.6534,-1.6534,-1.6534,-1.6534,-1.6534,-1.6534,-3.9612,-3.8879,-3.8117,-3.7872,-3.7742,-3.704,-3.6212,-3.5459,-3.5489,-3.5474,-3.54,-3.5326,-3.5024,-3.431,-3.3185,-3.3006,-3.323,-3.2317,-3.2326,-3.228,-3.1343,-3.0724,-3.0052,-2.9262,-2.8552,-2.8048,-2.791,-2.7977,-2.8003,-2.787,-2.7357,-2.6883,-2.704,-2.7284,-2.7604,-2.7867,-2.7641,-2.7477,-2.7332,-2.7209,-2.6796,-2.6891,-2.6814,-2.6804,-2.6967,-2.7188,-2.7408,-2.7384,-2.6966,-2.6482,-2.5989,-2.6063,-2.5824,-2.527,-2.527,-2.4941,-2.4133,-2.4238,-2.4328,-2.3984,-2.4521,-2.5017,-2.4594,-2.4025,-2.367,-2.3699,-2.3595,-2.3595,-2.3595,-2.3595,-2.3595,-2.3595,-2.3595,-2.3595,-2.3595,-2.3595,-2.3595,-2.3595,-2.3595,-2.3595,-2.3595,-2.3595,-2.3595,-2.3595,-2.3595,-2.3595,-2.3595,-2.3595,-2.3595,-2.3595,-2.3551,-2.3537,-2.3332,-2.3463,-2.3094,-2.2479,-2.2054,-2.1137,-2.0255,-1.935,-1.8773,-1.7935,-1.7463,-1.7076,-1.6752,-1.6595,-1.6522,-1.6534,-1.6534,-1.6534,-1.6534,-1.6534,-1.6534,-1.6534,-1.6534,-3.9024,-3.9631,-3.8388,-3.8472,-3.9179,-3.8019,-3.6504,-3.4973,-3.525,-3.528,-3.4771,-3.5314,-3.4994,-3.446,-3.3604,-3.3395,-3.308,-3.2781,-3.2512,-3.2105,-3.15,-3.1011,-3.0471,-2.9951,-2.9134,-2.8733,-2.8547,-2.843,-2.8072,-2.8093,-2.8477,-2.8325,-2.8051,-2.8363,-2.8671,-2.9178,-2.8837,-2.8595,-2.8463,-2.8096,-2.7697,-2.7636,-2.7457,-2.7395,-2.7408,-2.756,-2.756,-2.756,-2.7066,-2.6108,-2.6228,-2.6198,-2.5061,-2.4746,-2.4657,-2.4208,-2.4133,-2.4448,-2.4687,-2.5285,-2.5843,-2.63,-2.6115,-2.5472,-2.4726,-2.413,-2.3859,-2.3769,-2.3829,-2.3917,-2.3698,-2.3595,-2.3595,-2.3595,-2.3595,-2.3595,-2.3595,-2.3595,-2.3595,-2.3595,-2.3595,-2.3595,-2.3595,-2.3595,-2.3595,-2.3595,-2.3595,-2.3595,-2.3595,-2.3595,-2.3595,-2.3595,-2.3595,-2.3595,-2.3206,-2.2631,-2.2465,-2.2107,-2.1043,-1.9958,-1.9023,-1.8167,-1.7474,-1.6993,-1.671,-1.6595,-1.6522,-1.6534,-1.6534,-1.6534,-1.6534,-1.6534,-1.6534,-1.6534,-1.6534,-3.843,-3.9005,-3.7956,-3.798,-3.8571,-3.8057,-3.659,-3.4851,-3.47,-3.4658,-3.4861,-3.4736,-3.4495,-3.3993,-3.338,-3.3036,-3.2991,-3.2392,-3.2303,-3.266,-3.1633,-3.1526,-3.1189,-3.0694,-2.9914,-2.9523,-2.9255,-2.9201,-2.8781,-2.8855,-2.9192,-2.8876,-2.8989,-2.924,-2.9504,-2.9875,-3.0147,-2.9943,-2.9703,-2.9189,-2.8711,-2.8338,-2.8142,-2.7637,-2.7575,-2.761,-2.761,-2.761,-2.701,-2.6159,-2.6492,-2.6197,-2.5363,-2.5268,-2.4979,-2.4616,-2.4616,-2.5203,-2.5722,-2.6061,-2.6769,-2.7324,-2.7498,-2.672,-2.6182,-2.561,-2.4841,-2.4304,-2.431,-2.4271,-2.3874,-2.3595,-2.3595,-2.3595,-2.3595,-2.3595,-2.3595,-2.3595,-2.3595,-2.3595,-2.3595,-2.3595,-2.3595,-2.3595,-2.3595,-2.3595,-2.3595,-2.3595,-2.3595,-2.3595,-2.3595,-2.3595,-2.3595,-2.358,-2.3161,-2.279,-2.2411,-2.1975,-2.1056,-2.0026,-1.9193,-1.8249,-1.735,-1.6909,-1.6667,-1.6595,-1.6534,-1.6534,-1.6534,-1.6534,-1.6534,-1.6534,-1.6534,-1.6534,-1.6534,-3.7804,-3.7922,-3.7161,-3.6882,-3.675,-3.7354,-3.6587,-3.4798,-3.4197,-3.4319,-3.494,-3.4203,-3.3873,-3.3784,-3.32,-3.2766,-3.2527,-3.2048,-3.2123,-3.326,-3.2333,-3.1928,-3.1693,-3.144,-3.0523,-3.0085,-2.991,-2.9961,-2.9841,-2.9841,-2.9651,-2.9164,-2.924,-2.9553,-3.0069,-3.0406,-3.0572,-3.0483,-3.0601,-3.0522,-2.964,-2.9241,-2.8876,-2.7814,-2.7625,-2.7625,-2.766,-2.7605,-2.7379,-2.6864,-2.6642,-2.6621,-2.6209,-2.6094,-2.5703,-2.5521,-2.5377,-2.5869,-2.6497,-2.6869,-2.7737,-2.8255,-2.8404,-2.8003,-2.7671,-2.6856,-2.5932,-2.5264,-2.5228,-2.5144,-2.4837,-2.4568,-2.4506,-2.428,-2.4158,-2.4142,-2.4142,-2.4032,-2.3752,-2.3724,-2.3595,-2.3595,-2.3595,-2.3595,-2.3595,-2.3595,-2.3595,-2.3595,-2.3681,-2.3681,-2.3595,-2.3595,-2.3595,-2.358,-2.3359,-2.2931,-2.2304,-2.171,-2.0781,-1.974,-1.8645,-1.7822,-1.7089,-1.6837,-1.6595,-1.6565,-1.6534,-1.6534,-1.6534,-1.6534,-1.6534,-1.6534,-1.6534,-1.6534,-1.6534,-3.6857,-3.7872,-3.7719,-3.7015,-3.6024,-3.6666,-3.6377,-3.5329,-3.5253,-3.4688,-3.4224,-3.4592,-3.4622,-3.4008,-3.338,-3.2901,-3.2347,-3.1854,-3.1779,-3.2018,-3.1884,-3.1871,-3.1664,-3.15,-3.0921,-3.0661,-3.0578,-3.0697,-3.0273,-3.0274,-3.0558,-3.069,-3.0338,-3.019,-3.0552,-3.0804,-3.0986,-3.0784,-3.094,-3.0835,-2.9984,-2.8696,-2.782,-2.7675,-2.766,-2.7993,-2.8076,-2.8255,-2.7798,-2.7315,-2.7699,-2.7248,-2.6329,-2.6342,-2.5958,-2.5557,-2.6301,-2.672,-2.7009,-2.7631,-2.8559,-2.9198,-2.9492,-2.9659,-2.9281,-2.8111,-2.721,-2.659,-2.6188,-2.6091,-2.5841,-2.5627,-2.5413,-2.5114,-2.4822,-2.4806,-2.4775,-2.4364,-2.4021,-2.3794,-2.3638,-2.3595,-2.3595,-2.3595,-2.3595,-2.3595,-2.3595,-2.3638,-2.3794,-2.3837,-2.3638,-2.3595,-2.3595,-2.3522,-2.3419,-2.2936,-2.2221,-2.1183,-2.0146,-1.9137,-1.8086,-1.7375,-1.6795,-1.668,-1.6522,-1.6534,-1.6534,-1.6534,-1.6534,-1.6534,-1.6534,-1.6534,-1.6534,-1.6534,-1.6534,-3.6113,-3.6857,-3.6891,-3.6589,-3.6269,-3.657,-3.6315,-3.5726,-3.598,-3.5118,-3.3844,-3.479,-3.5047,-3.4117,-3.3365,-3.2736,-3.2138,-3.1661,-3.1571,-3.1497,-3.1467,-3.1511,-3.1467,-3.1467,-3.1322,-3.1058,-3.1205,-3.1117,-3.0602,-3.0393,-3.0634,-3.0844,-3.0503,-3.07,-3.0882,-3.1258,-3.1267,-3.0994,-3.1082,-3.0751,-3.0176,-2.9399,-2.8652,-2.8593,-2.8448,-2.8622,-2.8732,-2.8841,-2.8205,-2.7656,-2.7557,-2.7963,-2.7486,-2.7679,-2.7377,-2.7278,-2.7575,-2.7876,-2.7849,-2.8285,-2.9093,-2.941,-2.966,-2.9467,-2.9484,-2.8472,-2.8326,-2.7774,-2.7916,-2.781,-2.6967,-2.6548,-2.65,-2.6309,-2.6141,-2.6036,-2.5258,-2.4388,-2.4016,-2.3681,-2.3595,-2.3595,-2.3595,-2.3595,-2.3595,-2.3595,-2.3595,-2.3681,-2.3879,-2.4032,-2.3794,-2.3595,-2.3638,-2.3595,-2.3522,-2.2849,-2.2032,-2.0864,-1.9645,-1.8542,-1.754,-1.6982,-1.6534,-1.6522,-1.6522,-1.6534,-1.6534,-1.6565,-1.6522,-1.6534,-1.6534,-1.6534,-1.6534,-1.6534,-1.6534,-3.5639,-3.5639,-3.5656,-3.6011,-3.6569,-3.6637,-3.6296,-3.5877,-3.6389,-3.5651,-3.4216,-3.532,-3.4806,-3.3622,-3.2811,-3.2153,-3.1719,-3.1541,-3.1467,-3.1467,-3.1467,-3.1467,-3.1467,-3.1467,-3.1394,-3.1319,-3.1289,-3.1252,-3.1035,-3.0739,-3.044,-3.0122,-3.0446,-3.0938,-3.1362,-3.147,-3.1337,-3.1195,-3.1082,-3.0975,-3.0831,-3.0777,-2.9958,-2.9561,-2.9454,-2.9467,-2.9451,-2.9287,-2.8721,-2.8273,-2.7827,-2.8085,-2.8544,-2.872,-2.8743,-2.8656,-2.8501,-2.8622,-2.8629,-2.8693,-2.8868,-2.8941,-2.9008,-2.9245,-2.9397,-2.937,-2.9231,-2.9282,-2.939,-2.9015,-2.8152,-2.7762,-2.7745,-2.7462,-2.7324,-2.6944,-2.5748,-2.4599,-2.4173,-2.3752,-2.3638,-2.3638,-2.3638,-2.3595,-2.3681,-2.3681,-2.3752,-2.3794,-2.3879,-2.4032,-2.3991,-2.3794,-2.3724,-2.3681,-2.3595,-2.2717,-2.1799,-2.0592,-1.9364,-1.8135,-1.7148,-1.6746,-1.6522,-1.6522,-1.6522,-1.6637,-1.6637,-1.668,-1.6595,-1.6522,-1.6534,-1.6534,-1.6534,-1.6534,-1.6534,-3.5639,-3.5639,-3.5639,-3.574,-3.5842,-3.5859,-3.5713,-3.5762,-3.6398,-3.6124,-3.5433,-3.5717,-3.5197,-3.2706,-3.2617,-3.2212,-3.1928,-3.1724,-3.1582,-3.1467,-3.1781,-3.1625,-3.1682,-3.1936,-3.1567,-3.1504,-3.1464,-3.1334,-3.1574,-3.1081,-3.1332,-3.2242,-3.1286,-3.1356,-3.1405,-3.139,-3.1164,-3.1017,-3.1144,-3.1078,-3.0494,-3.0335,-3.0112,-2.9838,-2.971,-2.983,-2.9978,-3.014,-2.9939,-2.9538,-2.8967,-2.8915,-2.9208,-2.96,-2.9617,-2.9485,-2.9367,-2.8958,-2.8924,-2.9025,-2.9025,-2.8569,-2.8975,-3.0006,-3.0159,-3.0311,-3.028,-3.0398,-3.0331,-2.9911,-2.9299,-2.9365,-2.9315,-2.8648,-2.8239,-2.7382,-2.6366,-2.5361,-2.4639,-2.4158,-2.3724,-2.3724,-2.3724,-2.3837,-2.4032,-2.4116,-2.443,-2.4415,-2.4266,-2.4266,-2.4184,-2.3948,-2.3752,-2.3681,-2.3537,-2.2498,-2.1498,-2.0311,-1.9114,-1.7895,-1.702,-1.6665,-1.6522,-1.668,-1.6837,-1.6951,-1.6909,-1.6795,-1.668,-1.6595,-1.6522,-1.6534,-1.6534,-1.6534,-1.6534]},{"header":{"parameterUnit":"m.s-1","parameterCategory":1,"la1":31.0,"la2":29.5877,"lo1":-88.7671,"lo2":-86.6584,"dy":0.0162,"dx":0.0185,"nx":115,"ny":88,"refTime":"2023-06-30T06:00:00:Z","depth":0,"parameterNumber":3,"parameterNumberName":"V-component_of_WINDS"},"data":[0.0,0.0,0.0,0.0,0.0,0.0,0.0,0.0,0.0,0.0,0.0,0.0,0.0,0.0,0.0,0.0,0.0,0.0,0.0,0.0,0.0,0.0,0.0,0.0,0.0,0.0,0.0,0.0,0.0,0.0,0.0,0.0,0.0,0.0,0.0,0.0,0.0,0.0,0.0,0.0,0.0,0.0,0.0,0.0,0.0,0.0,0.0,0.0,0.0,0.0,0.0,0.0,0.0,0.0,0.0,0.0,0.0,0.0,0.0,0.0,0.0,0.0,0.0,0.0,0.0,0.0,0.0,0.0,0.0,0.0,0.0,0.0,0.0,0.0,0.0,0.0,0.0,0.0,0.0,0.0,0.0,0.0,0.0,0.0,0.0,0.0,0.0,0.0,0.0,0.0,0.0,0.0,0.0,0.0,0.0,0.0,0.0,0.0,0.0,0.0,0.0,0.0,0.0,0.0,0.0,0.0,0.0,0.0,0.0,0.0,0.0,0.0,0.0,0.0,0.0,0.0,0.0,0.0,0.0,0.0,0.0,0.0,0.0,0.0,0.0,0.0,0.0,0.0,0.0,0.0,0.0,0.0,0.0,0.0,0.0,0.0,0.0,0.0,0.0,0.0,0.0,0.0,0.0,0.0,0.0,0.0,0.0,0.0,0.0,0.0,0.0,0.0,0.0,0.0,0.0,0.0,0.0,0.0,0.0,0.0,0.0,0.0,0.0,0.0,0.0,0.0,0.0,0.0,0.0,0.0,0.0,0.0,0.0,0.0,0.0,0.0,0.0,0.0,0.0,0.0,0.0,0.0,0.0,0.0,0.0,0.0,0.0,0.0,0.0,0.0,0.0,0.0,0.0,0.0,0.0,0.0,0.0,0.0,0.0,0.0,0.0,0.0,0.0,0.0,0.0,0.0,0.0,0.0,0.0,0.0,0.0,0.0,0.0,0.0,0.0,0.0,0.0,0.0,0.0,0.0,0.0,0.0,0.0,0.0,0.0,0.0,0.0,0.0,0.0,0.0,0.0,0.0,0.0,0.0,0.0,0.0,0.0,0.0,0.0,0.0,0.0,0.0,0.0,0.0,0.0,0.0,0.0,0.0,0.0,0.0,0.0,0.0,0.0,0.0,0.0,0.0,0.0,0.0,0.0,0.0,0.0,0.0,0.0,0.0,0.0,0.0,0.0,0.0,0.0,0.0,0.0,0.0,0.0,0.0,0.0,0.0,0.0,0.0,0.0,0.0,0.0,0.0,0.0,0.0,0.0,0.0,0.0,0.0,0.0,0.0,0.0,0.0,0.0,0.0,0.0,0.0,0.0,0.0,0.0,0.0,0.0,0.0,0.0,0.0,0.0,0.0,0.0,0.0,0.0,0.0,0.0,0.0,0.0,0.0,0.0,0.0,0.0,0.0,0.0,0.0,0.0,0.0,0.0,0.0,0.0,0.0,0.0,0.0,0.0,0.0,0.0,0.0,0.0,0.0,0.0,0.0,0.0,0.0,0.0,0.0,0.0,0.0,0.0,0.0,0.0,0.0,0.0,0.0,0.0,0.0,0.0,0.0,0.0,0.0,0.0,0.0,0.0,0.0,0.0,0.0,0.0,0.0,0.0,0.0,0.0,0.0,0.0,0.0,0.0,0.0,0.0,0.0,0.0,0.0,0.0,0.0,0.0,0.0,0.0,0.0,0.0,0.0,0.0,0.0,0.0,0.0,0.0,0.0,0.0,0.0,0.0,0.0,0.0,0.0,0.0,0.0,0.0,0.0,0.0,0.0,0.0,0.0,0.0,0.0,0.0,0.0,0.0,0.0,0.0,0.0,0.0,0.0,0.0,0.0,0.0,0.0,0.0,0.0,0.0,0.0,0.0,0.0,0.0,0.0,0.0,0.0,0.0,0.0,0.0,0.0,0.0,0.0,0.0,0.0,0.0,0.0,0.0,0.0,0.0,0.0,0.0,0.0,0.0,0.0,0.0,0.0,0.0,0.0,0.0,0.0,0.0,0.0,0.0,0.0,0.0,0.0,0.0,0.0,0.0,0.0,0.0,0.0,0.0,0.0,0.0,0.0,0.0,0.0,0.0,0.0,0.0,0.0,0.0,0.0,0.0,0.0,0.0,0.0,0.0,0.0,0.0,0.0,0.0,0.0,0.0,0.0,0.0,0.0,0.0,0.0,0.0,0.0,0.0,0.0,0.0,0.0,0.0,0.0,0.0,0.0,0.0,0.0,0.0,0.0,0.0,0.0,0.0,0.0,0.0,0.0,0.0,0.0,0.0,0.0,0.0,0.0,0.0,0.0,0.0,0.0,0.0,0.0,0.0,0.0,0.0,0.0,0.0,0.0,0.0,0.0,0.0,0.0,0.0,0.0,0.0,0.0,0.0,0.0,0.0,0.0,0.0,0.0,0.0,0.0,0.0,0.0,0.0,0.0,0.0,0.0,0.0,0.0,0.0,0.0,0.0,0.0,0.0,0.0,0.0,0.0,0.0,0.0,0.0,0.0,0.0,0.0,0.0,0.0,0.0,0.0,0.0,0.0,0.0,0.0,0.0,0.0,0.0,0.0,0.0,0.0,0.0,0.0,0.0,0.0,0.0,0.0,0.0,0.0,0.0,0.0,0.0,0.0,0.0,0.0,0.0,0.0,0.0,0.0,0.0,0.0,0.0,0.0,0.0,0.0,0.0,0.0,0.0,0.0,0.0,0.0,0.0,0.0,0.0,0.0,0.0,0.0,0.0,0.0,0.0,0.0,0.0,0.0,0.0,0.0,0.0,0.0,0.0,0.0,0.0,0.0,0.0,0.0,0.0,0.0,0.0,0.0,0.0,0.0,0.0,0.0,0.0,0.0,0.0,0.0,0.0,0.0,0.0,0.0,0.0,0.0,0.0,0.0,0.0,0.0,0.0,0.0,0.0,0.0,0.0,0.0,0.0,0.0,0.0,0.0,0.0,0.0,0.0,0.0,0.0,0.0,0.0,0.0,0.0,0.0,0.0,0.0,0.0,0.0,0.0,0.0,0.0,0.0,0.0,0.0,0.0,0.0,0.0,0.0,0.0,0.0,0.0,0.0,0.0,0.0,0.0,0.0,0.0,0.0,0.0,0.0,0.0,0.0,0.0,0.0,0.0,0.0,0.0,0.0,0.0,0.0,0.0,0.0,0.0,0.0,0.0,0.0,0.0,0.0,0.0,0.0,0.0,0.0,0.0,0.0,0.0,0.0,0.0,0.0,0.0,0.0,0.0,0.0,0.0,0.0,0.0,0.0,0.0,0.0,0.0,0.0,0.0,0.0,0.0,0.0,0.0,0.0,0.0,0.0,0.0,0.0,0.0,0.0,0.0,0.0,0.0,0.0,0.0,0.0,0.0,0.0,0.0,0.0,0.0,0.0,0.0,0.0,0.0,0.0,0.0,0.0,0.0,0.0,0.0,0.0,0.0,0.0,0.0,0.0,0.0,0.0,0.0,0.0,0.0,0.0,0.0,0.0,0.0,0.0,0.0,0.0,0.0,0.0,0.0,0.0,0.0,0.0,0.0,0.0,0.0,0.0,0.0,0.0,0.0,0.0,0.0,0.0,0.0,0.0,0.0,0.0,0.0,0.0,0.0,0.0,0.0,0.0,0.0,0.0,0.0,0.0,0.0,0.0,0.0,0.0,0.0,0.0,0.0,0.0,0.0,0.0,0.0,0.0,0.0,0.0,0.0,0.0,0.0,0.0,0.0,0.0,0.0,0.0,0.0,0.0,0.0,0.0,0.0,0.0,0.0,0.0,0.0,0.0,0.0,0.0,0.0,0.0,0.0,0.0,0.0,0.0,0.0,0.0,0.0,0.0,0.0,0.0,0.0,0.0,0.0,0.0,0.0,0.0,0.0,0.0,0.0,0.0,0.0,0.0,0.0,0.0,0.0,0.0,0.0,0.0,0.0,0.0,0.0,0.0,0.0,0.0,0.0,0.0,0.0,0.0,0.0,0.0,0.0,0.0,0.0,0.0,0.0,0.0,0.0,0.0,0.0,0.0,0.0,0.0,0.0,0.0,0.0,0.0,0.0,0.0,0.0,0.0,0.0,0.0,0.0,0.0,0.0,0.0,0.0,0.0,0.0,0.0,0.0,0.0,0.0,0.0,0.0,0.0,0.0,0.0,0.0,0.0,0.0,0.0,0.0,0.0,0.0,0.0,0.0,0.0,0.0,0.0,0.0,0.0,0.0,0.0,0.0,0.0,0.0,0.0,0.0,0.0,0.0,0.0,0.0,0.0,0.0,0.0,0.0,0.0,0.0,0.0,-1.2077,0.0,0.0,0.0,0.0,0.0,0.0,0.0,0.0,0.0,0.0,0.0,0.0,0.0,0.0,0.0,0.0,0.0,0.0,0.0,0.0,0.0,0.0,0.0,0.0,0.0,0.0,0.0,0.0,0.0,0.0,0.0,0.0,0.0,0.0,0.0,0.0,0.0,0.0,0.0,0.0,0.0,0.0,0.0,0.0,0.0,0.0,0.0,0.0,0.0,0.0,0.0,0.0,0.0,0.0,0.0,0.0,0.0,0.0,0.0,0.0,0.0,0.0,0.0,0.0,0.0,0.0,0.0,0.0,0.0,0.0,0.0,0.0,0.0,0.0,0.0,0.0,0.0,0.0,0.0,0.0,0.0,0.0,0.0,0.0,0.0,0.0,0.0,0.0,0.0,0.0,0.0,0.0,0.0,0.0,0.0,0.0,0.0,0.0,0.0,0.0,0.0,0.0,0.0,0.0,0.0,0.0,0.0,0.0,0.0,0.0,-1.3459,-1.3776,-1.2245,-1.1962,-1.3097,0.0,0.0,0.0,0.0,0.0,0.0,0.0,0.0,0.0,0.0,0.0,0.0,0.0,0.0,0.0,0.0,0.0,0.0,0.0,0.0,0.0,0.0,0.0,0.0,0.0,0.0,0.0,0.0,0.0,0.0,0.0,0.0,0.0,0.0,0.0,0.0,0.0,0.0,0.0,0.0,0.0,0.0,0.0,0.0,0.0,0.0,0.0,0.0,0.0,0.0,0.0,0.0,0.0,0.0,0.0,0.0,0.0,0.0,0.0,0.0,0.0,0.0,0.0,0.0,0.0,0.0,0.0,0.0,0.0,0.0,0.0,0.0,0.0,0.0,0.0,0.0,0.0,0.0,0.0,0.0,0.0,0.0,0.0,0.0,0.0,0.0,0.0,0.0,0.0,0.0,0.0,0.0,0.0,0.0,0.0,0.0,0.0,0.0,0.0,0.0,0.0,0.0,0.0,0.0,0.0,0.0,0.0,0.0,0.0,0.0,0.0,0.0,-1.2733,-1.2637,-1.4369,0.0,0.0,0.0,0.0,0.0,0.0,0.0,0.0,0.0,0.0,0.0,0.0,0.0,0.0,0.0,0.0,0.0,0.0,0.0,0.0,0.0,0.0,0.0,0.0,0.0,0.0,0.0,0.0,0.0,0.0,0.0,0.0,0.0,0.0,0.0,0.0,0.0,0.0,0.0,0.0,0.0,0.0,0.0,0.0,0.0,0.0,0.0,0.0,0.0,0.0,0.0,0.0,0.0,0.0,0.0,0.0,0.0,0.0,0.0,0.0,0.0,0.0,0.0,0.0,0.0,0.0,0.0,0.0,0.0,0.0,0.0,0.0,0.0,0.0,0.0,0.0,0.0,0.0,0.0,0.0,0.0,0.0,0.0,0.0,0.0,0.0,0.0,0.0,0.0,0.0,0.0,0.0,0.0,0.0,0.0,0.0,0.0,0.0,0.0,0.0,0.0,0.0,0.0,0.0,0.0,0.0,0.0,0.0,0.0,0.0,-1.3853,-1.4477,-1.486,0.0,-1.6593,0.0,0.0,0.0,0.0,0.0,0.0,0.0,0.0,0.0,0.0,0.0,0.0,0.0,0.0,0.0,0.0,0.0,0.0,0.0,0.0,0.0,0.0,0.0,0.0,0.0,0.0,0.0,0.0,0.0,0.0,0.0,0.0,0.0,0.0,0.0,0.0,0.0,0.0,0.0,0.0,0.0,0.0,0.0,0.0,0.0,0.0,0.0,0.0,0.0,0.0,0.0,0.0,0.0,0.0,0.0,0.0,0.0,0.0,0.0,0.0,0.0,0.0,0.0,0.0,0.0,0.0,0.0,0.0,0.0,0.0,0.0,0.0,0.0,0.0,0.0,0.0,0.0,0.0,0.0,0.0,0.0,0.0,0.0,0.0,0.0,0.0,0.0,0.0,0.0,0.0,0.0,0.0,0.0,0.0,0.0,0.0,0.0,0.0,0.0,0.0,0.0,0.0,0.0,0.0,0.0,0.0,0.0,0.0,0.0,0.0,-1.4701,-1.5015,-1.5831,-1.644,0.0,0.0,0.0,0.0,0.0,0.0,0.0,0.0,0.0,0.0,0.0,0.0,0.0,0.0,0.0,0.0,0.0,0.0,0.0,0.0,0.0,0.0,0.0,0.0,0.0,0.0,0.0,0.0,0.0,0.0,0.0,0.0,0.0,0.0,0.0,0.0,0.0,0.0,0.0,0.0,0.0,0.0,0.0,0.0,0.0,0.0,0.0,0.0,0.0,0.0,0.0,0.0,0.0,0.0,0.0,0.0,0.0,0.0,0.0,0.0,0.0,0.0,0.0,0.0,0.0,0.0,0.0,0.0,0.0,0.0,0.0,0.0,0.0,0.0,0.0,0.0,0.0,0.0,0.0,0.0,0.0,0.0,0.0,0.0,0.0,0.0,0.0,0.0,0.0,0.0,0.0,0.0,0.0,0.0,0.0,0.0,0.0,0.0,0.0,0.0,0.0,0.0,0.0,0.0,0.0,0.0,0.0,0.0,0.0,0.0,-1.4582,-1.4814,-1.5297,-1.602,-1.6496,-1.6763,0.0,0.0,0.0,0.0,0.0,0.0,0.0,0.0,0.0,0.0,0.0,0.0,0.0,0.0,0.0,0.0,0.0,0.0,0.0,0.0,0.0,0.0,0.0,0.0,0.0,0.0,0.0,0.0,0.0,0.0,0.0,0.0,0.0,0.0,0.0,0.0,0.0,0.0,0.0,0.0,0.0,0.0,0.0,0.0,0.0,0.0,0.0,0.0,0.0,0.0,0.0,0.0,0.0,0.0,0.0,0.0,0.0,0.0,0.0,0.0,0.0,0.0,0.0,0.0,0.0,0.0,0.0,0.0,0.0,0.0,0.0,0.0,0.0,0.0,0.0,0.0,0.0,0.0,0.0,0.0,0.0,0.0,0.0,0.0,0.0,0.0,0.0,0.0,0.0,0.0,0.0,0.0,0.0,0.0,0.0,0.0,0.0,0.0,0.0,0.0,0.0,0.0,0.0,0.0,0.0,0.0,0.0,0.0,-1.6532,-1.4374,-1.377,-1.5113,-1.5299,-1.58,0.0,0.0,0.0,0.0,0.0,0.0,0.0,0.0,0.0,0.0,0.0,0.0,0.0,0.0,0.0,0.0,0.0,0.0,0.0,0.0,0.0,0.0,0.0,0.0,0.0,0.0,0.0,0.0,0.0,0.0,0.0,0.0,0.0,0.0,0.0,0.0,0.0,0.0,0.0,0.0,0.0,0.0,0.0,0.0,0.0,0.0,0.0,0.0,0.0,0.0,0.0,0.0,0.0,0.0,0.0,0.0,0.0,0.0,0.0,0.0,0.0,0.0,0.0,0.0,0.0,0.0,0.0,0.0,0.0,0.0,0.0,0.0,0.0,0.0,0.0,0.0,0.0,0.0,0.0,0.0,0.0,0.0,0.0,0.0,0.0,0.0,0.0,0.0,0.0,0.0,0.0,0.0,0.0,0.0,0.0,0.0,0.0,0.0,0.0,0.0,0.0,0.0,0.0,0.0,0.0,0.0,0.0,0.0,0.0,-1.506,-1.5139,-1.5479,-1.6093,-1.6612,-1.6823,0.0,0.0,0.0,0.0,0.0,0.0,0.0,0.0,0.0,0.0,0.0,0.0,0.0,0.0,0.0,0.0,0.0,0.0,0.0,0.0,0.0,0.0,0.0,0.0,0.0,0.0,0.0,0.0,0.0,0.0,0.0,0.0,0.0,0.0,0.0,0.0,0.0,0.0,0.0,0.0,0.0,0.0,0.0,0.0,0.0,0.0,0.0,0.0,0.0,0.0,0.0,0.0,0.0,0.0,0.0,0.0,0.0,0.0,0.0,0.0,0.0,0.0,0.0,0.0,0.0,0.0,0.0,0.0,0.0,0.0,0.0,0.0,0.0,0.0,0.0,0.0,0.0,0.0,0.0,0.0,0.0,0.0,0.0,0.0,0.0,0.0,0.0,0.0,0.0,0.0,0.0,0.0,0.0,0.0,0.0,0.0,0.0,0.0,0.0,0.0,0.0,0.0,0.0,0.0,0.0,0.0,0.0,0.0,0.0,-1.4685,0.0,-1.6564,-1.6545,-1.7219,-1.7215,0.0,0.0,0.0,0.0,0.0,0.0,0.0,0.0,0.0,0.0,0.0,0.0,0.0,0.0,0.0,0.0,0.0,0.0,0.0,0.0,0.0,0.0,0.0,0.0,0.0,0.0,0.0,0.0,0.0,0.0,0.0,0.0,0.0,0.0,0.0,0.0,0.0,0.0,0.0,0.0,0.0,0.0,0.0,0.0,0.0,0.0,0.0,0.0,0.0,0.0,0.0,0.0,0.0,0.0,0.0,0.0,0.0,0.0,0.0,0.0,0.0,0.0,0.0,0.0,0.0,0.0,0.0,0.0,0.0,0.0,0.0,0.0,0.0,0.0,0.0,0.0,0.0,0.0,0.0,0.0,0.0,0.0,0.0,0.0,0.0,0.0,0.0,0.0,0.0,0.0,0.0,0.0,0.0,0.0,0.0,0.0,0.0,0.0,0.0,0.0,0.0,0.0,0.0,0.0,0.0,0.0,0.0,0.0,-1.5555,-1.5839,-1.6602,-1.6783,-1.6298,-1.693,-1.6816,0.0,0.0,0.0,0.0,0.0,0.0,0.0,0.0,0.0,0.0,0.0,0.0,0.0,0.0,0.0,0.0,0.0,0.0,0.0,0.0,0.0,0.0,0.0,0.0,0.0,0.0,0.0,0.0,0.0,0.0,0.0,0.0,0.0,0.0,0.0,0.0,0.0,0.0,0.0,0.0,0.0,0.0,0.0,0.0,0.0,0.0,0.0,0.0,0.0,0.0,0.0,0.0,0.0,0.0,0.0,0.0,0.0,0.0,0.0,0.0,0.0,0.0,0.0,0.0,0.0,0.0,0.0,0.0,0.0,0.0,0.0,0.0,0.0,0.0,0.0,0.0,0.0,0.0,0.0,0.0,0.0,0.0,0.0,0.0,0.0,0.0,0.0,0.0,0.0,0.0,0.0,0.0,0.0,0.0,0.0,0.0,0.0,0.0,0.0,0.0,0.0,0.0,0.0,0.0,0.0,0.0,0.0,0.0,0.0,-1.7973,-1.7523,-1.7582,-1.8129,-1.764,-1.7566,0.0,0.0,0.0,0.0,0.0,0.0,0.0,0.0,0.0,0.0,0.0,0.0,0.0,0.0,0.0,0.0,0.0,0.0,0.0,0.0,0.0,0.0,0.0,0.0,0.0,0.0,0.0,0.0,0.0,0.0,0.0,0.0,0.0,0.0,0.0,0.0,0.0,0.0,0.0,0.0,0.0,0.0,0.0,0.0,0.0,0.0,0.0,0.0,0.0,0.0,0.0,0.0,0.0,0.0,0.0,0.0,0.0,0.0,0.0,0.0,0.0,0.0,0.0,0.0,0.0,0.0,0.0,0.0,0.0,0.0,0.0,0.0,0.0,0.0,0.0,0.0,0.0,0.0,0.0,0.0,0.0,0.0,0.0,0.0,0.0,0.0,0.0,0.0,0.0,0.0,0.0,0.0,0.0,0.0,0.0,0.0,0.0,0.0,0.0,0.0,0.0,0.0,0.0,0.0,0.0,0.0,0.0,0.0,0.0,-1.9372,-1.8385,-1.8079,-1.8516,-1.8367,-1.8283,-1.8329,0.0,0.0,0.0,0.0,0.0,0.0,0.0,0.0,0.0,0.0,0.0,0.0,0.0,0.0,0.0,0.0,0.0,0.0,0.0,0.0,0.0,0.0,0.0,0.0,0.0,0.0,0.0,0.0,0.0,0.0,0.0,0.0,0.0,0.0,0.0,0.0,0.0,0.0,0.0,0.0,0.0,0.0,0.0,0.0,0.0,0.0,0.0,0.0,0.0,0.0,0.0,0.0,0.0,0.0,0.0,0.0,0.0,0.0,0.0,0.0,0.0,0.0,0.0,0.0,0.0,0.0,0.0,0.0,0.0,0.0,0.0,0.0,0.0,0.0,0.0,0.0,0.0,0.0,0.0,0.0,0.0,0.0,0.0,0.0,0.0,0.0,0.0,0.0,0.0,0.0,0.0,0.0,0.0,0.0,0.0,0.0,0.0,0.0,0.0,0.0,0.0,0.0,0.0,0.0,0.0,0.0,0.0,0.0,-2.0164,-1.9341,-1.8589,-1.7903,-1.906,-1.8998,0.0,0.0,0.0,0.0,0.0,0.0,0.0,0.0,0.0,0.0,0.0,0.0,0.0,0.0,0.0,0.0,0.0,0.0,0.0,0.0,0.0,0.0,0.0,0.0,0.0,0.0,0.0,0.0,0.0,0.0,0.0,0.0,0.0,0.0,0.0,0.0,0.0,0.0,0.0,0.0,0.0,0.0,0.0,0.0,0.0,0.0,0.0,0.0,0.0,0.0,0.0,0.0,0.0,0.0,0.0,0.0,0.0,0.0,0.0,0.0,0.0,0.0,0.0,0.0,0.0,0.0,0.0,0.0,0.0,0.0,0.0,0.0,0.0,0.0,0.0,0.0,0.0,0.0,0.0,0.0,0.0,0.0,0.0,0.0,0.0,0.0,0.0,0.0,0.0,0.0,0.0,0.0,0.0,0.0,0.0,0.0,0.0,0.0,0.0,0.0,0.0,0.0,0.0,0.0,0.0,0.0,0.0,0.0,0.0,-2.0723,-2.1123,-2.1051,-2.0413,-2.0186,-2.0035,0.0,0.0,0.0,0.0,0.0,0.0,0.0,0.0,0.0,0.0,0.0,0.0,0.0,0.0,0.0,0.0,0.0,0.0,0.0,0.0,0.0,0.0,0.0,0.0,0.0,0.0,0.0,0.0,0.0,0.0,0.0,0.0,0.0,0.0,0.0,0.0,0.0,0.0,0.0,0.0,0.0,0.0,0.0,0.0,0.0,0.0,0.0,0.0,0.0,0.0,0.0,0.0,0.0,0.0,0.0,0.0,0.0,0.0,0.0,0.0,0.0,0.0,0.0,0.0,0.0,0.0,0.0,0.0,0.0,0.0,0.0,0.0,0.0,0.0,0.0,0.0,0.0,0.0,0.0,0.0,0.0,0.0,0.0,0.0,0.0,0.0,0.0,0.0,0.0,0.0,0.0,0.0,0.0,0.0,0.0,0.0,0.0,0.0,0.0,0.0,0.0,0.0,0.0,0.0,0.0,0.0,0.0,0.0,-2.1649,-2.0581,-2.2204,-2.2715,-2.1919,-2.1544,-2.1145,0.0,0.0,0.0,0.0,0.0,0.0,0.0,0.0,0.0,0.0,0.0,0.0,0.0,0.0,0.0,0.0,0.0,0.0,0.0,0.0,0.0,0.0,0.0,0.0,0.0,0.0,0.0,0.0,0.0,0.0,0.0,0.0,0.0,0.0,0.0,0.0,0.0,0.0,0.0,0.0,0.0,0.0,0.0,0.0,0.0,0.0,0.0,0.0,0.0,0.0,0.0,0.0,0.0,0.0,0.0,0.0,0.0,0.0,0.0,0.0,0.0,0.0,0.0,0.0,0.0,0.0,0.0,0.0,0.0,0.0,0.0,0.0,0.0,0.0,0.0,0.0,0.0,0.0,0.0,0.0,0.0,0.0,0.0,0.0,0.0,0.0,0.0,0.0,0.0,0.0,0.0,0.0,0.0,0.0,0.0,0.0,0.0,0.0,0.0,0.0,0.0,0.0,0.0,0.0,0.0,0.0,0.0,0.0,-2.2371,-2.0279,-2.2811,-2.3727,-2.2819,-2.2792,-2.2122,0.0,0.0,0.0,0.0,0.0,0.0,0.0,0.0,0.0,0.0,0.0,0.0,0.0,0.0,0.0,0.0,0.0,0.0,0.0,0.0,0.0,0.0,0.0,0.0,0.0,0.0,0.0,0.0,0.0,0.0,0.0,0.0,0.0,0.0,0.0,0.0,0.0,0.0,0.0,0.0,0.0,0.0,0.0,0.0,0.0,0.0,0.0,0.0,0.0,0.0,0.0,0.0,0.0,0.0,0.0,0.0,0.0,0.0,0.0,0.0,0.0,0.0,0.0,0.0,0.0,0.0,0.0,0.0,0.0,0.0,0.0,0.0,0.0,0.0,0.0,0.0,0.0,0.0,0.0,0.0,0.0,0.0,0.0,0.0,0.0,0.0,0.0,0.0,0.0,0.0,0.0,0.0,0.0,0.0,0.0,0.0,0.0,0.0,0.0,0.0,0.0,0.0,0.0,0.0,0.0,0.0,0.0,0.0,-2.1638,-2.1316,-2.3179,-2.4097,-2.3838,-2.2865,-2.2104,0.0,0.0,0.0,0.0,0.0,0.0,0.0,0.0,0.0,0.0,0.0,0.0,0.0,0.0,0.0,0.0,0.0,0.0,0.0,0.0,0.0,0.0,0.0,0.0,0.0,0.0,0.0,0.0,0.0,0.0,0.0,0.0,0.0,0.0,0.0,0.0,0.0,0.0,0.0,0.0,0.0,0.0,0.0,0.0,0.0,0.0,0.0,0.0,-1.0968,0.0,0.0,0.0,0.0,0.0,0.0,0.0,0.0,0.0,0.0,0.0,0.0,0.0,0.0,0.0,0.0,0.0,0.0,0.0,0.0,0.0,0.0,0.0,0.0,0.0,0.0,0.0,0.0,0.0,0.0,0.0,0.0,0.0,0.0,0.0,0.0,0.0,0.0,0.0,0.0,0.0,0.0,0.0,0.0,0.0,0.0,0.0,0.0,0.0,0.0,0.0,0.0,0.0,0.0,0.0,0.0,0.0,0.0,0.0,-2.146,-2.1607,-2.3138,-2.3976,-2.3919,-2.2407,-2.1883,0.0,0.0,0.0,0.0,0.0,0.0,0.0,0.0,0.0,0.0,0.0,0.0,0.0,0.0,0.0,0.0,0.0,0.0,0.0,0.0,0.0,0.0,0.0,0.0,0.0,0.0,0.0,0.0,0.0,0.0,0.0,0.0,0.0,0.0,0.0,0.0,0.0,0.0,0.0,0.0,0.0,0.0,0.0,0.0,0.0,0.0,0.0,0.0,0.0,0.0,0.0,0.0,0.0,0.0,0.0,0.0,0.0,0.0,0.0,0.0,0.0,0.0,0.0,0.0,0.0,0.0,0.0,0.0,0.0,0.0,0.0,0.0,0.0,0.0,0.0,0.0,0.0,0.0,0.0,0.0,0.0,0.0,0.0,0.0,0.0,0.0,0.0,0.0,0.0,0.0,0.0,0.0,0.0,0.0,0.0,0.0,0.0,0.0,0.0,0.0,0.0,0.0,0.0,0.0,0.0,0.0,0.0,-2.1421,-2.1514,-2.1753,-2.3075,-2.3756,-2.3674,-2.1846,-2.1649,-2.3302,0.0,0.0,0.0,0.0,0.0,0.0,0.0,0.0,0.0,0.0,0.0,0.0,0.0,0.0,0.0,0.0,0.0,0.0,0.0,0.0,0.0,0.0,0.0,0.0,0.0,0.0,0.0,0.0,0.0,0.0,0.0,0.0,0.0,0.0,0.0,0.0,0.0,0.0,-1.173,-1.1912,0.0,0.0,0.0,0.0,0.0,0.0,0.0,0.0,-1.2146,0.0,0.0,0.0,0.0,0.0,0.0,0.0,0.0,0.0,0.0,0.0,0.0,0.0,0.0,0.0,0.0,0.0,0.0,0.0,0.0,0.0,0.0,0.0,0.0,0.0,0.0,0.0,0.0,0.0,0.0,0.0,0.0,0.0,0.0,0.0,0.0,0.0,0.0,0.0,0.0,0.0,0.0,0.0,0.0,0.0,0.0,0.0,0.0,0.0,0.0,0.0,0.0,0.0,0.0,0.0,0.0,-2.146,-2.127,-2.1691,-2.2722,-2.3656,-2.3996,-2.3656,-2.1974,-2.1779,-2.3213,0.0,0.0,0.0,0.0,0.0,0.0,0.0,0.0,0.0,0.0,0.0,0.0,0.0,0.0,0.0,0.0,0.0,0.0,0.0,0.0,0.0,0.0,0.0,0.0,0.0,0.0,0.0,0.0,0.0,0.0,0.0,0.0,0.0,0.0,0.0,0.0,0.0,0.0,0.0,-1.2117,-1.2287,0.0,0.0,0.0,0.0,0.0,0.0,0.0,0.0,-1.2856,0.0,0.0,0.0,0.0,0.0,0.0,0.0,0.0,0.0,0.0,0.0,0.0,0.0,0.0,0.0,0.0,0.0,0.0,0.0,0.0,0.0,0.0,0.0,0.0,0.0,0.0,0.0,0.0,0.0,0.0,0.0,0.0,0.0,0.0,0.0,0.0,0.0,0.0,0.0,0.0,0.0,0.0,0.0,0.0,0.0,0.0,0.0,0.0,0.0,0.0,0.0,0.0,0.0,0.0,0.0,-2.1041,-2.0402,-2.0697,-2.2117,-2.3141,-2.343,-2.2851,-2.1374,-2.1231,0.0,0.0,0.0,0.0,0.0,0.0,0.0,0.0,0.0,0.0,0.0,0.0,0.0,0.0,0.0,0.0,0.0,0.0,0.0,0.0,0.0,0.0,0.0,0.0,0.0,0.0,0.0,0.0,0.0,0.0,0.0,0.0,0.0,0.0,0.0,0.0,0.0,0.0,0.0,0.0,-1.2747,-1.2983,-1.2942,0.0,0.0,0.0,0.0,0.0,0.0,-1.395,-1.3672,0.0,0.0,0.0,0.0,0.0,0.0,0.0,0.0,0.0,0.0,0.0,0.0,0.0,0.0,0.0,0.0,0.0,0.0,0.0,0.0,0.0,0.0,0.0,0.0,0.0,0.0,0.0,0.0,0.0,0.0,0.0,0.0,0.0,0.0,0.0,0.0,0.0,0.0,0.0,0.0,0.0,0.0,0.0,0.0,0.0,0.0,0.0,0.0,0.0,0.0,0.0,0.0,0.0,0.0,0.0,-2.0727,-1.9678,-1.9758,-2.1132,-2.2196,-2.245,-2.1866,-2.0674,-2.0584,0.0,0.0,0.0,0.0,0.0,0.0,0.0,0.0,0.0,0.0,0.0,0.0,0.0,0.0,0.0,0.0,0.0,0.0,0.0,0.0,0.0,0.0,0.0,0.0,0.0,0.0,0.0,0.0,0.0,0.0,0.0,0.0,0.0,0.0,0.0,0.0,0.0,0.0,0.0,0.0,0.0,-1.3831,-1.3784,-1.4313,0.0,0.0,0.0,0.0,-1.5425,-1.4859,0.0,0.0,0.0,0.0,0.0,0.0,0.0,0.0,0.0,0.0,0.0,0.0,0.0,0.0,0.0,0.0,0.0,0.0,0.0,0.0,0.0,0.0,0.0,0.0,0.0,0.0,0.0,0.0,0.0,0.0,0.0,0.0,0.0,0.0,0.0,0.0,0.0,0.0,0.0,0.0,0.0,0.0,0.0,0.0,0.0,0.0,0.0,0.0,0.0,0.0,0.0,0.0,0.0,0.0,0.0,0.0,-2.0741,-1.9847,-1.9681,-2.0336,-2.0934,-2.1203,-2.1033,-2.0139,-2.0319,0.0,0.0,0.0,0.0,0.0,0.0,0.0,0.0,0.0,0.0,0.0,0.0,0.0,0.0,0.0,0.0,0.0,0.0,0.0,0.0,0.0,0.0,0.0,0.0,0.0,0.0,0.0,0.0,0.0,0.0,0.0,0.0,0.0,0.0,0.0,0.0,0.0,0.0,0.0,0.0,0.0,-1.4709,-1.5558,-1.5713,-1.6059,0.0,0.0,-1.6435,-1.634,-1.6273,0.0,0.0,0.0,0.0,0.0,0.0,0.0,0.0,0.0,0.0,0.0,0.0,0.0,0.0,0.0,0.0,0.0,0.0,0.0,0.0,0.0,0.0,0.0,0.0,0.0,0.0,0.0,0.0,0.0,0.0,0.0,0.0,0.0,0.0,0.0,0.0,0.0,0.0,0.0,0.0,0.0,0.0,0.0,0.0,0.0,0.0,0.0,0.0,0.0,0.0,0.0,0.0,0.0,0.0,0.0,-1.9805,-2.0285,-1.9304,-1.909,-1.9734,-2.0371,-2.0499,-2.0043,-1.9968,-2.0281,0.0,0.0,0.0,0.0,0.0,0.0,0.0,0.0,0.0,0.0,0.0,0.0,0.0,0.0,0.0,0.0,0.0,0.0,0.0,0.0,0.0,0.0,0.0,0.0,0.0,0.0,0.0,0.0,0.0,0.0,0.0,0.0,0.0,0.0,0.0,0.0,0.0,0.0,0.0,0.0,0.0,0.0,-1.5466,-1.5732,0.0,0.0,0.0,-1.6876,-1.7043,0.0,0.0,0.0,0.0,0.0,0.0,0.0,0.0,0.0,0.0,0.0,0.0,0.0,0.0,0.0,0.0,0.0,0.0,0.0,0.0,0.0,0.0,0.0,0.0,0.0,0.0,0.0,0.0,0.0,0.0,0.0,0.0,0.0,0.0,0.0,0.0,0.0,0.0,0.0,0.0,0.0,0.0,0.0,0.0,0.0,0.0,0.0,0.0,0.0,0.0,0.0,0.0,0.0,0.0,0.0,0.0,0.0,-1.9968,-1.8623,-1.8295,-1.9065,-1.9399,-1.9416,-1.9117,-1.9241,0.0,0.0,0.0,0.0,0.0,0.0,0.0,0.0,0.0,0.0,0.0,0.0,0.0,0.0,0.0,0.0,0.0,0.0,0.0,0.0,0.0,0.0,0.0,0.0,0.0,0.0,0.0,-1.3252,0.0,0.0,0.0,0.0,0.0,0.0,0.0,0.0,0.0,0.0,0.0,0.0,0.0,0.0,-1.6471,-1.552,-1.5763,-1.5922,0.0,0.0,-1.6853,-1.7467,-1.7053,-1.6862,0.0,0.0,0.0,0.0,0.0,0.0,0.0,0.0,0.0,0.0,0.0,0.0,0.0,0.0,0.0,0.0,0.0,0.0,0.0,0.0,0.0,0.0,0.0,0.0,0.0,0.0,0.0,0.0,0.0,0.0,0.0,0.0,0.0,0.0,0.0,0.0,0.0,0.0,0.0,0.0,0.0,0.0,0.0,0.0,0.0,0.0,0.0,0.0,0.0,0.0,0.0,0.0,0.0,0.0,0.0,-1.99,-1.7901,-1.7304,-1.8222,-1.7428,-1.7394,-1.8222,-1.7466,-1.808,0.0,0.0,0.0,0.0,0.0,0.0,0.0,0.0,0.0,0.0,0.0,0.0,0.0,0.0,0.0,0.0,0.0,0.0,0.0,0.0,0.0,0.0,0.0,0.0,0.0,0.0,0.0,0.0,0.0,0.0,0.0,0.0,0.0,0.0,0.0,0.0,0.0,0.0,0.0,0.0,0.0,-1.7603,-1.6558,-1.6264,-1.6115,0.0,0.0,-1.6319,-1.7574,-1.7422,-1.7542,-1.8687,0.0,0.0,0.0,0.0,0.0,0.0,0.0,0.0,0.0,0.0,0.0,0.0,0.0,0.0,0.0,0.0,0.0,0.0,0.0,0.0,0.0,0.0,0.0,0.0,0.0,0.0,0.0,0.0,0.0,0.0,0.0,0.0,0.0,0.0,0.0,0.0,0.0,0.0,0.0,0.0,0.0,0.0,0.0,0.0,0.0,0.0,0.0,0.0,0.0,0.0,0.0,0.0,0.0,-1.9739,-1.9968,-1.8268,-1.7567,-1.7915,-1.7567,-1.755,-1.7949,-1.8075,-1.8807,0.0,0.0,0.0,0.0,0.0,0.0,0.0,0.0,0.0,0.0,0.0,0.0,0.0,0.0,0.0,0.0,0.0,0.0,0.0,0.0,0.0,0.0,0.0,0.0,0.0,0.0,0.0,0.0,-1.5394,-1.5637,-1.6121,0.0,0.0,0.0,0.0,0.0,0.0,0.0,0.0,0.0,0.0,-1.7739,-1.7245,-1.6483,0.0,0.0,-1.6336,-1.661,-1.749,-1.7902,-1.8302,-1.8732,-1.8873,0.0,0.0,0.0,0.0,0.0,0.0,0.0,0.0,0.0,0.0,0.0,0.0,0.0,0.0,0.0,0.0,0.0,0.0,0.0,0.0,0.0,0.0,0.0,0.0,0.0,0.0,0.0,0.0,0.0,0.0,0.0,0.0,0.0,0.0,0.0,0.0,0.0,0.0,0.0,0.0,0.0,0.0,0.0,0.0,0.0,0.0,0.0,0.0,0.0,0.0,0.0,0.0,-1.9985,-1.9985,-1.8549,-1.7789,-1.7789,-1.7591,-1.7574,-1.7811,-1.811,-1.8784,0.0,0.0,0.0,0.0,0.0,0.0,0.0,0.0,0.0,0.0,0.0,0.0,0.0,0.0,0.0,0.0,0.0,0.0,0.0,0.0,0.0,0.0,0.0,0.0,0.0,0.0,0.0,0.0,-1.6848,-1.7201,-1.7341,0.0,0.0,0.0,0.0,0.0,0.0,0.0,0.0,0.0,0.0,-1.8041,-1.7609,-1.6992,-1.6672,-1.7037,-1.6934,-1.7183,-1.8162,-1.8325,-1.8501,-1.9051,0.0,0.0,0.0,0.0,0.0,0.0,0.0,0.0,0.0,0.0,0.0,0.0,0.0,0.0,0.0,0.0,0.0,0.0,0.0,0.0,0.0,0.0,0.0,0.0,0.0,0.0,0.0,0.0,0.0,0.0,-1.8576,0.0,0.0,0.0,0.0,0.0,0.0,0.0,0.0,0.0,0.0,0.0,0.0,0.0,0.0,0.0,0.0,0.0,0.0,0.0,0.0,0.0,0.0,-2.0018,-2.0002,-1.8566,-1.7805,-1.7828,-1.7101,-1.7122,-1.776,-1.7156,-1.7483,-1.8994,0.0,0.0,0.0,0.0,0.0,0.0,0.0,0.0,0.0,0.0,0.0,0.0,0.0,0.0,0.0,0.0,0.0,0.0,0.0,0.0,0.0,0.0,0.0,0.0,0.0,0.0,-1.6729,-1.7463,-1.8218,0.0,0.0,0.0,0.0,0.0,0.0,0.0,0.0,0.0,0.0,-1.9295,-1.8687,-1.7665,-1.7906,-1.8087,-1.7945,-1.762,-1.8,-1.9738,-1.8607,-1.8059,0.0,0.0,0.0,0.0,0.0,0.0,0.0,0.0,0.0,0.0,0.0,0.0,0.0,0.0,0.0,0.0,0.0,0.0,0.0,0.0,0.0,0.0,0.0,0.0,0.0,0.0,0.0,-2.0206,-2.0613,0.0,0.0,0.0,0.0,0.0,0.0,0.0,0.0,0.0,0.0,0.0,-2.2509,-2.3038,0.0,0.0,0.0,0.0,0.0,0.0,0.0,0.0,0.0,0.0,0.0,0.0,-2.0814,-2.0781,-1.9324,-1.8538,-1.8521,-1.7811,-1.7557,-1.7794,-1.7557,-1.799,-1.9166,0.0,0.0,0.0,0.0,0.0,0.0,0.0,0.0,0.0,0.0,0.0,0.0,0.0,0.0,0.0,0.0,0.0,0.0,0.0,0.0,0.0,0.0,0.0,0.0,0.0,-1.9081,0.0,0.0,0.0,0.0,0.0,0.0,0.0,0.0,0.0,0.0,0.0,-2.0279,-1.9555,-1.9028,-1.8592,-1.8251,-1.7737,-1.749,0.0,0.0,0.0,0.0,0.0,0.0,0.0,0.0,0.0,0.0,0.0,0.0,0.0,0.0,-2.0711,-1.9273,-1.9332,-1.9631,-1.9631,0.0,0.0,0.0,0.0,0.0,0.0,0.0,0.0,0.0,0.0,0.0,0.0,0.0,0.0,-2.1293,0.0,-2.1728,0.0,0.0,0.0,0.0,0.0,0.0,0.0,0.0,-2.3843,-2.4281,-2.4065,-2.4394,-2.4543,0.0,-2.4052,-2.4127,0.0,0.0,0.0,0.0,0.0,0.0,0.0,0.0,-2.1593,-2.1596,-2.0086,-1.9164,-1.8894,-1.8437,-1.8065,-1.7805,-1.7789,-1.8121,-1.8761,-1.9487,-2.0263,0.0,0.0,0.0,0.0,0.0,0.0,0.0,0.0,0.0,0.0,0.0,0.0,0.0,0.0,0.0,0.0,0.0,0.0,0.0,0.0,0.0,0.0,0.0,-2.0404,0.0,0.0,0.0,0.0,0.0,0.0,0.0,0.0,0.0,-2.0339,-2.0313,-2.0271,-1.99,-1.9074,-1.8673,-1.9033,0.0,0.0,0.0,0.0,0.0,0.0,0.0,-1.9815,-1.973,-2.0574,-2.1244,-2.1274,-2.1691,-2.1812,-2.124,0.0,0.0,-1.9211,-1.9321,-1.9596,-1.9561,-2.0014,-2.0271,-2.0007,-1.975,-1.9647,0.0,0.0,0.0,0.0,0.0,0.0,0.0,0.0,-1.9967,-2.097,0.0,-2.1364,0.0,0.0,0.0,0.0,0.0,-2.3429,0.0,0.0,-2.4295,-2.4968,-2.5612,-2.6303,-2.6674,-2.6691,-2.6556,-2.6184,-2.5473,-2.3393,0.0,0.0,0.0,0.0,0.0,0.0,-2.2327,-2.226,-2.0795,-1.9705,-1.9029,-1.8961,-1.8589,-1.7873,-1.7805,-1.7811,-1.7845,-1.8743,-1.9295,-1.9381,-2.1061,0.0,0.0,0.0,0.0,0.0,0.0,0.0,0.0,0.0,0.0,0.0,0.0,0.0,0.0,0.0,0.0,0.0,0.0,0.0,0.0,-2.1804,0.0,0.0,0.0,0.0,0.0,0.0,0.0,0.0,0.0,0.0,-2.1264,-2.0262,-1.9855,-2.0622,0.0,0.0,0.0,0.0,-1.9144,-1.9252,-1.9559,-2.0111,-2.1156,-2.0458,-2.0099,-2.1053,0.0,0.0,-2.0816,-2.1059,-2.1044,-2.0536,-1.9846,-1.9435,-2.0246,-2.0297,-2.0332,-2.0373,-2.0384,-2.0718,-2.1263,-2.0732,-2.0508,-2.6262,0.0,0.0,0.0,0.0,-2.3984,-2.4205,-2.4426,-2.4492,-2.4734,-2.4982,-2.3752,0.0,0.0,0.0,0.0,0.0,0.0,-2.6185,-2.578,-2.708,-2.752,-2.7147,-2.6843,-2.6708,-2.6657,-2.5625,-2.5048,-2.4763,-2.3646,-2.349,-2.4232,0.0,0.0,0.0,0.0,-2.2863,-2.2332,-2.1373,-2.0754,-2.0534,-1.9993,-1.935,-1.8606,-1.8082,-1.7789,-1.7789,-1.8082,-1.8813,-2.0027,-2.0587,0.0,0.0,0.0,0.0,0.0,0.0,0.0,0.0,0.0,0.0,0.0,0.0,0.0,0.0,0.0,0.0,0.0,0.0,0.0,-2.2895,-2.338,-2.3425,0.0,0.0,0.0,0.0,0.0,0.0,0.0,0.0,0.0,-2.2553,-2.1773,-2.125,0.0,0.0,-1.9957,-2.1369,-2.0201,-1.9167,-1.9161,-1.9192,0.0,0.0,-2.0357,-2.0772,-2.056,-2.0628,-2.1032,-2.1902,-2.2,-2.1735,-2.1079,-2.079,-2.0357,-1.9522,-1.9352,-1.9375,-1.9393,-1.9777,-2.0203,-2.0365,-2.0246,-2.0195,-2.9555,-2.6847,-2.634,-2.5946,-2.5697,-2.5918,-2.6059,-2.6168,-2.6193,-2.6306,-2.6432,-2.5548,-2.5654,-2.6426,-2.5506,0.0,0.0,0.0,-2.7518,-2.7147,-2.8166,-2.8544,-2.8306,-2.7632,-2.7193,-2.6899,-2.5912,-2.518,-2.461,-2.4382,-2.434,-2.4506,0.0,0.0,-2.3905,-2.3575,-2.3202,-2.279,-2.205,-2.1481,-2.1204,-2.0416,-1.9655,-1.891,-1.8471,-1.8099,-1.7805,-1.7789,-1.8421,-1.9726,-2.0151,-2.1018,0.0,0.0,0.0,0.0,0.0,0.0,0.0,0.0,0.0,0.0,0.0,-2.226,0.0,0.0,0.0,0.0,-2.2693,-2.3239,-2.3441,-2.4006,0.0,0.0,0.0,0.0,0.0,0.0,0.0,-2.3599,-2.3474,-2.3309,-2.3051,-2.2482,-2.2081,-2.2026,-2.0996,-2.0661,-2.1834,0.0,-1.9542,-1.9536,-1.9512,-1.9566,-1.9913,-2.0671,-2.1198,-2.1079,-2.1349,-2.179,-2.2286,-2.2349,-2.1921,-2.1025,-2.072,-2.023,-1.8741,-1.8691,-1.8792,-1.8521,-1.8826,-1.9275,-1.9849,-1.9985,-2.0137,-3.1915,-3.0717,-2.9564,-2.8218,-2.6856,-2.6886,-2.6753,-2.6535,-2.6178,-2.6451,-2.7241,-2.6777,-2.713,-2.8132,-2.8622,0.0,-2.7702,-2.7784,-2.7868,-2.7832,-2.8086,-2.8582,-2.919,-2.8501,-2.7918,-2.7304,-2.6925,-2.6147,-2.4954,-2.533,-2.5238,-2.4644,-2.3866,-2.3816,-2.4438,-2.3816,-2.346,-2.3393,-2.2733,-2.204,-2.1305,-2.0517,-1.9773,-1.9113,-1.8961,-1.8589,-1.7929,-1.7845,-1.8166,-1.8961,-1.9762,-2.0749,-2.1942,0.0,0.0,0.0,0.0,0.0,0.0,0.0,0.0,0.0,0.0,0.0,0.0,0.0,0.0,0.0,-2.4182,0.0,-2.3551,-2.3981,0.0,0.0,0.0,-2.4478,-2.4372,-2.4321,-2.4247,-2.4192,0.0,0.0,-2.305,-2.2707,-2.2506,-2.2506,-2.1619,-2.1167,-2.1801,-2.0948,-2.0212,-2.0279,-2.0279,-2.0551,-2.1097,-2.13,-2.1552,-2.2057,-2.226,-2.2175,-2.226,-2.209,-2.1515,-2.0424,-2.0069,-1.963,-1.8251,-1.8589,-1.8707,-1.8183,-1.8166,-1.8599,-1.9951,-2.0306,-2.0694,-3.3583,-3.3514,-3.32,-3.1465,-2.8936,-2.937,-2.9274,-2.8839,-2.9184,-2.8888,-2.8074,-2.7349,-2.6812,-2.6455,-2.7114,-2.7271,-2.7156,-2.785,-2.8174,-2.8223,-2.8791,-2.9182,-2.9263,-2.8105,-2.7454,-2.7214,-2.6133,-2.5642,-2.5681,-2.5241,-2.538,-2.6082,-2.4864,-2.4337,-2.4506,-2.4354,-2.3951,-2.3393,-2.3224,-2.2784,-2.2057,-2.1312,-2.0805,-2.0636,-1.9502,-1.8809,-1.8623,-1.8099,-1.838,-1.9664,-1.9942,-2.0849,-2.2593,-2.3007,0.0,0.0,0.0,0.0,0.0,0.0,0.0,0.0,0.0,-2.3926,-2.386,0.0,-2.4213,0.0,-2.4428,-2.4465,-2.441,-2.4329,0.0,0.0,-2.3968,-2.3999,-2.4019,-2.4056,-2.4075,-2.4114,-2.4094,-2.3943,-2.3562,-2.3401,-2.3146,-2.2716,-2.1947,-2.1934,-2.3249,-2.2057,-2.1011,-2.1037,-2.0985,-2.1027,-2.1247,-2.1712,-2.2073,-2.2276,-2.1854,-2.1651,-2.2226,-2.1329,-2.0576,-2.0788,-2.0399,-1.9883,-1.9478,-1.9198,-1.9096,-1.941,-1.9976,-2.0653,-2.1583,-2.1708,-2.1843,-3.439,-3.4906,-3.4607,-3.326,-3.1315,-3.139,-3.1046,-3.0477,-3.0806,-3.0328,-2.9322,-2.8836,-2.837,-2.7858,-2.8271,-2.8271,-2.8045,-2.8549,-2.877,-2.8802,-2.8914,-2.9012,-2.8965,-2.7936,-2.7285,-2.6958,-2.6114,-2.5863,-2.6016,-2.5226,-2.5295,-2.6167,-2.505,-2.4523,-2.4523,-2.4523,-2.4441,-2.4374,-2.3731,-2.3054,-2.2327,-2.1887,-2.1712,-2.1715,-2.0899,-2.0425,-2.0459,-2.0035,-2.0408,-2.166,-2.1738,-2.2488,-2.4106,-2.3336,-2.3241,0.0,0.0,0.0,0.0,0.0,0.0,0.0,0.0,0.0,0.0,0.0,-2.4391,-2.4441,-2.4458,-2.4476,-2.453,-2.432,-2.4192,-2.4191,-2.4075,-2.3996,-2.4016,-2.4056,-2.4094,-2.4151,-2.4151,-2.4054,-2.3735,-2.3544,-2.3236,-2.2754,-2.2255,-2.2245,-2.3003,-2.2351,-2.1739,-2.1722,-2.1712,-2.1684,-2.1684,-2.204,-2.2327,-2.2293,-2.1955,-2.1837,-2.2209,-2.1346,-2.0585,-2.0602,-2.0027,-1.9512,-1.9502,-1.9215,-1.9232,-2.0264,-2.0873,-2.1339,-2.1718,-2.1803,-2.187,-3.4461,-3.5459,-3.4846,-3.4188,-3.344,-3.2886,-3.2213,-3.1467,-3.1467,-3.1135,-3.0518,-3.0494,-3.0464,-3.0402,-3.0307,-2.9987,-2.9414,-2.9273,-2.918,-2.9134,-2.8638,-2.8367,-2.8367,-2.7769,-2.7141,-2.6606,-2.6398,-2.6299,-2.6158,-2.5382,-2.5292,-2.583,-2.5135,-2.4845,-2.4898,-2.4729,-2.4898,-2.5439,-2.4188,-2.3241,-2.2615,-2.2682,-2.2745,-2.2796,-2.2587,-2.2485,-2.2524,-2.2383,-2.2801,-2.3764,-2.3826,-2.4392,-2.5533,-2.3079,-2.2583,0.0,-2.2405,0.0,0.0,0.0,0.0,0.0,0.0,0.0,0.0,-2.4211,-2.4229,-2.4391,-2.4373,-2.4356,-2.4284,-2.419,-2.4133,-2.4208,-2.419,-2.419,-2.419,-2.419,-2.419,-2.419,-2.417,-2.3996,-2.3671,-2.3346,-2.3021,-2.2686,-2.2429,-2.2304,-2.2327,-2.231,-2.226,-2.2327,-2.2327,-2.2209,-2.2243,-2.2293,-2.2327,-2.2282,-2.1961,-2.209,-2.2276,-2.1465,-2.0703,-2.0264,-1.9655,-1.9164,-1.9147,-1.9147,-1.957,-2.1025,-2.1262,-2.1271,-2.1397,-2.1465,-2.1532,-3.3905,-3.5489,-3.537,-3.4607,-3.3499,-3.3365,-3.2632,-3.1467,-3.1467,-3.115,-3.0492,-3.0463,-3.0472,-3.0425,-2.9915,-2.9604,-2.9432,-2.8434,-2.7944,-2.7944,-2.7795,-2.776,-2.773,-2.707,-2.6707,-2.6557,-2.6023,-2.5905,-2.6174,-2.6038,-2.6449,-2.7333,-2.664,-2.6573,-2.7097,0.0,0.0,0.0,-2.4408,-2.4205,-2.4103,-2.4678,-2.4983,-2.498,-2.3875,0.0,-2.3185,-2.2683,-2.2756,-2.3545,-2.3579,0.0,0.0,0.0,0.0,0.0,0.0,0.0,0.0,0.0,0.0,0.0,-2.4054,-2.4094,-2.4057,-2.4056,-2.4153,-2.4357,-2.4266,-2.4171,-2.419,-2.4209,-2.4208,-2.4208,-2.419,-2.419,-2.419,-2.419,-2.419,-2.419,-2.3976,-2.3671,-2.3346,-2.2996,-2.2704,-2.2453,-2.2321,-2.231,-2.2327,-2.2327,-2.2327,-2.2327,-2.2327,-2.2327,-2.2327,-2.2327,-2.2327,-2.2192,-2.1167,-2.1049,-2.191,-2.067,-1.9925,-2.0619,-2.0331,-2.001,-2.0568,-2.0247,-2.0255,-2.1786,-2.16,-2.138,-2.1955,-2.209,-2.2012,-3.3463,0.0,-3.4922,-3.4592,0.0,-3.329,-3.2647,-3.2003,-3.1616,-3.1273,-3.1001,-3.0971,-3.0654,-3.0053,-2.9718,-2.9185,-2.853,-2.7926,-2.756,-2.756,-2.756,-2.756,-2.756,-2.7215,-2.7115,-2.7051,-2.6422,-2.6489,-2.7195,-2.6901,-2.7108,-2.7789,-2.7435,-2.708,-2.6691,-2.5253,-2.434,-2.3951,-2.3951,-2.3765,-2.3444,-2.3782,-2.4154,-2.4537,-2.3841,0.0,0.0,0.0,0.0,0.0,0.0,0.0,0.0,0.0,0.0,-2.4167,-2.4328,-2.4312,-2.4091,-2.4113,-2.4151,-2.4112,-2.4132,-2.4132,-2.4074,-2.4074,-2.417,-2.4284,-2.4209,-2.4152,-2.4208,-2.419,-2.419,-2.419,-2.4054,-2.3937,-2.3937,-2.3795,-2.3692,-2.3692,-2.3548,-2.3323,-2.2996,-2.2805,-2.2599,-2.2349,-2.2327,-2.2327,-2.2327,-2.2327,-2.2327,-2.2327,-2.2327,-2.2327,-2.2327,-2.2327,-2.2327,-2.2164,-2.164,-2.1488,-2.2158,-2.1059,-2.034,-2.1,-2.0551,-2.0281,-2.0957,-2.0856,-2.0887,-2.1652,-2.1657,-2.142,-2.1685,-2.1811,-2.184,-3.3171,-3.4052,-3.446,-3.4577,-3.4382,-3.332,-3.2736,-3.2467,0.0,0.0,0.0,-3.1467,-3.0941,-2.9939,-2.9804,-2.9086,-2.7949,-2.7799,-2.7694,-2.756,-2.756,-2.756,-2.756,-2.756,-2.756,-2.7595,-2.7154,-2.7411,-2.8259,-2.7843,-2.766,-2.7786,-2.7789,-2.7029,-2.5625,-2.4255,-2.3579,-2.3579,-2.3579,-2.3291,-2.2716,-2.2818,-2.3202,-2.3854,-2.3706,-2.3926,-2.4564,-2.4537,-2.4628,-2.4895,-2.4925,-2.4953,-2.504,-2.4533,-2.4282,-2.4308,-2.3817,-2.3631,-2.3899,-2.4054,-2.4113,-2.4113,-2.4113,-2.4094,-2.4113,-2.417,-2.419,-2.419,-2.419,-2.419,-2.419,-2.4133,-2.4113,-2.4094,-2.3816,-2.361,-2.3588,-2.3369,-2.3236,-2.3189,-2.3165,-2.3021,-2.2772,-2.266,-2.2546,-2.2349,-2.2327,-2.2327,-2.2327,-2.2327,-2.2327,-2.2327,-2.2327,-2.2327,-2.2327,-2.2327,-2.2327,-2.231,-2.2158,-2.2141,-2.2175,-2.1684,-2.1295,-2.1414,-2.0839,-2.0822,-2.1245,-2.1326,-2.1357,-2.1556,-2.1538,-2.1368,-2.1007,-2.115,-2.1228,-3.3171,-3.4081,-3.4963,-3.5011,-3.4472,-3.4277,-3.3559,-3.2482,-3.175,-3.1467,-3.1467,-3.1467,-3.1377,-3.121,-3.0642,-2.9983,-2.928,-2.8712,-2.8128,-2.7575,-2.756,-2.756,-2.756,-2.756,-2.756,-2.761,-2.8033,-2.8233,-2.8355,-2.8721,-2.8578,-2.7923,-2.7789,-2.7063,-2.5659,-2.4763,-2.4371,-2.4354,-2.4354,-2.432,-2.4218,-2.4797,-2.5186,-2.5253,-2.4689,-2.4448,-2.4506,-2.455,-2.4581,-2.4658,-2.4658,-2.4398,-2.3824,-2.395,-2.3728,-2.3049,-2.3146,-2.3282,-2.3346,-2.3628,-2.3774,-2.3756,-2.3774,-2.3896,-2.4151,-2.4208,-2.419,-2.419,-2.417,-2.419,-2.419,-2.3937,-2.3774,-2.3735,-2.3459,-2.3259,-2.3259,-2.3212,-2.3141,-2.3141,-2.2947,-2.2772,-2.2686,-2.25,-2.2377,-2.231,-2.2327,-2.2327,-2.2327,-2.2327,-2.2327,-2.2327,-2.2327,-2.2327,-2.2327,-2.2327,-2.2327,-2.2327,-2.182,-2.1674,-2.2243,-2.1708,-2.1454,-2.2023,-2.1877,-2.1955,-2.209,-2.1807,-2.1586,-2.1552,-2.1306,-2.0959,-2.0483,-2.0483,-2.0467,-3.289,-3.3394,-3.4854,-3.5325,-3.4996,-3.4637,-3.3724,-3.2512,-3.2165,-3.1835,-3.1539,-3.1467,-3.1273,-3.0956,-3.0642,-3.0163,-2.9579,-2.9265,-2.8771,-2.8188,-2.8502,-2.8472,-2.8143,-2.8113,-2.8113,-2.818,-2.8774,-2.9014,-2.9006,-2.9907,-2.9935,-2.9056,-2.8212,-2.7451,-2.6776,-2.5676,-2.5084,-2.5067,-2.4306,-2.39,-2.39,-2.3849,-2.3816,-2.3833,-2.349,-2.3338,-2.3308,-2.3321,-2.3367,-2.3367,-2.335,-2.3197,-2.2875,-2.2982,-2.2959,-2.273,-2.2848,-2.3021,-2.3189,-2.3346,-2.3414,-2.3414,-2.3414,-2.35,-2.3631,-2.3816,-2.3917,-2.3917,-2.3774,-2.3735,-2.3878,-2.3628,-2.3414,-2.3414,-2.3117,-2.2947,-2.2923,-2.2781,-2.2695,-2.2712,-2.2581,-2.2473,-2.249,-2.2388,-2.231,-2.2327,-2.2327,-2.2327,-2.2327,-2.2327,-2.2327,-2.2327,-2.2327,-2.2327,-2.2327,-2.2327,-2.2327,-2.2327,-2.1838,-2.1725,-2.2175,-2.1782,-2.1742,-2.2153,-2.2327,-2.2327,-2.2299,-2.1928,-2.1598,-2.1275,-2.091,-2.0483,-2.0089,-1.9965,-1.9965,-3.2717,-3.2749,-3.4706,-3.5489,-3.5444,-3.4771,-3.3799,-3.2736,-3.2538,-3.2131,-3.1554,-3.1467,-3.124,-3.0761,-3.0731,-3.0402,-2.9849,-2.9789,-2.943,-2.8906,-2.9355,-2.931,-2.8861,-2.8816,-2.8816,-2.8922,-2.95,-2.9734,-2.9798,-3.0815,-3.095,-3.0032,-2.8738,-2.8078,-2.8026,-2.6759,-2.6099,-2.6015,-2.4644,-2.3731,-2.3393,-2.2682,-2.2327,-2.2327,-2.2327,-2.2327,-2.2327,-2.2327,-2.2327,-2.2327,-2.2327,-2.2327,-2.2327,-2.2327,-2.2388,-2.259,-2.2625,-2.2738,-2.3045,-2.3021,-2.3038,-2.3093,-2.3093,-2.3069,-2.3038,-2.3294,-2.3504,-2.3544,-2.3369,-2.3305,-2.3482,-2.3282,-2.3093,-2.3069,-2.2815,-2.2625,-2.2599,-2.2426,-2.2327,-2.2327,-2.2327,-2.231,-2.2327,-2.2327,-2.2327,-2.2327,-2.2327,-2.2327,-2.2327,-2.2327,-2.2327,-2.2327,-2.2327,-2.2327,-2.2327,-2.2327,-2.2327,-2.2327,-2.2015,-2.1998,-2.2163,-2.2003,-2.1928,-2.2254,-2.2327,-2.2327,-2.2282,-2.184,-2.1415,-2.1055,-2.0599,-2.007,-1.9818,-1.9762,-1.9711,-3.3018,-3.2932,-3.4639,-3.5489,-3.5415,-3.4786,-3.4083,-3.3411,-3.2808,-3.2131,-3.1614,-3.1467,-3.1509,-3.1392,-3.1405,-3.1046,-3.0432,-3.0417,-3.0088,-2.9535,-2.9549,-2.9549,-2.9505,-2.949,-2.949,-2.9582,-3.0118,-3.0437,-3.0451,-3.1043,-3.0958,-3.0082,-2.9279,-2.889,-2.8789,-2.8044,-2.757,-2.7553,-2.6167,-2.4746,-2.3444,-2.2682,-2.2327,-2.2327,-2.2327,-2.2327,-2.2327,-2.2327,-2.2327,-2.2327,-2.2327,-2.2327,-2.2327,-2.2327,-2.231,-2.2349,-2.2349,-2.248,-2.2695,-2.2517,-2.2517,-2.2738,-2.2746,-2.2652,-2.247,-2.2652,-2.2923,-2.3141,-2.3206,-2.3165,-2.323,-2.2947,-2.2746,-2.2764,-2.2544,-2.2349,-2.2349,-2.231,-2.2327,-2.2327,-2.2327,-2.2327,-2.2327,-2.2327,-2.2327,-2.2327,-2.2327,-2.2327,-2.2327,-2.2327,-2.2327,-2.2327,-2.2327,-2.2327,-2.2327,-2.2327,-2.2327,-2.2282,-2.2237,-2.2209,-2.2209,-2.2237,-2.2265,-2.2254,-2.2327,-2.2327,-2.2077,-2.1675,-2.1103,-2.0862,-2.0379,-1.9762,-1.9741,-1.9705,-1.9705,-3.228,-3.196,-3.3822,-3.4986,-3.5394,-3.519,-3.4696,-3.41,-3.3819,-3.3291,-3.2632,-3.2299,-3.1865,-3.1524,-3.1467,-3.1375,-3.112,-3.1106,-3.0761,-3.0208,-3.0537,-3.0537,-3.0148,-3.0133,-3.0118,-3.0173,-3.086,-3.1134,-3.1275,-3.2048,-3.2362,-3.1945,-3.0886,-3.0294,-3.0209,-2.911,-2.8281,-2.7772,-2.6776,-2.5744,-2.4695,-2.3545,-2.2733,-2.2361,-2.2327,-2.2327,-2.2327,-2.2327,-2.2327,-2.2327,-2.2327,-2.2327,-2.2327,-2.2327,-2.2327,-2.2327,-2.2327,-2.2332,-2.2463,-2.2377,-2.2349,-2.2463,-2.2463,-2.2415,-2.2338,-2.2398,-2.2544,-2.2634,-2.266,-2.2721,-2.2848,-2.2625,-2.2463,-2.2436,-2.2377,-2.2327,-2.2327,-2.2327,-2.2327,-2.2327,-2.2327,-2.2327,-2.2327,-2.2327,-2.2327,-2.2327,-2.2327,-2.2327,-2.2327,-2.2327,-2.2327,-2.2327,-2.2327,-2.2327,-2.2327,-2.2327,-2.231,-2.2237,-2.2032,-2.1928,-2.218,-2.2032,-2.1957,-2.2225,-2.2254,-2.2152,-2.1899,-2.1446,-2.0926,-2.0632,-2.0208,-1.9705,-1.9705,-1.9705,-1.9705,-3.1932,-3.1729,-3.303,-3.4027,-3.4706,-3.4986,-3.4697,-3.4233,-3.4352,-3.4132,-3.3425,-3.2796,-3.2255,-3.1839,-3.1735,-3.1704,-3.1511,-3.1719,-3.1435,-3.0881,-3.133,-3.1287,-3.1061,-3.1061,-3.1165,-3.1384,-3.1642,-3.183,-3.187,-3.2656,-3.3232,-3.3153,-3.2104,-3.1495,-3.1326,-3.0023,-2.9025,-2.8433,-2.752,-2.664,-2.5845,-2.4661,-2.3663,-2.297,-2.2699,-2.2615,-2.2598,-2.2412,-2.2327,-2.2327,-2.2327,-2.2327,-2.2327,-2.2327,-2.2327,-2.2327,-2.2327,-2.2327,-2.2327,-2.2327,-2.2327,-2.2327,-2.2327,-2.2327,-2.2327,-2.2327,-2.2327,-2.231,-2.2327,-2.2398,-2.2527,-2.2426,-2.231,-2.2327,-2.2327,-2.2327,-2.2327,-2.2327,-2.2327,-2.2327,-2.2327,-2.2327,-2.2327,-2.2327,-2.2327,-2.2327,-2.2327,-2.2327,-2.2327,-2.2327,-2.2327,-2.2327,-2.2327,-2.2327,-2.2327,-2.2327,-2.2282,-2.2089,-2.1853,-2.1899,-2.2065,-2.1735,-2.1552,-2.1857,-2.202,-2.1915,-2.1507,-2.1086,-2.0665,-2.0261,-1.9909,-1.9705,-1.9705,-1.9705,-1.9705,-3.2448,-3.2008,-3.2468,-3.2749,-3.282,-3.3739,-3.3763,-3.3485,-3.4177,-3.4129,-3.3543,-3.2852,-3.2495,-3.2527,-3.2527,-3.2123,-3.1601,-3.2198,-3.2123,-3.1539,-3.1511,-3.1825,-3.2407,-3.2437,-3.2706,-3.3006,-3.2556,-3.241,-3.249,-3.256,-3.2847,-3.3339,-3.2696,-3.2297,-3.2053,-3.0835,-3.004,-2.9736,-2.8467,-2.7418,-2.6674,-2.5879,-2.5101,-2.4408,-2.3697,-2.3359,-2.3291,-2.2699,-2.2361,-2.2344,-2.2361,-2.2344,-2.2327,-2.2344,-2.2361,-2.2327,-2.2344,-2.2327,-2.2327,-2.2327,-2.2327,-2.2327,-2.2327,-2.2327,-2.2327,-2.2395,-2.2395,-2.2327,-2.2429,-2.2462,-2.2366,-2.2338,-2.2327,-2.2327,-2.2327,-2.2327,-2.2327,-2.2327,-2.2327,-2.2327,-2.2327,-2.2327,-2.2327,-2.2327,-2.2327,-2.2327,-2.2327,-2.2327,-2.2327,-2.2327,-2.2282,-2.2254,-2.2237,-2.2265,-2.2282,-2.218,-2.2032,-2.1811,-2.1735,-2.1915,-2.1721,-2.1524,-2.1493,-2.1462,-2.1538,-2.143,-2.1086,-2.0649,-2.0261,-1.9945,-1.9818,-1.9705,-1.9705,-1.9705,-1.9705,-3.1746,-3.1483,-3.1629,-3.2379,-3.3533,-3.3876,-3.4249,-3.4661,-3.4976,-3.5051,-3.4711,-3.4065,-3.3767,-3.3769,-3.3769,-3.2946,-3.1719,-3.2647,-3.2796,-3.2273,-3.2587,-3.2916,-3.311,-3.3156,-3.3261,-3.335,-3.2841,-3.2741,-3.3224,-3.3631,-3.4192,-3.4566,-3.4066,-3.3491,-3.2899,-3.2019,-3.1072,-3.0108,-2.9059,-2.818,-2.7418,-2.6674,-2.615,-2.5845,-2.4729,-2.4086,-2.4086,-2.3833,-2.3494,-2.3021,-2.2987,-2.2784,-2.2412,-2.275,-2.2784,-2.2412,-2.275,-2.2801,-2.2412,-2.2327,-2.2327,-2.2327,-2.2327,-2.2327,-2.2395,-2.2699,-2.2818,-2.2581,-2.3241,-2.3342,-2.2513,-2.2327,-2.2327,-2.2327,-2.2327,-2.2327,-2.2327,-2.2327,-2.2327,-2.2327,-2.2327,-2.2327,-2.2327,-2.2327,-2.2327,-2.2327,-2.2327,-2.2327,-2.2327,-2.2327,-2.218,-2.1928,-2.1869,-2.1764,-2.1493,-2.1705,-2.1718,-2.1446,-2.1323,-2.1323,-2.1181,-2.1229,-2.1197,-2.1071,-2.1118,-2.1007,-2.0649,-2.0311,-1.9874,-1.9818,-1.9705,-1.9705,-1.9705,-1.9705,-1.9705,-3.1131,-3.0773,-3.0771,-3.1476,-3.2621,-3.2961,-3.3478,-3.4177,-3.4758,-3.5035,-3.4955,-3.4618,-3.446,-3.4457,-3.4472,-3.3679,-3.2377,-3.3305,-3.3469,-3.2901,-3.329,-3.3604,-3.3769,-3.3802,-3.3922,-3.4025,-3.3457,-3.3362,-3.3626,-3.4284,-3.4941,-3.5509,-3.4861,-3.4117,-3.3406,-3.2662,-3.1647,-3.0514,-2.9499,-2.8704,-2.8129,-2.7199,-2.6708,-2.6556,-2.5693,-2.5067,-2.4864,-2.4642,-2.4272,-2.3833,-2.3748,-2.3528,-2.3139,-2.3241,-2.3173,-2.2801,-2.3105,-2.3088,-2.2446,-2.2327,-2.2327,-2.2327,-2.2327,-2.2378,-2.2632,-2.3122,-2.319,-2.3274,-2.3782,-2.3955,-2.3113,-2.2768,-2.2627,-2.2389,-2.2327,-2.2327,-2.2327,-2.2327,-2.2327,-2.2327,-2.2327,-2.2327,-2.2327,-2.2327,-2.2327,-2.2327,-2.2327,-2.2327,-2.2327,-2.2152,-2.2003,-2.1658,-2.1491,-2.1244,-2.0959,-2.1007,-2.1102,-2.0878,-2.0975,-2.0894,-2.0764,-2.0829,-2.0829,-2.0698,-2.0565,-2.0465,-2.0227,-1.9909,-1.9762,-1.9726,-1.9705,-1.9705,-1.9705,-1.9705,-1.9705,-3.0783,-2.997,-2.9804,-3.0036,-3.0444,-3.1119,-3.1315,-3.2051,-3.3432,-3.4244,-3.4426,-3.4441,-3.461,-3.4517,-3.4592,-3.4128,-3.3724,-3.4203,-3.4143,-3.3559,-3.3619,-3.3963,-3.4457,-3.4475,-3.47,-3.5179,-3.4728,-3.4098,-3.3639,-3.4284,-3.493,-3.5307,-3.4884,-3.4235,-3.3389,-3.2713,-3.1968,-3.0987,-2.9756,-2.8975,-2.8825,-2.7469,-2.6708,-2.6708,-2.6573,-2.6234,-2.5625,-2.4966,-2.4659,-2.4509,-2.4475,-2.4506,-2.4286,-2.39,-2.346,-2.3444,-2.346,-2.3122,-2.2479,-2.2462,-2.2547,-2.2361,-2.2378,-2.2784,-2.319,-2.3427,-2.3714,-2.4184,-2.4425,-2.4252,-2.3769,-2.3654,-2.3353,-2.25,-2.2411,-2.236,-2.2383,-2.2344,-2.2327,-2.2327,-2.2327,-2.2327,-2.2327,-2.2327,-2.2327,-2.2327,-2.2254,-2.2209,-2.2152,-2.1869,-2.1628,-2.146,-2.1181,-2.0813,-2.055,-2.0314,-2.0314,-2.0348,-2.0599,-2.0665,-2.033,-2.0277,-2.0345,-2.0243,-2.0227,-2.0124,-2.005,-1.9762,-1.9762,-1.9705,-1.9705,-1.9705,-1.9705,-1.9705,-1.9705,-3.1323,-3.0407,-3.0369,-3.0482,-3.0797,-3.1119,-3.1888,-3.3101,-3.3772,-3.4397,-3.4993,-3.5185,-3.5175,-3.5175,-3.5175,-3.5055,-3.4906,-3.5085,-3.4816,-3.4337,-3.4637,-3.4936,-3.513,-3.5145,-3.5075,-3.4853,-3.4587,-3.4176,-3.3756,-3.4254,-3.4741,-3.488,-3.5172,-3.459,-3.344,-3.3136,-3.2476,-3.1157,-2.9736,-2.9011,-2.8839,-2.7486,-2.6708,-2.6708,-2.6708,-2.6573,-2.6353,-2.6116,-2.5761,-2.5287,-2.5253,-2.5033,-2.4644,-2.4763,-2.4661,-2.4272,-2.4661,-2.4323,-2.3325,-2.3477,-2.3308,-2.2767,-2.3207,-2.3562,-2.3511,-2.3883,-2.4239,-2.4577,-2.4915,-2.4859,-2.4034,-2.4197,-2.405,-2.3338,-2.2808,-2.2598,-2.2752,-2.2552,-2.2361,-2.2327,-2.2327,-2.2327,-2.2327,-2.2327,-2.2327,-2.2254,-2.2032,-2.1853,-2.1764,-2.1477,-2.1055,-2.0781,-2.055,-2.0431,-2.0174,-2.0015,-2.0015,-2.0035,-2.0208,-2.0345,-2.005,-1.9889,-1.9925,-1.9909,-1.9909,-1.9874,-1.9762,-1.9705,-1.9705,-1.9705,-1.9705,-1.9705,-1.9705,-1.9705,-1.9705,-3.17,-3.0909,-3.0696,-3.0709,-3.0918,-3.0799,-3.1536,-3.289,-3.331,-3.4041,-3.4839,-3.5344,-3.5489,-3.5489,-3.5489,-3.5489,-3.5489,-3.5489,-3.5265,-3.4966,-3.5265,-3.5489,-3.5489,-3.5489,-3.4985,-3.4314,-3.4394,-3.4012,-3.3253,-3.4117,-3.4626,-3.4706,-3.5253,-3.4861,-3.3541,-3.3355,-3.2679,-3.1241,-3.0023,-2.9397,-2.9093,-2.7909,-2.7097,-2.708,-2.6843,-2.6708,-2.6708,-2.6708,-2.6505,-2.6048,-2.5761,-2.5473,-2.5321,-2.5311,-2.4978,-2.4526,-2.4613,-2.4431,-2.3421,-2.3689,-2.3857,-2.3204,-2.3689,-2.4158,-2.3976,-2.4313,-2.4464,-2.5079,-2.5262,-2.5036,-2.4249,-2.4354,-2.4402,-2.4032,-2.2977,-2.2475,-2.2493,-2.2258,-2.2082,-2.2049,-2.218,-2.2282,-2.2327,-2.2327,-2.2327,-2.2237,-2.1899,-2.1612,-2.1491,-2.1118,-2.0649,-2.0314,-2.0158,-2.0015,-1.9797,-1.9726,-1.9726,-1.9762,-1.9833,-1.9889,-1.9797,-1.9762,-1.9797,-1.9797,-1.9782,-1.9782,-1.9705,-1.9705,-1.9705,-1.9705,-1.9705,-1.9705,-1.9705,-1.9705,-1.9762,-3.1938,-3.1399,-3.0922,-3.0696,-3.0599,-3.0146,-3.0622,-3.1462,-3.2321,-3.3325,-3.4245,-3.5133,-3.5489,-3.5489,-3.5489,-3.5489,-3.5489,-3.5489,-3.5474,-3.5429,-3.5489,-3.5459,-3.534,-3.5205,-3.455,-3.3804,-3.4103,-3.3794,-3.2982,-3.4024,-3.4625,-3.4657,-3.5203,-3.4945,-3.3795,-3.3457,-3.2713,-3.1461,-3.0497,-3.004,-2.9939,-2.8552,-2.7722,-2.7671,-2.708,-2.6708,-2.6708,-2.6624,-2.6641,-2.659,-2.6048,-2.5982,-2.627,-2.5494,-2.4726,-2.4198,-2.4172,-2.3821,-2.3227,-2.3638,-2.3835,-2.3539,-2.3769,-2.3982,-2.4456,-2.4327,-2.458,-2.5527,-2.5318,-2.4875,-2.4444,-2.4402,-2.4371,-2.4089,-2.2991,-2.2048,-2.1247,-2.1446,-2.1705,-2.1794,-2.2032,-2.2254,-2.218,-2.218,-2.2123,-2.2049,-2.1705,-2.143,-2.1228,-2.0781,-2.0382,-2.0124,-1.9945,-1.9854,-1.9705,-1.9705,-1.9705,-1.9705,-1.9705,-1.9705,-1.9705,-1.9705,-1.9705,-1.9705,-1.9705,-1.9705,-1.9705,-1.9705,-1.9705,-1.9705,-1.9705,-1.9705,-1.9705,-1.9705,-1.9762,-3.2516,-3.1989,-3.1851,-3.1336,-3.0658,-3.0444,-3.1072,-3.2205,-3.2464,-3.3533,-3.4905,-3.5359,-3.5489,-3.5489,-3.5489,-3.5489,-3.5489,-3.5489,-3.5489,-3.5489,-3.5489,-3.519,-3.4696,-3.4247,-3.3844,-3.3547,-3.3653,-3.3587,-3.3346,-3.4096,-3.4542,-3.464,-3.5237,-3.5165,-3.4286,-3.3677,-3.2949,-3.1952,-3.0734,-3.0159,-2.9939,-2.8687,-2.7823,-2.774,-2.7114,-2.6708,-2.6674,-2.6367,-2.6367,-2.6657,-2.6539,-2.6286,-2.6142,-2.5782,-2.5236,-2.4781,-2.4746,-2.4527,-2.4012,-2.4342,-2.4273,-2.3449,-2.4144,-2.4664,-2.4273,-2.4195,-2.4532,-2.5099,-2.482,-2.4404,-2.4387,-2.4405,-2.4056,-2.3275,-2.2883,-2.2367,-2.1681,-2.1521,-2.1718,-2.2032,-2.1949,-2.186,-2.1801,-2.1601,-2.1432,-2.1354,-2.1039,-2.0732,-2.0667,-2.0398,-1.998,-1.9874,-1.9762,-1.9762,-1.9705,-1.9705,-1.9705,-1.9705,-1.9705,-1.9705,-1.9705,-1.9705,-1.9705,-1.9705,-1.9705,-1.9705,-1.9705,-1.9705,-1.9705,-1.9705,-1.9705,-1.9705,-1.9705,-1.9705,-1.9726,-3.288,-3.2528,-3.2077,-3.1512,-3.0896,-3.047,-3.1146,-3.2434,-3.2593,-3.3685,-3.5213,-3.5489,-3.5489,-3.5489,-3.5489,-3.5489,-3.5489,-3.5489,-3.5489,-3.5444,-3.519,-3.4846,-3.4442,-3.4023,-3.3634,-3.3095,-3.3095,-3.2899,-3.2844,-3.3675,-3.414,-3.4366,-3.5115,-3.5172,-3.4506,-3.4117,-3.3474,-3.2696,-3.1613,-3.1021,-3.0903,-2.9567,-2.8687,-2.8193,-2.7379,-2.6699,-2.617,-2.5799,-2.5924,-2.6245,-2.621,-2.5944,-2.5689,-2.5411,-2.5054,-2.4507,-2.4484,-2.428,-2.4052,-2.4476,-2.4437,-2.391,-2.4484,-2.4547,-2.4265,-2.4053,-2.4209,-2.4689,-2.4225,-2.4008,-2.4035,-2.4074,-2.3618,-2.2938,-2.2854,-2.2582,-2.1745,-2.1531,-2.1746,-2.2037,-2.2004,-2.1745,-2.1745,-2.1327,-2.1071,-2.0926,-2.0682,-2.0483,-2.0314,-1.9945,-1.9705,-1.9705,-1.9705,-1.9705,-1.9705,-1.9705,-1.9705,-1.9705,-1.9705,-1.9705,-1.9705,-1.9705,-1.9705,-1.9705,-1.9705,-1.9705,-1.9705,-1.9705,-1.9705,-1.9705,-1.9705,-1.9705,-1.9705,-1.9705,-1.9726,-3.3031,-3.2905,-3.1901,-3.1411,-3.1135,-3.0451,-3.1114,-3.2393,-3.2806,-3.3822,-3.5213,-3.5489,-3.5489,-3.5489,-3.5489,-3.5489,-3.5489,-3.5489,-3.5489,-3.5355,-3.504,-3.4666,-3.4472,-3.4218,-3.3574,-3.2796,-3.2572,-3.2345,-3.2399,-3.3128,-3.3642,-3.407,-3.5005,-3.515,-3.4793,-3.4539,-3.4083,-3.3305,-3.2476,-3.1918,-3.1596,-3.0531,-2.9526,-2.8787,-2.7495,-2.6379,-2.5589,-2.5182,-2.5335,-2.5799,-2.5411,-2.5259,-2.5105,-2.4632,-2.4197,-2.3752,-2.3701,-2.3663,-2.3563,-2.4014,-2.4292,-2.4184,-2.4199,-2.4307,-2.4148,-2.3884,-2.3846,-2.4307,-2.3879,-2.3721,-2.3651,-2.3638,-2.3428,-2.2978,-2.2825,-2.2424,-2.1999,-2.1606,-2.1657,-2.2251,-2.2181,-2.2052,-2.1802,-2.1434,-2.094,-2.0514,-2.0296,-2.0158,-2.0054,-1.9874,-1.9726,-1.9705,-1.9705,-1.9705,-1.9705,-1.9705,-1.9705,-1.9705,-1.9705,-1.9705,-1.9705,-1.9705,-1.9705,-1.9705,-1.9705,-1.9705,-1.9705,-1.9705,-1.9705,-1.9705,-1.9705,-1.9705,-1.9705,-1.9705,-1.9726,-3.2817,-3.2378,-3.2139,-3.1549,-3.0968,-3.1306,-3.1875,-3.2593,-3.331,-3.4245,-3.5279,-3.5504,-3.5489,-3.5489,-3.5489,-3.5489,-3.5489,-3.5489,-3.5489,-3.5474,-3.54,-3.4951,-3.4502,-3.4098,-3.3335,-3.2796,-3.3066,-3.2913,-3.2711,-3.306,-3.3816,-3.4382,-3.4576,-3.5031,-3.5273,-3.4776,-3.415,-3.3423,-3.2713,-3.2104,-3.1613,-3.0712,-2.9755,-2.8986,-2.7339,-2.6069,-2.532,-2.4776,-2.4617,-2.4776,-2.4973,-2.491,-2.4617,-2.443,-2.4092,-2.3697,-2.3558,-2.3606,-2.3586,-2.3673,-2.3767,-2.3837,-2.3822,-2.3752,-2.3752,-2.3709,-2.3638,-2.3752,-2.3681,-2.3595,-2.3595,-2.3595,-2.3505,-2.3295,-2.2981,-2.2847,-2.2975,-2.2513,-2.2322,-2.2598,-2.2498,-2.2045,-2.1568,-2.1157,-2.065,-2.0147,-1.9945,-1.9839,-1.9818,-1.9782,-1.9762,-1.9705,-1.9705,-1.9705,-1.9705,-1.9705,-1.9705,-1.9705,-1.9705,-1.9705,-1.9705,-1.9705,-1.9705,-1.9705,-1.9705,-1.9705,-1.9705,-1.9705,-1.9705,-1.9705,-1.9705,-1.9705,-1.9705,-1.9705,-1.9726,-3.2729,-3.2202,-3.1938,-3.1361,-3.0725,-3.0829,-3.132,-3.2074,-3.2947,-3.3891,-3.4773,-3.5228,-3.5489,-3.5489,-3.5489,-3.5489,-3.5489,-3.5489,-3.5489,-3.5489,-3.5474,-3.531,-3.504,-3.4547,-3.3993,-3.3215,-3.3305,-3.3155,-3.2886,-3.3172,-3.3691,-3.4136,-3.4431,-3.4988,-3.5515,-3.5199,-3.4895,-3.4353,-3.3372,-3.273,-3.2594,-3.1012,-2.9486,-2.8356,-2.6762,-2.5519,-2.4947,-2.4337,-2.4063,-2.4116,-2.4307,-2.4348,-2.4116,-2.4032,-2.3879,-2.3681,-2.3595,-2.3595,-2.3595,-2.3595,-2.3595,-2.3595,-2.3595,-2.3595,-2.3595,-2.3595,-2.3595,-2.3595,-2.3595,-2.3595,-2.3595,-2.3595,-2.3595,-2.355,-2.3325,-2.3281,-2.3398,-2.2959,-2.2705,-2.3009,-2.2806,-2.2461,-2.194,-2.1287,-2.0753,-2.0391,-1.9884,-1.9762,-1.9762,-1.9726,-1.9726,-1.9705,-1.9705,-1.9705,-1.9705,-1.9705,-1.9705,-1.9705,-1.9705,-1.9705,-1.9705,-1.9705,-1.9705,-1.9705,-1.9705,-1.9705,-1.9705,-1.9705,-1.9705,-1.9705,-1.9705,-1.9705,-1.9705,-1.9705,-1.9705,-3.2616,-3.2039,-3.1499,-3.0972,-3.0457,-3.0213,-3.057,-3.1315,-3.2164,-3.3101,-3.3876,-3.4839,-3.5133,-3.5294,-3.5424,-3.5489,-3.5489,-3.5489,-3.5489,-3.5489,-3.5489,-3.5459,-3.537,-3.522,-3.4861,-3.3858,-3.3754,-3.3336,-3.2869,-3.305,-3.3521,-3.3822,-3.4153,-3.4932,-3.5559,-3.5594,-3.5368,-3.4962,-3.3927,-3.3379,-3.3359,-3.1444,-2.9528,-2.774,-2.6516,-2.5389,-2.4745,-2.4176,-2.3788,-2.361,-2.3595,-2.3595,-2.3595,-2.3595,-2.3595,-2.3595,-2.3595,-2.3595,-2.3595,-2.3595,-2.3595,-2.3595,-2.3595,-2.3595,-2.3595,-2.3595,-2.3595,-2.3595,-2.3595,-2.3595,-2.3595,-2.3595,-2.3595,-2.3595,-2.3595,-2.3595,-2.3505,-2.3116,-2.317,-2.3351,-2.3179,-2.2847,-2.231,-2.1704,-2.1171,-2.0632,-2.0079,-1.9705,-1.9705,-1.9705,-1.9705,-1.9705,-1.9705,-1.9705,-1.9705,-1.9705,-1.9705,-1.9705,-1.9705,-1.9705,-1.9705,-1.9705,-1.9705,-1.9705,-1.9705,-1.9705,-1.9705,-1.9705,-1.9705,-1.9705,-1.9705,-1.9705,-1.9705,-1.9705,-1.9705,-3.2026,-3.1486,-3.0972,-3.0432,-3.0098,-3.0659,-3.097,-3.1328,-3.2105,-3.2678,-3.2961,-3.3822,-3.4245,-3.4461,-3.5213,-3.5424,-3.5424,-3.5489,-3.5489,-3.5489,-3.5489,-3.5489,-3.5489,-3.5489,-3.528,-3.51,-3.4547,-3.3649,-3.2811,-3.2645,-3.3254,-3.4107,-3.3992,-3.4611,-3.5676,-3.5915,-3.52,-3.4667,-3.381,-3.333,-3.2731,-3.1359,-2.9464,-2.7705,-2.6671,-2.5801,-2.4867,-2.4522,-2.4193,-2.367,-2.361,-2.3595,-2.3595,-2.3595,-2.3595,-2.3595,-2.3595,-2.3595,-2.3595,-2.3595,-2.3595,-2.3595,-2.3595,-2.3595,-2.3595,-2.3595,-2.3595,-2.3595,-2.3595,-2.3595,-2.3595,-2.3595,-2.3595,-2.3595,-2.3595,-2.3595,-2.3565,-2.3475,-2.3385,-2.3535,-2.3415,-2.3236,-2.2682,-2.2084,-2.144,-2.0797,-2.0154,-1.9794,-1.9705,-1.9705,-1.9705,-1.9705,-1.9705,-1.9705,-1.9705,-1.9705,-1.9705,-1.9705,-1.9705,-1.9705,-1.9705,-1.9705,-1.9705,-1.9705,-1.9705,-1.9705,-1.9705,-1.9705,-1.9705,-1.9705,-1.9705,-1.9705,-1.9705,-1.9705,-1.9705,-3.1738,-3.0984,-3.0721,-3.0294,-2.9919,-3.0279,-3.0482,-3.062,-3.1462,-3.1888,-3.2177,-3.282,-3.3587,-3.4027,-3.4461,-3.4986,-3.5359,-3.5489,-3.5489,-3.5489,-3.5489,-3.5489,-3.5489,-3.5489,-3.525,-3.4981,-3.4562,-3.3978,-3.3066,-3.2662,-3.2974,-3.3388,-3.3503,-3.4198,-3.4955,-3.506,-3.4698,-3.4049,-3.342,-3.3048,-3.2805,-3.1356,-2.9528,-2.7941,-2.6935,-2.6126,-2.533,-2.4686,-2.4298,-2.3759,-2.3595,-2.3595,-2.3595,-2.3595,-2.3595,-2.3595,-2.3595,-2.3595,-2.3595,-2.3595,-2.3595,-2.3595,-2.3595,-2.3595,-2.3595,-2.3595,-2.3595,-2.3595,-2.3595,-2.3595,-2.3595,-2.3595,-2.3595,-2.3595,-2.3595,-2.3595,-2.3595,-2.3595,-2.3595,-2.3595,-2.352,-2.337,-2.3161,-2.2488,-2.1724,-2.0991,-2.0273,-1.9959,-1.9765,-1.9617,-1.9617,-1.9705,-1.9705,-1.9705,-1.9705,-1.9705,-1.9705,-1.9705,-1.9705,-1.9705,-1.9705,-1.9705,-1.9705,-1.9705,-1.9705,-1.9705,-1.9705,-1.9705,-1.9705,-1.9705,-1.9705,-1.9705,-1.9705,-1.9705,-1.9705,-3.1399,-3.0608,-3.0495,-3.0193,-2.9829,-2.9779,-2.9792,-2.9921,-3.0633,-3.0895,-3.1044,-3.1888,-3.2749,-3.331,-3.3739,-3.4245,-3.5133,-3.5133,-3.5213,-3.5489,-3.5489,-3.5489,-3.5489,-3.5444,-3.528,-3.4951,-3.4292,-3.3933,-3.317,-3.2736,-3.268,-3.3005,-3.3409,-3.3718,-3.4201,-3.4675,-3.4212,-3.3767,-3.3121,-3.299,-3.2336,-3.1239,-2.9536,-2.7765,-2.6946,-2.6273,-2.557,-2.4896,-2.4313,-2.3819,-2.3595,-2.3595,-2.3595,-2.3595,-2.3595,-2.3595,-2.3595,-2.3595,-2.3595,-2.3595,-2.3595,-2.3595,-2.3595,-2.3595,-2.3595,-2.3595,-2.3595,-2.3595,-2.3595,-2.3595,-2.3595,-2.3595,-2.3595,-2.3595,-2.3595,-2.3595,-2.3595,-2.3595,-2.3595,-2.3595,-2.3595,-2.3385,-2.3086,-2.2517,-2.168,-2.1069,-2.0355,-2.0057,-1.9849,-1.945,-1.9406,-1.9654,-1.9705,-1.9705,-1.9705,-1.9705,-1.9705,-1.9705,-1.9705,-1.9705,-1.9705,-1.9705,-1.9705,-1.9705,-1.9705,-1.9705,-1.9705,-1.9705,-1.9705,-1.9705,-1.9705,-1.9705,-1.9705,-1.9705,-1.9705,-3.0733,-3.0583,-3.0093,-2.9842,-2.9804,-2.9779,-2.9779,-2.9779,-2.9998,-2.9921,-3.0152,-3.0908,-3.1462,-3.1888,-3.2607,-3.331,-3.4041,-3.4327,-3.4773,-3.5424,-3.5489,-3.5489,-3.5489,-3.5489,-3.537,-3.4996,-3.4173,-3.329,-3.2796,-3.2557,-3.2819,-3.3125,-3.303,-3.3435,-3.4571,-3.4377,-3.4579,-3.4303,-3.3654,-3.2299,-3.0593,-2.9993,-2.8989,-2.782,-2.6991,-2.6378,-2.5764,-2.506,-2.4418,-2.3789,-2.3625,-2.3595,-2.3595,-2.3595,-2.3595,-2.3595,-2.3595,-2.3595,-2.3595,-2.3595,-2.3595,-2.3595,-2.3595,-2.3595,-2.3595,-2.3595,-2.3595,-2.3595,-2.3595,-2.3595,-2.3595,-2.3595,-2.3595,-2.3595,-2.3595,-2.3595,-2.3595,-2.3595,-2.3595,-2.3595,-2.3595,-2.3221,-2.2862,-2.2248,-2.1635,-2.1015,-2.0484,-2.0174,-1.9916,-1.956,-1.9207,-1.942,-1.969,-1.9705,-1.9705,-1.9705,-1.9705,-1.9705,-1.9705,-1.9705,-1.9705,-1.9705,-1.9705,-1.9705,-1.9705,-1.9705,-1.9705,-1.9705,-1.9705,-1.9705,-1.9705,-1.9705,-1.9705,-1.9705,-1.9705,-3.0143,-3.0131,-2.9892,-2.9779,-2.9779,-2.9779,-2.9779,-2.9779,-2.9779,-2.9779,-2.9869,-3.0216,-3.0696,-3.1254,-3.2164,-3.3101,-3.3808,-3.3945,-3.4543,-3.5294,-3.5504,-3.5489,-3.5489,-3.5459,-3.5385,-3.4801,-3.4292,-3.3529,-3.2796,-3.2153,-3.2161,-3.2403,-3.2598,-3.2838,-3.4079,-3.3623,-3.3466,-3.3162,-3.2623,-3.1429,-3.0108,-2.949,-2.8921,-2.7649,-2.7275,-2.6752,-2.6153,-2.5525,-2.4881,-2.4253,-2.3879,-2.3595,-2.3595,-2.3595,-2.3595,-2.3595,-2.3595,-2.3595,-2.3595,-2.3595,-2.3595,-2.3595,-2.3595,-2.3595,-2.3595,-2.3551,-2.3551,-2.3595,-2.3595,-2.3551,-2.3551,-2.3595,-2.3595,-2.3551,-2.3406,-2.345,-2.345,-2.3595,-2.3595,-2.3595,-2.3522,-2.3135,-2.2795,-2.2369,-2.1831,-2.1328,-2.0524,-1.9821,-1.9739,-1.9686,-1.9361,-1.9147,-1.9457,-1.9705,-1.9705,-1.9705,-1.9705,-1.9705,-1.9705,-1.9705,-1.9705,-1.9705,-1.9705,-1.9705,-1.9705,-1.9705,-1.9705,-1.9705,-1.9705,-1.9705,-1.9705,-1.9705,-1.9705,-1.9705,-1.9705,-2.9131,-2.9365,-2.9702,-2.9779,-2.9779,-2.9779,-2.9779,-2.9779,-2.9779,-2.9779,-2.9779,-2.9856,-3.0203,-3.0846,-3.1462,-3.2177,-3.3241,-3.3533,-3.4259,-3.4854,-3.5344,-3.537,-3.522,-3.5175,-3.4861,-3.4233,-3.3844,-3.3305,-3.2602,-3.1958,-3.1599,-3.1524,-3.2038,-3.2403,-3.2549,-3.2692,-3.273,-3.2613,-3.1775,-3.0758,-2.9774,-2.937,-2.8637,-2.7874,-2.738,-2.7145,-2.6587,-2.5704,-2.4955,-2.4582,-2.3939,-2.3566,-2.3377,-2.3275,-2.3128,-2.3084,-2.3084,-2.329,-2.3377,-2.3465,-2.3551,-2.3595,-2.3551,-2.3508,-2.3319,-2.3377,-2.3231,-2.298,-2.2995,-2.3024,-2.3113,-2.3024,-2.298,-2.2935,-2.298,-2.3069,-2.3172,-2.3172,-2.3231,-2.3187,-2.3143,-2.3069,-2.276,-2.2512,-2.2076,-2.1585,-2.0726,-1.9624,-1.9412,-1.9411,-1.938,-1.9098,-1.9413,-1.9698,-1.972,-1.972,-1.9705,-1.9705,-1.9705,-1.9705,-1.9705,-1.9705,-1.9705,-1.9705,-1.9705,-1.9705,-1.9705,-1.9705,-1.9705,-1.9705,-1.9705,-1.9705,-1.9705,-1.9705,-1.9705,-2.729,-2.8347,-2.9365,-2.9779,-2.9779,-2.9779,-2.9779,-2.9779,-2.9779,-2.9779,-2.9779,-2.9779,-2.9856,-2.9985,-3.0215,-3.068,-3.1509,-3.2307,-3.3184,-3.4129,-3.4942,-3.4912,-3.4692,-3.4472,-3.4247,-3.3649,-3.3245,-3.2841,-3.2392,-3.1869,-3.1541,-3.1524,-3.1682,-3.1987,-3.2332,-3.2496,-3.2357,-3.2063,-3.124,-3.0357,-2.9564,-2.9011,-2.8353,-2.7664,-2.7036,-2.6617,-2.6542,-2.5506,-2.4697,-2.4473,-2.3792,-2.3172,-2.2844,-2.2725,-2.2529,-2.2317,-2.2515,-2.2725,-2.2815,-2.3275,-2.3551,-2.3595,-2.345,-2.3128,-2.2815,-2.274,-2.2483,-2.2118,-2.2225,-2.2086,-2.1979,-2.1838,-2.2132,-2.2225,-2.2317,-2.2317,-2.2409,-2.262,-2.268,-2.274,-2.2727,-2.2581,-2.2372,-2.2079,-2.1815,-2.1335,-2.0268,-1.9214,-1.8782,-1.8766,-1.9088,-1.9152,-1.9479,-1.967,-1.9765,-1.975,-1.9705,-1.9705,-1.9705,-1.9705,-1.9705,-1.9705,-1.969,-1.9705,-1.9705,-1.9705,-1.9705,-1.9705,-1.9705,-1.9705,-1.9705,-1.9705,-1.9705,-1.9705,-1.9705,-2.7116,-2.8096,-2.8597,-2.9197,-2.9779,-2.9779,-2.9779,-2.9779,-2.9779,-2.9779,-2.9779,-2.9779,-2.9779,-2.9704,-2.9454,-2.9755,-3.0679,-3.1042,-3.1958,-3.2801,-3.3558,-3.3873,-3.3817,-3.3858,-3.3724,-3.3365,-3.2841,-3.2527,-3.2452,-3.1795,-3.1556,-3.1467,-3.1467,-3.1943,-3.2302,-3.2392,-3.2063,-3.1345,-3.0746,-3.0058,-2.9086,-2.8771,-2.8278,-2.764,-2.7475,-2.6935,-2.6498,-2.5652,-2.4809,-2.4066,-2.3369,-2.2739,-2.2259,-2.217,-2.1969,-2.1704,-2.1969,-2.2081,-2.2285,-2.2891,-2.3421,-2.295,-2.2665,-2.2317,-2.21,-2.21,-2.1993,-2.1791,-2.1602,-2.1506,-2.1697,-2.1697,-2.1791,-2.1697,-2.1649,-2.1554,-2.1663,-2.1913,-2.2053,-2.2114,-2.21,-2.2044,-2.1777,-2.1506,-2.1302,-2.0982,-1.9867,-1.8917,-1.8557,-1.8484,-1.8934,-1.9218,-1.953,-1.9874,-1.9973,-1.9886,-1.9728,-1.9662,-1.9656,-1.9626,-1.9553,-1.969,-1.969,-1.969,-1.969,-1.9654,-1.9654,-1.969,-1.9705,-1.9705,-1.9705,-1.9705,-1.9705,-1.9705,-1.9705,-2.6295,-2.7602,-2.7614,-2.845,-2.9702,-2.9779,-2.9779,-2.9779,-2.9779,-2.9779,-2.9767,-2.9628,-2.9628,-2.9541,-2.9001,-2.9136,-2.9775,-3.019,-3.102,-3.1864,-3.2651,-3.3103,-3.3312,-3.3305,-3.317,-3.3051,-3.2617,-3.2228,-3.2482,-3.1839,-3.1526,-3.1467,-3.1497,-3.1795,-3.2033,-3.2153,-3.1629,-3.0776,-3.0208,-2.9744,-2.8727,-2.8129,-2.7817,-2.7181,-2.6923,-2.6582,-2.6026,-2.5327,-2.4591,-2.3775,-2.3003,-2.2344,-2.1909,-2.1648,-2.1551,-2.1502,-2.1524,-2.1567,-2.1752,-2.2271,-2.2801,-2.2377,-2.2086,-2.1758,-2.1486,-2.1438,-2.1342,-2.1037,-2.1037,-2.1135,-2.1183,-2.0988,-2.0953,-2.0805,-2.0841,-2.0805,-2.0953,-2.1148,-2.1342,-2.1438,-2.1424,-2.1438,-2.1197,-2.089,-2.0509,-2.028,-1.9655,-1.8849,-1.8459,-1.8603,-1.9131,-1.9371,-1.9572,-1.9959,-2.0266,-1.9969,-1.9645,-1.9329,-1.9325,-1.9336,-1.9367,-1.9516,-1.9479,-1.9369,-1.9406,-1.953,-1.9566,-1.9566,-1.9617,-1.9705,-1.9705,-1.9705,-1.9705,-1.9705,-1.9705,-2.4563,-2.6472,-2.6554,-2.7718,-2.9534,-2.9792,-2.9779,-2.9779,-2.9779,-2.9779,-2.9691,-2.9265,-2.9277,-2.9377,-2.8662,-2.8634,-2.8994,-2.9353,-3.0113,-3.1198,-3.1721,-3.2538,-3.2924,-3.2885,-3.2736,-3.2422,-3.2273,-3.2317,-3.2407,-3.1988,-3.1631,-3.1467,-3.1482,-3.1526,-3.1526,-3.1511,-3.118,-3.0522,-2.9968,-2.9385,-2.8441,-2.7471,-2.6997,-2.6433,-2.6068,-2.5783,-2.5315,-2.4942,-2.4175,-2.3253,-2.2712,-2.2116,-2.1572,-2.1416,-2.1172,-2.0872,-2.1251,-2.122,-2.0961,-2.1452,-2.1663,-2.1663,-2.1424,-2.1197,-2.093,-2.0782,-2.0633,-2.037,-2.0131,-2.0042,-1.994,-1.994,-2.0093,-2.0144,-2.0181,-2.0232,-2.0434,-2.0534,-2.072,-2.0756,-2.0782,-2.0809,-2.0597,-2.0294,-1.9762,-1.9422,-1.917,-1.8819,-1.8601,-1.8814,-1.9422,-1.9672,-1.988,-1.9998,-2.0203,-1.9906,-1.9556,-1.9183,-1.8999,-1.9055,-1.9098,-1.9213,-1.9169,-1.9043,-1.9281,-1.9603,-1.9479,-1.9369,-1.953,-1.9705,-1.9705,-1.9705,-1.9705,-1.9705,-1.9705,-2.3973,-2.5378,-2.5378,-2.6213,-2.7718,-2.9197,-2.9779,-2.9779,-2.9779,-2.9779,-2.968,-2.9163,-2.8999,-2.8925,-2.8536,-2.8197,-2.8359,-2.8407,-2.9171,-2.9699,-3.0394,-3.1141,-3.1762,-3.242,-3.2482,-3.2602,-3.2542,-3.2243,-3.178,-3.1885,-3.1854,-3.1659,-3.1467,-3.1467,-3.1482,-3.1422,-3.118,-3.0597,-3.0138,-2.9535,-2.8042,-2.731,-2.6629,-2.5825,-2.5453,-2.5063,-2.4681,-2.4303,-2.371,-2.264,-2.2047,-2.1705,-2.1142,-2.0937,-2.0601,-2.0504,-2.073,-2.0322,-2.0182,-2.0421,-2.067,-2.0858,-2.0769,-2.0484,-2.0144,-2.0156,-1.9952,-1.9901,-1.9798,-1.9798,-1.985,-1.985,-1.9901,-1.9901,-1.994,-1.994,-1.9991,-2.0055,-2.0144,-2.0144,-2.0156,-2.0207,-2.0105,-2.0105,-1.9712,-1.956,-1.9434,-1.9447,-1.9271,-1.9384,-1.9808,-2.0044,-2.022,-2.0246,-2.018,-1.9822,-1.9408,-1.8954,-1.8796,-1.8768,-1.8831,-1.8893,-1.9006,-1.9006,-1.9317,-1.9639,-1.9566,-1.953,-1.9617,-1.9705,-1.9705,-1.9705,-1.9705,-1.9705,-1.9705,-2.38,-2.4777,-2.4619,-2.5322,-2.6707,-2.845,-2.9378,-2.9702,-2.9779,-2.9779,-2.9641,-2.9152,-2.89,-2.8725,-2.8197,-2.8009,-2.8034,-2.7704,-2.869,-2.8894,-2.9161,-3.0564,-3.1596,-3.1933,-3.2344,-3.2645,-3.2886,-3.2691,-3.2392,-3.2437,-3.2123,-3.1674,-3.1467,-3.1278,-3.1146,-3.094,-3.0704,-3.0074,-2.955,-2.8641,-2.7414,-2.6582,-2.6034,-2.524,-2.4667,-2.4323,-2.3989,-2.3683,-2.3238,-2.2154,-2.1568,-2.143,-2.1029,-2.0639,-2.0476,-2.0614,-2.025,-2.0012,-2.0114,-1.9888,-2.0399,-2.103,-2.0283,-1.9875,-1.9798,-1.985,-1.985,-1.9798,-1.9798,-1.9798,-1.9798,-1.9798,-1.9798,-1.9798,-1.9798,-1.9798,-1.9798,-1.985,-1.9901,-1.9798,-1.9798,-1.9798,-1.9798,-1.985,-1.9748,-1.9761,-1.9773,-1.9798,-1.9798,-1.985,-1.9901,-2.0091,-2.0187,-2.0113,-2.0009,-1.9777,-1.9285,-1.8738,-1.8574,-1.8516,-1.8458,-1.8535,-1.8765,-1.9043,-1.9369,-1.9639,-1.969,-1.9705,-1.9705,-1.9705,-1.9705,-1.9705,-1.9705,-1.9705,-1.9705,-2.3684,-2.465,-2.4283,-2.4949,-2.6427,-2.7533,-2.8676,-2.9754,-2.9779,-2.9767,-2.9704,-2.912,-2.8872,-2.8662,-2.7846,-2.7695,-2.7883,-2.7118,-2.81,-2.9065,-2.8847,-3.0457,-3.1256,-3.1518,-3.1849,-3.2552,-3.2824,-3.2613,-3.3078,-3.206,-3.1471,-3.1338,-3.097,-3.0703,-3.0389,-3.0015,-2.9772,-2.9337,-2.8802,-2.7809,-2.6679,-2.5743,-2.5114,-2.4347,-2.3754,-2.3531,-2.3305,-2.3182,-2.2829,-2.2221,-2.1807,-2.187,-2.1669,-2.1204,-2.1204,-2.0928,-2.025,-2.0338,-2.0413,-2.0125,-2.0304,-2.0807,-2.0184,-1.9893,-1.9861,-1.9886,-1.9798,-1.9798,-1.9798,-1.9798,-1.9798,-1.9798,-1.9798,-1.9798,-1.9798,-1.9798,-1.9798,-1.9798,-1.9798,-1.9798,-1.9798,-1.9798,-1.9798,-1.9798,-1.9798,-1.9798,-1.9798,-1.9798,-1.9798,-1.9798,-1.985,-1.9837,-1.9927,-1.9863,-1.9724,-1.9541,-1.9256,-1.8701,-1.8398,-1.8283,-1.8208,-1.833,-1.8727,-1.9132,-1.9442,-1.9603,-1.969,-1.9705,-1.9705,-1.9705,-1.9705,-1.9705,-1.9705,-1.9705,-1.9705,-2.2758,-2.3461,-2.2838,-2.3116,-2.4245,-2.613,-2.7758,-2.9087,-2.9578,-2.9603,-2.9176,-2.8981,-2.8847,-2.8787,-2.8197,-2.8021,-2.7758,-2.7507,-2.7523,-2.7908,-2.8239,-2.8918,-2.9683,-3.0345,-3.097,-3.1633,-3.1984,-3.1853,-3.1177,-3.0524,-3.014,-2.9718,-2.995,-2.9628,-2.9303,-2.8798,-2.8837,-2.872,-2.8216,-2.7251,-2.6284,-2.5435,-2.4614,-2.371,-2.3305,-2.3125,-2.3125,-2.3125,-2.2711,-2.1907,-2.2008,-2.1983,-2.1029,-2.0857,-2.0781,-2.0313,-2.025,-2.0514,-2.0623,-2.0294,-2.0282,-2.0363,-1.9769,-1.9901,-2.0023,-1.998,-1.9756,-1.9681,-1.9731,-1.9716,-1.9797,-1.9798,-1.9798,-1.9798,-1.9798,-1.9798,-1.9798,-1.9798,-1.9798,-1.9798,-1.9798,-1.9798,-1.9798,-1.9798,-1.9798,-1.9798,-1.9798,-1.9798,-1.9798,-1.9798,-1.9798,-1.9798,-1.9798,-1.9798,-1.9472,-1.9244,-1.9018,-1.8715,-1.8454,-1.8288,-1.837,-1.8567,-1.8903,-1.9207,-1.9479,-1.9603,-1.969,-1.9705,-1.9705,-1.9705,-1.9705,-1.9705,-1.9705,-1.9705,-1.9705,-2.2187,-2.2519,-2.1914,-2.2261,-2.3406,-2.4952,-2.6462,-2.7971,-2.8988,-2.9341,-2.9252,-2.8761,-2.8562,-2.8524,-2.8009,-2.772,-2.7682,-2.718,-2.7226,-2.7771,-2.7498,-2.8386,-2.8957,-2.9255,-2.9914,-3.0572,-3.0963,-3.0906,-3.0066,-2.975,-2.9448,-2.9129,-2.8989,-2.8734,-2.8492,-2.8103,-2.7868,-2.7801,-2.7457,-2.6746,-2.5965,-2.5182,-2.4249,-2.3397,-2.3138,-2.3065,-2.3065,-2.3065,-2.2564,-2.1756,-2.1935,-2.1309,-2.0447,-2.019,-1.9516,-1.906,-1.906,-1.9514,-1.9737,-1.9549,-1.9808,-1.9943,-1.9434,-1.9413,-1.9551,-1.9562,-1.9408,-1.9332,-1.9511,-1.9654,-1.9768,-1.9798,-1.9798,-1.9798,-1.9798,-1.9798,-1.9798,-1.9798,-1.9798,-1.9798,-1.9798,-1.9798,-1.9798,-1.9798,-1.9798,-1.9798,-1.9798,-1.9798,-1.9798,-1.9798,-1.9798,-1.9798,-1.9798,-1.9786,-1.9434,-1.9208,-1.9141,-1.9019,-1.8793,-1.8675,-1.8616,-1.8733,-1.9017,-1.9281,-1.9515,-1.9603,-1.9705,-1.9705,-1.9705,-1.9705,-1.9705,-1.9705,-1.9705,-1.9705,-1.9705,-2.1826,-2.1894,-2.1455,-2.2161,-2.3412,-2.4027,-2.5145,-2.6581,-2.794,-2.8925,-2.9188,-2.8699,-2.8423,-2.8348,-2.7858,-2.7494,-2.7293,-2.6892,-2.6954,-2.7908,-2.7372,-2.7754,-2.8287,-2.8684,-2.8839,-2.9436,-2.978,-2.9701,-2.9711,-2.907,-2.8509,-2.8784,-2.8484,-2.8045,-2.7433,-2.7498,-2.7167,-2.6499,-2.6601,-2.6184,-2.5203,-2.4645,-2.423,-2.3339,-2.3078,-2.3078,-2.3005,-2.2857,-2.267,-2.1851,-2.1192,-2.0427,-1.9839,-1.9308,-1.8419,-1.8204,-1.8269,-1.8623,-1.8987,-1.8902,-1.9331,-1.951,-1.943,-1.8978,-1.8841,-1.9156,-1.9101,-1.8951,-1.9097,-1.9207,-1.9318,-1.9281,-1.9233,-1.9141,-1.9044,-1.9032,-1.9032,-1.9202,-1.9579,-1.9643,-1.9798,-1.9798,-1.9798,-1.9798,-1.9798,-1.9798,-1.9798,-1.9798,-1.9695,-1.9695,-1.9798,-1.9798,-1.9798,-1.9786,-1.9775,-1.9585,-1.9474,-1.9292,-1.9125,-1.9062,-1.9056,-1.9112,-1.9147,-1.9369,-1.9603,-1.9654,-1.9705,-1.9705,-1.9705,-1.9705,-1.9705,-1.9705,-1.9705,-1.9705,-1.9705,-2.1279,-2.1865,-2.1777,-2.2241,-2.3061,-2.3471,-2.5001,-2.7109,-2.6205,-2.698,-2.8338,-2.9026,-2.9051,-2.8536,-2.8009,-2.7607,-2.7143,-2.6728,-2.6666,-2.6866,-2.6753,-2.6981,-2.7283,-2.7383,-2.7598,-2.7973,-2.8266,-2.8252,-2.8106,-2.7499,-2.6917,-2.7033,-2.6841,-2.6359,-2.6209,-2.6426,-2.6,-2.5264,-2.5505,-2.5418,-2.4607,-2.3867,-2.324,-2.3017,-2.3005,-2.2567,-2.2433,-2.2175,-2.1234,-2.012,-2.0125,-1.9616,-1.8954,-1.8531,-1.8092,-1.7812,-1.8076,-1.8364,-1.839,-1.8376,-1.8635,-1.8691,-1.8518,-1.8175,-1.8119,-1.8606,-1.8788,-1.8619,-1.868,-1.8783,-1.8861,-1.879,-1.8719,-1.8499,-1.8367,-1.8356,-1.8333,-1.878,-1.9279,-1.9527,-1.9747,-1.9798,-1.9798,-1.9798,-1.9798,-1.9798,-1.9798,-1.9747,-1.9527,-1.9475,-1.9747,-1.9798,-1.9798,-1.9825,-1.9825,-1.9938,-1.9833,-1.9754,-1.9625,-1.9559,-1.948,-1.9467,-1.9406,-1.953,-1.969,-1.9705,-1.9705,-1.9705,-1.9705,-1.9705,-1.9705,-1.9705,-1.9705,-1.9705,-1.9705,-2.085,-2.1279,-2.1299,-2.166,-2.2117,-2.241,-2.3583,-2.5015,-2.4613,-2.5398,-2.7041,-2.7922,-2.8381,-2.8375,-2.7996,-2.7469,-2.6967,-2.6684,-2.6609,-2.6546,-2.6521,-2.6559,-2.6521,-2.6521,-2.6752,-2.7117,-2.7126,-2.705,-2.6719,-2.6304,-2.5933,-2.5652,-2.5145,-2.4749,-2.4896,-2.4864,-2.4538,-2.3998,-2.4394,-2.4025,-2.3682,-2.328,-2.2587,-2.244,-2.1928,-2.1667,-2.1553,-2.1244,-2.0492,-1.9275,-1.8939,-1.8334,-1.785,-1.7549,-1.7441,-1.7378,-1.7567,-1.793,-1.7827,-1.776,-1.7828,-1.7759,-1.7646,-1.7357,-1.7367,-1.7792,-1.8133,-1.8123,-1.8477,-1.867,-1.8795,-1.8849,-1.8815,-1.8679,-1.8646,-1.8657,-1.8861,-1.9226,-1.9534,-1.9695,-1.9798,-1.9798,-1.9798,-1.9798,-1.9798,-1.9798,-1.9798,-1.9695,-1.9423,-1.9202,-1.9527,-1.9798,-1.9747,-1.9798,-1.9825,-2.0038,-2.0188,-2.0148,-1.999,-1.9884,-1.9739,-1.9708,-1.9705,-1.969,-1.969,-1.9705,-1.9705,-1.9654,-1.969,-1.9705,-1.9705,-1.9705,-1.9705,-1.9705,-1.9705,-2.0576,-2.0576,-2.0586,-2.0791,-2.1113,-2.1152,-2.1809,-2.2746,-2.3071,-2.416,-2.5667,-2.6016,-2.6828,-2.7471,-2.7532,-2.6979,-2.6615,-2.6584,-2.6521,-2.6521,-2.6521,-2.6521,-2.6521,-2.6521,-2.6577,-2.6514,-2.6488,-2.6108,-2.5697,-2.5227,-2.476,-2.4501,-2.4002,-2.3526,-2.3419,-2.3075,-2.256,-2.2457,-2.2479,-2.1891,-2.2093,-2.2567,-2.1966,-2.1183,-2.0624,-2.0537,-2.0526,-2.0317,-1.9832,-1.8892,-1.7899,-1.7379,-1.7151,-1.7086,-1.6931,-1.6964,-1.6957,-1.6944,-1.6779,-1.6901,-1.6835,-1.6709,-1.6748,-1.6885,-1.6973,-1.7214,-1.7564,-1.7856,-1.8276,-1.8396,-1.8545,-1.8637,-1.8627,-1.8523,-1.8517,-1.8692,-1.9053,-1.9305,-1.9401,-1.9579,-1.9747,-1.9747,-1.9747,-1.9798,-1.9695,-1.9695,-1.9579,-1.9527,-1.9423,-1.9202,-1.9254,-1.9527,-1.9643,-1.9695,-1.9798,-2.001,-2.0239,-2.0147,-1.9964,-1.9966,-1.9901,-1.9781,-1.969,-1.969,-1.969,-1.9566,-1.9566,-1.953,-1.9603,-1.969,-1.9705,-1.9705,-1.9705,-1.9705,-1.9705,-2.0576,-2.0576,-2.0576,-2.0635,-2.0693,-2.0703,-2.1565,-2.2564,-2.1979,-2.3014,-2.4581,-2.4548,-2.5222,-2.7444,-2.7369,-2.6909,-2.6087,-2.6151,-2.6383,-2.6521,-2.6082,-2.6302,-2.6233,-2.5861,-2.6371,-2.6202,-2.5822,-2.5487,-2.478,-2.4174,-2.3718,-2.3641,-2.2731,-2.2366,-2.2298,-2.1878,-2.1518,-2.1318,-2.1305,-2.116,-2.0279,-2.0654,-2.1183,-2.0893,-2.0803,-2.0216,-1.9748,-1.9573,-1.8799,-1.7924,-1.7319,-1.6947,-1.6948,-1.709,-1.71,-1.6938,-1.687,-1.6719,-1.6699,-1.6758,-1.6758,-1.6494,-1.6728,-1.7324,-1.7412,-1.75,-1.7747,-1.7816,-1.8045,-1.7795,-1.7866,-1.7907,-1.7877,-1.747,-1.739,-1.7867,-1.8291,-1.8426,-1.8483,-1.9044,-1.9643,-1.9643,-1.9643,-1.9475,-1.9202,-1.9097,-1.8661,-1.865,-1.8874,-1.8874,-1.898,-1.9307,-1.9579,-1.9695,-1.9837,-1.9904,-2.0047,-1.9959,-1.988,-1.9788,-1.9753,-1.9773,-1.969,-1.953,-1.9369,-1.9244,-1.9281,-1.9406,-1.953,-1.9603,-1.969,-1.9705,-1.9705,-1.9705,-1.9705]}]]